     2.10           OBSERVATION DATA    G (GPS)             RINEX VERSION / TYPE
teqc 2005Jan28 UNAVCO Archive Ops 20050505 19:38:54UTC      PGM / RUN BY / DATE
Solaris 2.7|Ultra 2|cc SC5.0|=+-|*Sparc                     COMMENT
BIT 2 OF LLI FLAGS DATA COLLECTED UNDER A/S CONDITION       COMMENT
OASI                                                        MARKER NAME
3261                                                        MARKER NUMBER
Everyone RSMAS-PSU                                          OBSERVER / AGENCY
3842A24360 TRIMBLE 4000SSI NP 7.19 / SP 3.04                REC # / TYPE / VERS
0220214127 TRM29659.00                                      ANT # / TYPE
 -2363637.0000 -4481085.0000  3864766.0000                  APPROX POSITION XYZ
        0.5000        0.0000        0.0000                  ANTENNA: DELTA H/E/N
     1     1                                                WAVELENGTH FACT L1/2
     6    L1    L2    C1    P2    P1    D1                  # / TYPES OF OBSERV
    15.0000                                                 INTERVAL
NOTICE: YOUR USE OF THIS FILE IMPLIES YOUR                  COMMENT
ACCEPTANCE OF THE UNAVCO DATA SHARING POLICY                COMMENT
READ THE POLICY AT:                                         COMMENT
http://www.unavco.org/community/policies_forms              COMMENT
/DataPolicy.html                                            COMMENT
AND FOLLOW THE POLICY OR DELETE THIS FILE.                  COMMENT
                                                            COMMENT
RINEX file created by UNAVCO GPS Archive.                   COMMENT
For more information contact archive@unavco.org             COMMENT
Monument ID: 11049                                          COMMENT
UNAVCO 4-char name: OASI                                    COMMENT
4-char name from log or data file: OASI                     COMMENT
Monument name: Oasis                                        COMMENT
Monument location: 37.5 -117.8 1885                         COMMENT
Original XYZ: -2363600.9581 -4482968.1207 3862711.6141      COMMENT
New XYZ position is based on association with SCEC monument COMMENT
E1G0R1V8+0011.                                              COMMENT
Visit ID: 59506 RawID: 238249                               COMMENT
Filename: OASI2750 DAT EPH ION MES                          COMMENT
Antenna height measured: .5                                 COMMENT
Antenna height measured type: V                             COMMENT
Corrected antenna height validated? Y                       COMMENT
If Yes, then logsheet & data file values are identical      COMMENT
End of DB comments                                          COMMENT
SNR is mapped to RINEX snr flag value [1-9]                 COMMENT
L1: 3 -> 1; 8 -> 5; 40 -> 9                                 COMMENT
L2: 1 -> 1; 5 -> 5; 60 -> 9                                 COMMENT
  2001    10     2     0     0   15.0000000     GPS         TIME OF FIRST OBS
                                                            END OF HEADER
 01 10  2  0  0 15.0000000  0  9G13G 3G10G28G 8G27G 1G 2G31
  -4460620.04358  -3121543.86956  21466874.5944   21466880.6294
     -3178.8124
   4383488.98055   7410295.53255  24326837.7664   24326850.7664
     -3351.5474
  -2537977.49155    593124.56755  23960282.2974   23960293.8674
     -1008.5784
 -12602407.09057  -9543071.02456  21972682.8054   21972689.0864
      1204.6564
 -14575846.60458 -11228120.77557  21052433.0314   21052439.5004
       661.1254
 -11916299.08758  -9169560.44757  20901028.7344   20901034.7814
      -505.4224
  16100003.67655  17970410.28155  24099918.6804   24099932.8054
     -4366.9534
  -6865126.24356   -847948.47256  23141301.8524   23141311.6054
      1290.9534
  -9814372.93757  -7517110.22756  21964146.2424   21964153.1604
     -1428.3754
 01 10  2  0  0 30.0000000  0  9G13G 3G10G28G 8G27G 1G 2G31
  -4412875.18648  -3084340.11446  21475960.3754   21475966.5514
     -3187.0004
   4433820.36145   7449514.71845  24336415.0004   24336426.7584
     -3359.1414
  -2522772.72345    604972.42945  23963175.2114   23963186.5824
     -1018.5624
 -12620426.35647  -9557111.96946  21969254.2194   21969260.4774
      1198.0784
 -14585729.16448 -11235821.45747  21050552.4534   21050558.9224
       656.7194
 -11908680.28148  -9163623.71147  20902478.5864   20902484.5864
      -510.2504
  16165538.02045  18021475.89645  24112390.5704   24112407.6604
     -4370.7814
  -6884452.32546   -863007.69546  23137624.2664   23137634.3244
      1286.0164
  -9792860.21747  -7500347.07546  21968240.1484   21968247.1134
     -1439.8284
 01 10  2  0  0 45.0000000  0  9G13G 3G10G28G 8G27G 1G 2G31
  -4365016.73048  -3047047.86646  21485067.7894   21485073.9184
     -3194.5314
   4484256.56045   7488815.59245  24346013.2814   24346023.8204
     -3366.0944
  -2507427.55645    616929.66145  23966095.0164   23966106.1884
     -1027.8914
 -12638356.28247  -9571083.30646  21965841.8754   21965847.9694
      1192.1724
 -14595554.57748 -11243477.60447  21048682.9304   21048689.1994
       652.9384
 -11900998.14648  -9157637.63547  20903940.5394   20903946.5744
      -514.4534
  16231120.77645  18072579.19245  24124869.0314   24124884.1644
     -4373.9844
  -6903713.21346   -878016.12846  23133959.2504   23133969.2274
      1281.7034
  -9771184.86147  -7483457.18746  21972365.0784   21972371.6884
     -1450.6254
 01 10  2  0  1  0.0000000  0  9G13G 3G10G28G 8G27G 1G 2G31
  -4317045.66648  -3009667.84446  21494196.1024   21494202.1374
     -3201.8594
   4534796.53245   7528197.37445  24355630.8594   24355643.4734
     -3372.8444
  -2491942.89445    628995.60345  23969040.1804   23969051.0704
     -1037.0164
 -12656197.73047  -9584985.69246  21962446.8674   21962453.1724
      1186.4384
 -14605323.63948 -11251089.84447  21046823.8054   21046830.3554
       649.3444
 -11893253.39548  -9151602.76347  20905414.3444   20905420.4734
      -518.4534
  16296750.85945  18123719.40945  24137358.7504   24137372.1254
     -4376.9534
  -6922909.63346   -892974.31146  23130305.9384   23130315.9264
      1277.5634
  -9749347.63747  -7466441.18246  21976520.0784   21976526.8984
     -1461.2664
 01 10  2  0  1 15.0000000  0  9G13G 3G10G28G 8G27G 1G 2G31
  -4268959.34848  -2972198.03046  21503346.9454   21503353.1914
     -3209.5944
   4585442.81245   7567661.99745  24365267.5234   24365277.7934
     -3379.9694
  -2476315.94945    641172.39145  23972014.9304   23972026.5944
     -1046.5314
 -12673947.67447  -9598816.78146  21959068.7344   21959075.0044
      1180.2814
 -14615033.53948 -11258655.98347  21044976.0704   21044982.5274
       645.3594
 -11885443.05448  -9145516.78047  20906900.4384   20906906.5204
      -522.8914
  16362430.89645  18174898.48045  24149856.8134   24149872.0634
     -4380.3284
  -6942038.76646   -907880.06946  23126665.9224   23126675.2194
      1273.0314
  -9727345.74647  -7449296.86346  21980706.7424   21980713.8834
     -1472.2814
 01 10  2  0  1 30.0000000  0  9G13G 3G10G28G 8G27G 1G 2G31
  -4220754.80048  -2934636.08746  21512519.5784   21512525.6724
     -3217.5944
   4636198.23845   7607211.70545  24374926.0394   24374935.1374
     -3387.3914
  -2460543.61145    653462.53745  23975017.4614   23975026.6414
     -1056.3444
 -12691602.87147  -9612574.03446  21955709.2664   21955715.5594
      1173.8284
 -14624680.86848 -11266173.36647  21043140.1094   21043146.5554
       641.0474
 -11877563.88948  -9139377.16847  20908399.9924   20908405.9924
      -527.5944
  16428163.74645  18226118.79345  24162364.8204   24162380.4694
     -4383.9694
  -6961097.47146   -922730.96446  23123038.8594   23123049.0704
      1268.2034
  -9705176.20947  -7432021.90646  21984925.4534   21984932.5824
     -1483.5784
 01 10  2  0  1 45.0000000  0  9G13G 3G10G28G 8G27G 1G 2G31
  -4172431.90348  -2896981.91646  21521715.2034   21521721.1094
     -3225.2814
   4687062.97345   7646846.51945  24384605.8834   24384617.7814
     -3394.4374
  -2444625.84645    665865.98445  23978046.4304   23978055.7624
     -1065.8444
 -12709162.90747  -9626257.14046  21952367.9304   21952374.2234
      1167.6884
 -14634265.30548 -11273641.74247  21041316.3834   21041322.8634
       637.0634
 -11869615.39648  -9133183.53747  20909912.2814   20909918.3634
      -532.0164
  16493949.53245  18277380.30545  24174884.0474   24174895.2424
     -4387.2664
  -6980085.40846   -937526.70046  23119426.1094   23119435.9924
      1263.6884
  -9682838.73147  -7414616.08546  21989176.2584   21989183.7734
     -1494.5624
 01 10  2  0  2  0.0000000  0  9G13G 3G10G28G 8G27G 1G 2G31
  -4123992.30548  -2859236.81446  21530932.8524   21530938.9104
     -3233.0944
   4738035.12045   7686564.99645  24394305.9694   24394318.4304
     -3401.6254
  -2428564.12545    678381.58945  23981102.9924   23981113.6484
     -1075.4694
 -12726629.33947  -9639867.30946  21949043.9384   21949050.3014
      1161.4224
 -14643788.22148 -11281062.18047  21039504.1174   21039510.5984
       632.9224
 -11861599.02048  -9126937.00847  20911437.8284   20911443.8284
      -536.5784
  16559786.53345  18328681.73945  24187411.4774   24187426.8444
     -4390.7344
  -6999004.00146   -952268.41046  23115825.0164   23115835.4494
      1259.0314
  -9660334.85947  -7397080.61146  21993458.7504   21993466.4774
     -1505.7034
 01 10  2  0  2 15.0000000  0  9G13G 3G10G28G 8G27G 1G 2G31
  -4075435.01448  -2821400.01146  21540173.1564   21540179.2624
     -3241.2194
   4789115.47645   7726367.78845  24404025.7194   24404038.2624
     -3409.1094
  -2412357.36145    691010.17545  23984186.0474   23984198.8014
     -1085.4224
 -12744001.00647  -9653403.63546  21945737.8204   21945744.0904
      1154.7974
 -14653248.32148 -11288433.66947  21037704.1484   21037710.7114
       628.4224
 -11853513.51448  -9120636.61947  20912976.5864   20912982.7154
      -541.4844
  16625675.63845  18380023.71345  24199951.0704   24199963.4384
     -4394.5004
  -7017852.02346   -966955.12146  23112239.1724   23112249.0084
      1254.0314
  -9637663.52847  -7379414.64946  21997773.0864   21997780.2154
     -1517.1564
 01 10  2  0  2 30.0000000  0  9G13G 3G10G28G 8G27G 1G 2G31
  -4026761.65648  -2783472.75546  21549435.7034   21549441.8204
     -3248.5784
   4840302.57745   7766253.79445  24413766.5004   24413777.5204
     -3415.8594
  -2396007.05645    703750.64545  23987297.2034   23987307.5664
     -1094.6414
 -12761279.21447  -9666867.13446  21942449.9694   21942456.1454
      1148.9384
 -14662646.81948 -11295757.15947  21035915.5944   21035922.0744
       624.6884
 -11845360.12548  -9114283.32047  20914528.0394   20914534.0634
      -545.6564
  16691615.14445  18431405.06345  24212498.4924   24212513.0164
     -4397.4844
  -7036630.92246   -981587.97146  23108665.0634   23108675.4614
      1249.7974
  -9614826.16747  -7361619.30346  22002118.7034   22002125.9734
     -1527.8594
 01 10  2  0  2 45.0010000  0  9G13G 3G10G28G 8G27G 1G 2G31
  -3977973.18348  -2745455.80546  21558719.7784   21558725.8604
     -3255.7194
   4891595.48245   7806222.30245  24423527.1854   24423538.6384
     -3422.3444
  -2379516.23845    716600.59145  23990435.3104   23990446.6574
     -1103.6254
 -12778469.04447  -9680261.77146  21939178.7554   21939185.2004
      1143.2814
 -14671988.33848 -11303036.24947  21034137.7314   21034144.3294
       621.1564
 -11837142.19848  -9107879.74147  20916091.7864   20916097.8564
      -549.6094
  16757605.22545  18482825.74445  24225056.9664   24225071.0914
     -4400.2034
  -7055345.83746   -996170.97646  23105103.1614   23105113.1614
      1245.7504
  -9591825.29247  -7343696.54246  22006495.7554   22006503.2944
     -1538.3284
 01 10  2  0  3  0.0010000  0  9G13G 3G10G28G 8G27G 1G 2G31
  -3929080.15748  -2707357.38946  21568024.0284   21568030.2394
     -3262.8914
   4942983.17045   7846264.59345  24433305.7394   24433317.7674
     -3428.8754
  -2362891.13245    729555.19145  23993600.3334   23993608.9744
     -1112.6254
 -12795572.06447  -9693588.75446  21935924.3884   21935930.8564
      1137.5784
 -14681275.43748 -11310272.93247  21032370.3564   21032376.7434
       617.5784
 -11828864.66748  -9101429.71747  20917666.9894   20917672.9784
      -553.6094
  16823632.90445  18534275.73145  24237622.6144   24237640.1384
     -4403.0164
  -7073998.18446  -1010705.20946  23101554.4814   23101563.8254
      1241.6724
  -9568667.95747  -7325651.87446  22010901.7164   22010909.4544
     -1548.8594
 01 10  2  0  3 15.0010000  0  9G13G 3G10G28G 8G27G 1G 2G31
  -3880080.49948  -2669175.87446  21577348.0054   21577354.2284
     -3270.1414
   4994467.79045   7886382.43945  24443104.1064   24443116.9074
     -3435.4694
  -2346131.72945    742614.46645  23996789.8414   23996797.8374
     -1121.7194
 -12812590.24947  -9706849.63746  21932685.9424   21932692.1774
      1131.7814
 -14690509.47748 -11317468.27347  21030613.3964   21030619.8994
       613.8914
 -11820527.78848  -9094933.44847  20919253.5604   20919259.5714
      -557.7034
  16889701.39545  18585757.56845  24250194.4114   24250208.6884
     -4405.8594
  -7092590.09546  -1025192.36646  23098016.5134   23098026.1964
      1237.5164
  -9545353.57447  -7307484.82646  22015338.6614   22015346.3064
     -1559.4694
 01 10  2  0  3 30.0010000  0  9G13G 3G10G28G 8G27G 1G 2G31
  -3830974.18348  -2630911.26246  21586692.9194   21586699.2824
     -3277.9374
   5046049.29944   7926575.75645  24452918.4664   24452929.5794
     -3442.6414
  -2329237.90545    755778.47145  24000003.5674   24000012.9704
     -1131.3754
 -12829523.41647  -9720044.27346  21929463.3564   21929469.3454
      1125.3914
 -14699690.35048 -11324622.18347  21028866.2944   21028872.7984
       609.6414
 -11812131.23348  -9088390.68047  20920851.3104   20920857.4154
      -562.4064
  16955810.78845  18637271.20945  24262775.7714   24262792.2164
     -4409.2814
  -7111121.40846  -1039632.29046  23094490.5524   23094500.1884
      1232.7504
  -9521881.99647  -7289195.28846  22019805.7314   22019812.6734
     -1570.6564
 01 10  2  0  3 45.0010000  0  9G13G 3G10G28G 8G27G 1G 2G31
  -3781751.90348  -2592556.28046  21596059.4034   21596065.5794
     -3284.9534
   5097737.04843   7966851.90945  24462754.3884   24462764.3414
     -3448.9844
  -2312200.08545    769054.66545  24003244.9274   24003256.5324
     -1140.2504
 -12846361.83847  -9733165.08646  21926259.1854   21926265.2554
      1119.8134
 -14708808.17848 -11331726.97347  21027131.1924   21027137.6264
       606.1564
 -11803665.23848  -9081793.80447  20922462.4894   20922468.5714
      -566.3124
  17021970.41745  18688824.03445  24275364.9504   24275379.4504
     -4411.9064
  -7129582.40646  -1054017.43246  23090976.4584   23090986.1654
      1228.7974
  -9498243.74447  -7270775.86946  22024304.2784   22024311.4074
     -1581.0314
 01 10  2  0  4  0.0010000  0  9G13G 3G10G28G 8G27G 1G 2G31
  -3732409.11448  -2554107.39446  21605448.8884   21605455.0524
     -3293.2974
   5149535.29344   8007214.08845  24472611.5604   24472624.8994
     -3456.6564
  -2295013.85445    782446.49245  24006515.4664   24006526.6964
     -1150.4694
 -12863100.90447  -9746208.46846  21923073.7864   21923080.3134
      1112.8444
 -14717858.15348 -11338778.88747  21025409.0754   21025415.6034
       601.2974
 -11795125.07648  -9075139.13747  20924087.5994   20924093.5994
      -571.5944
  17088184.62845  18740419.42745  24287963.4664   24287978.6574
     -4415.8594
  -7147968.42546  -1068344.14546  23087478.3414   23087488.1774
      1223.4694
  -9474434.27547  -7252223.03446  22028834.4034   22028841.5324
     -1592.7664
 01 10  2  0  4 15.0010000  0  9G13G 3G10G28G 8G27G 1G 2G31
  -3682953.00748  -2515570.21546  21614860.5754   21614866.6344
     -3300.8914
   5201436.76445   8047656.78445  24482487.8414   24482500.4784
     -3463.5944
  -2277686.30945    795948.42445  24009814.1064   24009824.4934
     -1159.9224
 -12879747.55947  -9759179.85446  21919906.1144   21919912.2204
      1106.6414
 -14726847.29448 -11345783.39847  21023698.4194   21023704.9354
       597.2034
 -11786517.62448  -9068432.03547  20925725.3724   20925731.5364
      -576.1254
  17154446.24645  18792051.61545  24300575.9584   24300590.3764
     -4419.0624
  -7166286.43646  -1082617.87346  23083992.0054   23084001.6534
      1218.8914
  -9450460.62547  -7233542.26446  22033396.2474   22033403.5524
     -1603.7664
 01 10  2  0  4 30.0010000  0  9G13G 3G10G28G 8G27G 1G 2G31
  -3633384.40048  -2476945.36146  21624292.8024   21624298.9074
     -3308.3444
   5253440.48245   8088179.15645  24492384.1144   24492396.0834
     -3470.3594
  -2260218.36045    809559.80845  24013138.5134   24013149.7204
     -1169.2504
 -12896302.45247  -9772079.72646  21916755.6464   21916761.7864
      1100.5634
 -14735776.14948 -11352740.93147  21021999.2554   21022005.5604
       593.2194
 -11777843.48048  -9061672.96647  20927375.9584   20927382.1104
      -580.5314
  17220754.19945  18843720.09745  24313191.2784   24313207.2204
     -4422.0944
  -7184537.17046  -1096839.16746  23080519.4664   23080529.2554
      1214.4384
  -9426323.66747  -7214734.25046  22037989.3494   22037996.7714
     -1614.6094
 01 10  2  0  4 45.0010000  0  9G13G 3G10G28G 8G27G 1G 2G31
  -3583699.34048  -2438229.77346  21633747.8414   21633753.9584
     -3316.3444
   5305550.41045   8128784.27745  24502300.8024   24502311.6464
     -3477.6724
  -2242605.64545    823283.98945  24016488.9354   24016500.1304
     -1179.1254
 -12912761.23647  -9784904.72146  21913623.4894   21913629.5364
      1093.9224
 -14744640.41848 -11359648.13847  21020312.5214   21020318.9664
       588.6564
 -11769098.20148  -9054858.46147  20929040.2164   20929046.3454
      -585.5164
  17287112.52745  18895427.70945  24325820.5754   24325834.9234
     -4425.6874
  -7202716.31846  -1111004.68546  23077059.8254   23077069.2634
      1209.4384
  -9402019.17647  -7195795.68046  22042613.7394   22042621.3604
     -1626.0164
 01 10  2  0  5  0.0010000  0  9G13G 3G10G28G 8G27G 1G 2G31
  -3533899.42648  -2399424.69446  21643224.7164   21643230.8334
     -3323.5004
   5357764.85445   8169470.82145  24512236.7944   24512249.2084
     -3484.1094
  -2224849.85245    837119.64245  24019867.9034   24019879.9194
     -1188.1564
 -12929125.33347  -9797655.92246  21910509.8174   21910516.0174
      1088.0944
 -14753441.35848 -11366506.00147  21018637.8334   21018644.2084
       584.9384
 -11760283.21548  -9047989.64547  20930717.6144   20930723.6144
      -589.6724
  17353519.62745  18947173.34345  24338458.0134   24338472.1384
     -4428.4374
  -7220825.38746  -1125115.60046  23073613.8564   23073623.6104
      1205.2504
  -9377548.69147  -7176727.77646  22047270.5524   22047277.7864
     -1636.5784
 01 10  2  0  5 15.0010000  0  9G13G 3G10G28G 8G27G 1G 2G31
  -3483990.35448  -2360534.55946  21652722.2554   21652728.3024
     -3330.9844
   5410077.96545   8210234.29445  24522191.8174   24522203.2004
     -3490.8914
  -2206956.66545    851062.33245  24023273.1774   24023284.6884
     -1197.5474
 -12945400.17047  -9810337.57846  21907412.9974   21907419.3844
      1081.9224
 -14762184.38048 -11373318.73347  21016973.8884   21016980.2984
       580.8284
 -11751403.80948  -9041070.63147  20932407.3414   20932413.3064
      -594.2034
  17419969.57845  18998952.39745  24351100.0604   24351115.7674
     -4431.5314
  -7238869.76246  -1139176.11246  23070179.4424   23070188.9974
      1200.7194
  -9352917.81647  -7157534.88046  22051958.1924   22051965.5324
     -1647.4844
 01 10  2  0  5 30.0010000  0  9G13G 3G10G28G 8G27G 1G 2G31
  -3433961.96048  -2321551.43146  21662242.4584   21662248.4464
     -3338.9374
   5462499.78644   8251082.39245  24532166.7634   24532178.9544
     -3498.1414
  -2188915.91345    865120.03445  24026706.4114   24026716.4234
     -1207.3914
 -12961575.37747  -9822941.59346  21904334.5674   21904340.7904
      1075.2974
 -14770859.12448 -11380078.25947  21015323.3254   21015329.7354
       576.3134
 -11742449.58748  -9034093.32447  20934111.1304   20934117.2714
      -599.1874
  17486472.55645  19050772.73645  24363757.3254   24363772.1424
     -4435.0164
  -7256839.09146  -1153178.12346  23066760.9194   23066770.4624
      1195.7194
  -9328116.34347  -7138209.05846  22056678.0364   22056685.8804
     -1658.8594
 01 10  2  0  5 45.0010000  0  9G13G 3G10G28G 8G27G 1G 2G31
  -3383815.04348  -2282475.95346  21671784.7164   21671790.8564
     -3347.2664
   5515029.55744   8292014.61845  24542162.6774   24542174.3064
     -3505.7504
  -2170728.03645    879292.37845  24030167.1924   24030177.6854
     -1217.6254
 -12977651.41747  -9835468.33646  21901275.5054   21901281.6574
      1068.2504
 -14779465.87548 -11386784.80647  21013685.6774   21013692.1344
       571.3444
 -11733420.93748  -9027058.02547  20935829.5214   20935835.7314
      -604.5784
  17553027.73644  19102633.82745  24376420.0604   24376436.5754
     -4438.9064
  -7274733.82546  -1167122.02946  23063355.2314   23063365.0914
      1190.3134
  -9303144.75747  -7118750.68346  22061429.6464   22061437.2904
     -1670.6254
 01 10  2  0  6  0.0010000  0  9G13G 3G10G28G 8G27G 1G 2G31
  -3333558.92848  -2243315.39146  21681348.1774   21681354.3294
     -3353.9374
   5567657.74144   8333023.55345  24552178.0134   24552189.7004
     -3511.7194
  -2152402.44145    893572.04845  24033654.5604   24033665.4744
     -1226.1874
 -12993637.31547  -9847924.84746  21898233.5054   21898239.6224
      1062.8284
 -14788013.77448 -11393445.49047  21012058.9424   21012065.3064
       568.0004
 -11724326.92648  -9019971.78647  20937559.9424   20937565.9664
      -608.3444
  17619625.64645  19154528.10545  24389096.8804   24389111.7784
     -4441.1724
  -7292563.18246  -1181014.99246  23059962.4664   23059971.5634
      1186.5474
  -9278012.40847  -7099167.03546  22066211.9354   22066219.3214
     -1680.7504
 01 10  2  0  6 15.0010000  0  9G13G 3G10G28G 8G27G 1G 2G31
  -3283198.57848  -2204073.59546  21690931.4424   21690937.6304
     -3361.0314
   5620379.17545   8374105.22545  24562210.7164   24562225.2394
     -3518.0784
  -2133944.02045    907955.22045  24037167.2394   24037178.3884
     -1235.1724
 -13009538.04347  -9860314.98146  21895207.6304   21895213.5484
      1057.0004
 -14796507.44748 -11400063.92547  21010442.4034   21010448.8844
       564.2344
 -11715172.28248  -9012838.30347  20939301.9424   20939308.0244
      -612.5314
  17686261.38245  19206451.96345  24401775.4814   24401790.8024
     -4443.8284
  -7310331.97746  -1194860.74546  23056581.1304   23056591.0014
      1182.3594
  -9252724.13247  -7079461.88546  22071024.5054   22071031.6694
     -1691.2814
 01 10  2  0  6 30.0010000  0  9G13G 3G10G28G 8G27G 1G 2G31
  -3232729.32048  -2164746.94946  21700535.3024   21700541.5244
     -3368.4844
   5673198.59445   8415263.20245  24572261.9974   24572274.4934
     -3524.8124
  -2115348.12545    922445.47245  24040706.1304   24040717.9814
     -1244.5624
 -13025348.56247  -9872634.83546  21892198.7474   21892204.9704
      1050.7664
 -14804941.96948 -11406636.26547  21008837.2474   21008843.6814
       560.0944
 -11705951.99848  -9005653.66947  20941056.4584   20941062.5634
      -617.1254
  17752939.46645  19258408.74345  24414464.2634   24414478.8924
     -4446.8754
  -7328035.24946  -1208655.45646  23053212.0214   23053221.7864
      1177.7814
  -9227275.11347  -7059631.48846  22075867.2634   22075874.7314
     -1702.2034
 01 10  2  0  6 45.0010000  0  9G13G 3G10G28G 8G27G 1G 2G31
  -3182148.40448  -2125333.29746  21710160.7944   21710167.1814
     -3375.7194
   5726118.83945   8456499.72545  24582331.7474   24582346.0134
     -3531.2974
  -2096611.77445    937045.19645  24044271.5754   24044283.1224
     -1253.7194
 -13041065.76847  -9884881.97046  21889208.1924   21889214.1574
      1044.7664
 -14813314.13048 -11413160.01347  21007244.2394   21007250.5324
       556.1414
 -11696662.76548  -8998415.31147  20942824.3414   20942830.3764
      -621.5164
  17819662.91745  19310400.91345  24427162.6694   24427179.4664
     -4449.6724
  -7345669.89346  -1222396.69246  23049856.6854   23049866.4974
      1173.4224
  -9201662.29147  -7039673.44246  22080741.5994   22080749.1034
     -1712.9064
 01 10  2  0  7  0.0010000  0  9G13G 3G10G28G 8G27G 1G 2G31
  -3131457.49548  -2085833.92946  21719807.0834   21719813.4114
     -3382.8124
   5779137.96745   8497813.30545  24592420.9194   24592432.2904
     -3537.6724
  -2077736.67945    951753.05145  24047863.2004   24047874.1614
     -1262.7194
 -13056691.13747  -9897057.54446  21886234.6614   21886241.0014
      1038.8594
 -14821625.32948 -11419636.25747  21005662.7244   21005669.0994
       552.2814
 -11687306.11448  -8991124.42047  20944604.7714   20944610.7714
      -625.7974
  17886429.68445  19362426.86145  24439866.2004   24439883.3134
     -4452.3284
  -7363237.50446  -1236085.69146  23046513.4354   23046522.5794
      1169.1724
  -9175887.47047  -7019589.17646  22085646.2394   22085654.0014
     -1723.4844
 01 10  2  0  7 15.0010000  0  9G13G 3G10G28G 8G27G 1G 2G31
  -3080663.39848  -2046254.16146  21729472.6924   21729478.8564
     -3390.0944
   5832249.09345   8539198.57445  24602528.6924   24602540.5914
     -3544.2034
  -2058729.50045    966563.80645  24051479.9034   24051492.2594
     -1271.9534
 -13072231.22847  -9909166.67046  21883277.4034   21883283.5794
      1032.7664
 -14829882.05748 -11426070.05447  21004091.5364   21004097.9584
       548.2344
 -11677888.51948  -8983786.04047  20946396.6534   20946402.7474
      -630.2814
  17953233.00345  19414481.12945  24452579.6224   24452592.7984
     -4455.1724
  -7380744.60146  -1249727.54146  23043181.6924   23043191.4464
      1164.7194
  -9149957.28747  -6999383.83746  22090580.2784   22090587.5134
     -1734.2504
 01 10  2  0  7 30.0010000  0  9G13G 3G10G28G 8G27G 1G 2G31
  -3029756.49448  -2006586.48946  21739159.7314   21739166.1774
     -3397.5944
   5885461.70844   8580662.93545  24612653.4974   24612665.7124
     -3550.9374
  -2039580.52845    981485.05845  24055124.0674   24055133.4814
     -1281.3594
 -13087676.17547  -9921201.65846  21880338.3334   21880344.3104
      1026.4534
 -14838074.58048 -11432453.82447  21002532.5284   21002539.1384
       543.9694
 -11668400.00948  -8976392.40047  20948202.3884   20948208.4814
      -634.9844
  18020082.53345  19466571.61945  24465301.7084   24465317.9074
     -4458.2194
  -7398181.36046  -1263314.56646  23039863.7944   23039872.9854
      1160.0634
  -9123862.04847  -6979049.88546  22095546.0214   22095553.5134
     -1745.2344
 01 10  2  0  7 45.0010000  0  9G13G 3G10G28G 8G27G 1G 2G31
  -2978734.56848  -1966829.18846  21748869.5674   21748875.8724
     -3404.9374
   5938777.91143   8622207.98745  24622799.7784   24622811.3494
     -3557.5164
  -2020287.48245    996518.54745  24058795.2554   24058804.8804
     -1290.6564
 -13103023.62447  -9933160.67246  21877417.7394   21877423.7864
      1020.2504
 -14846200.20848 -11438785.47147  21000986.1534   21000992.7164
       539.8284
 -11658838.05648  -8968941.53247  20950021.9814   20950028.1104
      -639.5784
  18086980.27545  19518699.52645  24478030.9354   24478047.3924
     -4461.1094
  -7415545.31946  -1276844.87646  23036559.5834   23036569.1384
      1155.5164
  -9097599.41947  -6958585.50746  22100544.3334   22100551.8844
     -1756.0784
 01 10  2  0  8  0.0010000  0  9G13G 3G10G28G 8G27G 1G 2G31
  -2927610.54248  -1926992.32546  21758597.6854   21758604.0484
     -3412.3594
   5992184.89544   8663823.74945  24632962.2554   24632974.4464
     -3564.1874
  -2000863.12145   1011654.40045  24062491.2784   24062502.0874
     -1300.0164
 -13118286.13647  -9945053.49846  21874513.5054   21874519.5174
      1013.9694
 -14854271.39248 -11445074.68647  20999450.4194   20999457.0054
       535.5634
 -11649215.18148  -8961443.19347  20951853.2474   20951859.2824
      -644.2504
  18153913.48945  19570855.17345  24490768.1774   24490783.4274
     -4464.0624
  -7432849.07146  -1290328.28346  23033266.2944   23033275.8724
      1150.8914
  -9071182.11447  -6938000.59846  22105570.8964   22105577.9784
     -1767.0004
 01 10  2  0  8 15.0010000  0  9G13G 3G10G28G 8G27G 1G 2G31
  -2876372.07848  -1887066.29446  21768348.0604   21768354.1184
     -3419.6724
   6045694.67744   8705519.62645  24643144.8254   24643157.6034
     -3570.6874
  -1981295.29045   1026902.02245  24066215.9424   24066226.5874
     -1309.2664
 -13133451.22847  -9956870.41846  21871627.5444   21871633.6144
      1007.7974
 -14862275.75048 -11451311.83047  20997927.0754   20997933.6494
       531.4534
 -11639518.91348  -8953887.66147  20953698.2784   20953704.4074
      -648.8284
  18220894.15344  19623047.77545  24503511.5994   24503528.8994
     -4466.9374
  -7450080.26846  -1303755.14046  23029987.4974   23029996.8644
      1146.3754
  -9044597.82447  -6917285.56246  22110629.7554   22110636.8254
     -1777.8124
 01 10  2  0  8 30.0010000  0  9G13G 3G10G28G 8G27G 1G 2G31
  -2825019.79648  -1847051.57946  21778120.0364   21778126.2244
     -3427.2034
   6099306.70845   8747295.27545  24653347.9114   24653361.3214
     -3577.4534
  -1961584.35445   1042261.18645  24069966.3254   24069977.6734
     -1318.7814
 -13148519.11447  -9968611.59346  21868760.2244   21868766.3644
      1001.3444
 -14870213.39648 -11457496.99847  20996416.5054   20996423.0094
       527.0164
 -11629749.39648  -8946275.05847  20955557.3564   20955563.4274
      -653.6874
  18287921.98845  19675277.05645  24516269.6384   24516282.9194
     -4470.0164
  -7467239.18646  -1317125.67046  23026722.4034   23026731.9934
      1141.5784
  -9017846.87347  -6896440.68146  22115720.2864   22115727.3804
     -1788.8754
 01 10  2  0  8 45.0010000  0  9G13G 3G10G28G 8G27G 1G 2G31
  -2773556.60648  -1806950.43546  21787913.3964   21787919.6064
     -3433.9844
   6153018.03845   8789148.19145  24663568.2084   24663581.6064
     -3583.4694
  -1941733.04045   1057729.68045  24073743.6614   24073755.9464
     -1327.5164
 -13163492.44247  -9980279.08546  21865910.7784   21865916.9544
       995.6564
 -14878086.89048 -11463632.16747  20994918.3644   20994924.8684
       523.3444
 -11619909.09148  -8938607.29047  20957430.1694   20957436.3104
      -657.7814
  18354993.89945  19727540.80245  24529031.2004   24529048.6534
     -4472.3444
  -7484328.41846  -1330441.91446  23023470.2714   23023480.4464
      1137.5474
  -8990932.12047  -6875468.15246  22120841.9034   22120849.3134
     -1799.1724
 01 10  2  0  9  0.0010000  0  9G13G 3G10G28G 8G27G 1G 2G31
  -2721984.82148  -1766764.67746  21797727.3174   21797733.5524
     -3442.0944
   6206826.13945   8831076.62645  24673807.9194   24673821.3994
     -3590.7504
  -1921743.77145   1073305.73745  24077546.8334   24077558.6144
     -1337.5624
 -13178373.31847  -9991874.53546  21863078.8104   21863085.0214
       988.6254
 -14885898.17648 -11469718.86847  20993431.8174   20993438.0874
       518.3284
 -11610000.09948  -8930885.99647  20959315.7634   20959321.8104
      -663.2344
  18422107.54145  19779836.91345  24541804.8174   24541821.1104
     -4475.9534
  -7501350.14046  -1343705.53946  23020231.2164   23020240.6184
      1132.1884
  -8963855.79247  -6854369.71946  22125994.0524   22126001.5324
     -1810.8284
 01 10  2  0  9 15.0010000  0  9G13G 3G10G28G 8G27G 1G 2G31
  -2670301.84648  -1726492.28246  21807562.0054   21807568.1924
     -3449.4224
   6260733.48545   8873082.37945  24684065.9274   24684078.0834
     -3597.3284
  -1901613.84445   1088991.31945  24081377.9424   24081388.9974
     -1346.8754
 -13193158.94247 -10003395.76046  21860265.1614   21860271.1144
       982.3444
 -14893644.57248 -11475755.00647  20991957.8104   20991964.1264
       514.0634
 -11600019.48748  -8923108.90147  20961215.0524   20961221.0634
      -667.9534
  18489265.35744  19832167.64445  24554581.9194   24554598.0604
     -4478.8444
  -7518301.54946  -1356914.38246  23017005.8564   23017015.7044
      1127.5634
  -8936615.20447  -6833143.29946  22131178.3884   22131185.6224
     -1821.7034
 01 10  2  0  9 30.0010000  0  9G13G 3G10G28G 8G27G 1G 2G31
  -2618507.52848  -1686133.11546  21817418.2944   21817424.8924
     -3456.8124
   6314740.31345   8915165.62745  24694343.5214   24694356.9194
     -3603.9374
  -1881343.03945   1104786.74245  24085236.1534   24085246.9974
     -1356.2504
 -13207848.76647 -10014842.34246  21857469.9664   21857476.0714
       975.9694
 -14901325.32648 -11481739.99347  20990496.2634   20990502.4384
       509.7034
 -11589966.71548  -8915275.57247  20963127.7634   20963133.7514
      -672.7504
  18556467.65645  19884532.83245  24567372.0284   24567388.8374
     -4481.7814
  -7535182.16346  -1370068.06746  23013793.1304   23013802.4624
      1122.8594
  -8909210.13247  -6811788.69946  22136393.2864   22136400.7554
     -1832.6414
 01 10  2  0  9 45.0010000  0  9G13G 3G10G28G 8G27G 1G 2G31
  -2566601.94248  -1645687.25146  21827296.3804   21827302.5094
     -3463.9844
   6368846.43944   8957326.25645  24704639.0674   24704652.7594
     -3610.2814
  -1860931.33545   1120691.93045  24089120.6774   24089131.1224
     -1365.3914
 -13222442.65247 -10026214.16546  21854692.7314   21854698.7554
       969.8284
 -14908940.31048 -11487673.73547  20989047.0754   20989053.3214
       505.5474
 -11579841.50948  -8907385.80447  20965054.5054   20965060.5994
      -677.3444
  18623714.34745  19936932.72245  24580168.9274   24580183.2394
     -4484.5004
  -7551991.78546  -1383166.42146  23010594.4034   23010604.0634
      1118.3754
  -8881640.45547  -6790305.84546  22141639.5054   22141647.1264
     -1843.3754
 01 10  2  0 10  0.0010000  0  9G13G 3G10G28G 8G27G 1G 2G31
  -2514600.16048  -1605166.42546  21837191.0054   21837197.3334
     -3470.2814
   6423036.53843   8999552.23245  24714952.2474   24714964.8374
     -3615.7504
  -1840394.00645   1136695.01745  24093027.3804   24093037.8964
     -1373.6564
 -13236955.70347 -10037523.00246  21851930.9114   21851937.1574
       964.5314
 -14916504.39548 -11493567.80647  20987607.7084   20987613.8844
       502.2814
 -11569658.91648  -8899451.31547  20966992.2244   20966998.3174
      -681.0624
  18690989.98345  19989355.15845  24592971.3104   24592988.9154
     -4486.2974
  -7568745.55846  -1396221.25946  23007406.4034   23007416.1814
      1114.7664
  -8853921.38647  -6768706.57246  22146914.0994   22146922.3534
     -1853.2194
 01 10  2  0 10 15.0010000  0  9G13G 3G10G28G 8G27G 1G 2G31
  -2462495.45748  -1564565.40846  21847106.2314   21847112.5134
     -3477.5164
   6477317.31544   9041848.91745  24725281.3494   24725294.6424
     -3622.1564
  -1819724.08845   1152801.37545  24096960.8334   24096972.3334
     -1382.8754
 -13251380.81347 -10048763.31646  21849185.8644   21849191.9584
       958.2974
 -14924010.48448 -11499416.69147  20986179.4194   20986185.7004
       498.0314
 -11559411.68748  -8891466.46047  20968942.0284   20968948.1574
      -685.7504
  18758301.50545  20041805.48945  24605779.8414   24605797.2244
     -4489.0784
  -7585436.30246  -1409226.98946  23004229.6774   23004238.8564
      1110.1724
  -8826045.94247  -6746985.46546  22152218.9354   22152226.3104
     -1864.0164
 01 10  2  0 10 30.0010000  0  9G13G 3G10G28G 8G27G 1G 2G31
  -2410290.56948  -1523886.32646  21857041.4034   21857047.5444
     -3484.0784
   6531686.05945   9084214.16345  24735626.7084   24735639.2634
     -3627.9224
  -1798924.14045   1169009.09545  24100920.3564   24100930.5094
     -1391.4064
 -13265720.39047 -10059936.97846  21846457.1774   21846463.2244
       952.7034
 -14931460.86048 -11505222.16347  20984761.5604   20984767.7944
       494.4224
 -11549102.15548  -8883433.06647  20970904.0134   20970910.1534
      -689.7974
  18825646.13945  20094281.73945  24618595.3804   24618610.8994
     -4491.1564
  -7602066.49546  -1422185.52546  23001064.9504   23001074.2944
      1106.2504
  -8798016.69447  -6725144.49646  22157552.6224   22157560.2434
     -1874.1564
 01 10  2  0 10 45.0010000  0  9G13G 3G10G28G 8G27G 1G 2G31
  -2357975.83748  -1483121.65646  21866996.1464   21867002.6494
     -3491.0004
   6586152.29145   9126655.39245  24745991.6064   24746005.5214
     -3634.0164
  -1777984.52445   1185325.65345  24104904.7944   24104915.6034
     -1400.2974
 -13279964.57647 -10071036.30946  21843746.8254   21843752.8254
       946.7504
 -14938845.63048 -11510976.51447  20983356.2164   20983362.5444
       490.4384
 -11538720.39548  -8875343.38047  20972879.7164   20972885.7634
      -694.2194
  18893033.44045  20146791.08645  24631418.8334   24631434.1424
     -4493.5624
  -7618626.33946  -1435089.25646  22997913.9584   22997923.1144
      1101.9534
  -8769823.97347  -6703176.15046  22162917.6464   22162925.5714
     -1884.6564
 01 10  2  0 11  0.0010000  0  9G13G 3G10G28G 8G27G 1G 2G31
  -2305555.46048  -1442274.66146  21876971.3104   21876977.5324
     -3498.0784
   6640711.57545   9169169.08245  24756373.9034   24756384.6064
     -3640.2504
  -1756909.44245   1201747.77445  24108914.3964   24108925.5674
     -1409.3914
 -13294117.31447 -10082064.38846  21841053.6224   21841059.7394
       940.5944
 -14946168.75848 -11516682.83147  20981962.6064   20981968.9234
       486.2664
 -11528270.29948  -8867200.45347  20974868.2864   20974874.3804
      -698.8284
  18960459.20845  20199330.57245  24644249.9034   24644268.7284
     -4496.2344
  -7635119.84546  -1447941.29546  22994775.3024   22994784.6344
      1097.4844
  -8741471.93347  -6681083.66346  22168312.6224   22168320.5604
     -1895.3284
 01 10  2  0 11 15.0010000  0  9G13G 3G10G28G 8G27G 1G 2G31
  -2253025.87148  -1401342.56246  21886967.5054   21886974.0444
     -3505.7664
   6695367.54245   9211758.12945  24766774.7314   24766787.7204
     -3647.1094
  -1735695.17045   1218278.33745  24112950.7394   24112962.9424
     -1419.0784
 -13308174.66947 -10093018.14246  21838378.5214   21838384.5674
       933.8134
 -14953426.13648 -11522337.91647  20980581.8104   20980588.0914
       481.4694
 -11517747.89048  -8859001.17147  20976870.7634   20976876.8334
      -704.0624
  19027926.87244  20251902.62445  24657088.2714   24657104.4354
     -4499.3914
  -7651543.07646  -1460738.57246  22991649.6614   22991659.1924
      1092.3754
  -8712956.88947  -6658864.15646  22173739.1064   22173746.4464
     -1906.5944
 01 10  2  0 11 30.0010000  0  9G13G 3G10G28G 8G27G 1G 2G31
  -2200387.25848  -1360325.50846  21896984.0364   21896990.2824
     -3512.4534
   6750119.92745   9254422.32645  24777193.3964   24777204.3924
     -3652.9694
  -1714341.87045   1234917.24045  24117015.6534   24117026.8134
     -1427.7814
 -13322136.72247 -10103897.63346  21835721.5134   21835727.6534
       928.0314
 -14960617.65848 -11527941.68147  20979213.1144   20979219.4194
       477.6414
 -11507153.00448  -8850745.41847  20978886.6924   20978892.8564
      -708.3284
  19095436.32344  20304507.22145  24669934.9894   24669952.4314
     -4501.6254
  -7667896.01946  -1473481.07546  22988538.0604   22988547.5094
      1088.2504
  -8684278.89447  -6636517.66646  22179196.3724   22179203.8994
     -1916.8914
 01 10  2  0 11 45.0010000  0  9G13G 3G10G28G 8G27G 1G 2G31
  -2147639.37348  -1319223.30446  21907021.9424   21907028.1884
     -3520.5314
   6804968.90645   9297161.80645  24787630.7554   24787641.8684
     -3660.1724
  -1692849.15745   1251664.76245  24121105.5914   24121117.5954
     -1437.8594
 -13336002.91747 -10114702.42146  21833082.7314   21833088.7204
       920.8444
 -14967742.65348 -11533493.60647  20977857.0524   20977863.2744
       472.4064
 -11496484.99948  -8842432.68747  20980916.7244   20980922.7354
      -714.0164
  19162987.76045  20357144.46145  24682790.2864   24682810.7864
     -4505.2034
  -7684178.20246  -1486168.44446  22985439.9744   22985449.1534
      1082.7504
  -8655437.51747  -6614043.87246  22184684.7084   22184692.3414
     -1928.5784
 01 10  2  0 12  0.0010000  0  9G13G 3G10G28G 8G27G 1G 2G31
  -2094778.69448  -1278033.22046  21917081.0674   21917087.3844
     -3526.9374
   6859917.87544   9339979.20045  24798087.1464   24798098.2944
     -3665.7344
  -1671213.53645   1268523.64945  24125222.1384   24125233.8604
     -1446.2664
 -13349769.51647 -10125429.61246  21830462.9354   21830469.0754
       915.3284
 -14974797.49948 -11538990.87747  20976514.8804   20976521.0794
       468.8594
 -11485740.09248  -8834060.03547  20982961.5284   20982967.5634
      -718.0164
  19230584.56544  20409817.24045  24695652.4354   24695668.3994
     -4507.1094
  -7700385.91846  -1498797.78246  22982355.4194   22982364.5054
      1078.8914
  -8626429.31647  -6591440.09546  22190205.1064   22190212.8564
     -1938.5624
 01 10  2  0 12 15.0010000  0  9G13G 3G10G28G 8G27G 1G 2G31
  -2041810.39947  -1236759.27446  21927160.1064   21927166.6344
     -3534.8284
   6914961.50243   9382870.34745  24808561.0134   24808571.6924
     -3672.7504
  -1649440.12545   1285489.93845  24129364.5604   24129375.5674
     -1456.1724
 -13363441.43647 -10136083.02546  21827861.0914   21827867.2314
       908.2814
 -14981786.99848 -11544437.22347  20975184.6144   20975190.7904
       463.7664
 -11474923.19748  -8825631.28547  20985019.8564   20985025.9854
      -723.5624
  19298221.60945  20462521.24045  24708524.2244   24708538.8534
     -4510.4844
  -7716524.17946  -1511373.00846  22979284.0214   22979292.8254
      1073.5474
  -8597259.36947  -6568710.26746  22195755.2084   22195762.8064
     -1950.0784
 01 10  2  0 12 30.0010000  0  9G13G 3G10G28G 8G27G 1G 2G31
  -1988737.88747  -1195404.11646  21937259.8724   21937266.0954
     -3541.5004
   6970096.61043   9425832.78745  24819054.4974   24819067.6144
     -3678.5784
  -1627532.24045   1302560.93445  24133534.1924   24133544.2164
     -1464.8594
 -13377021.67747 -10146664.99646  21825277.0284   21825283.1694
       902.4384
 -14988714.12948 -11549834.96647  20973866.4894   20973872.7124
       459.8594
 -11464037.21148  -8817148.69947  20987091.3494   20987097.3254
      -727.8914
  19365895.52645  20515254.01145  24721402.7084   24721417.5364
     -4512.6564
  -7732595.97346  -1523896.43746  22976226.1774   22976235.5094
      1069.3754
  -8567930.91647  -6545856.92946  22201337.2004   22201344.1184
     -1960.3754
 01 10  2  0 12 45.0010000  0  9G13G 3G10G28G 8G27G 1G 2G31
  -1935564.32548  -1153970.23346  21947378.6464   21947385.0674
     -3548.3914
   7025319.64943   9468863.77245  24829561.6534   24829572.8024
     -3684.5784
  -1605493.02945   1319734.35945  24137729.3804   24137739.2164
     -1473.7814
 -13390513.35047 -10157177.95446  21822709.7004   21822715.7594
       896.3754
 -14995581.70848 -11555186.31247  20972559.7314   20972565.8134
       455.7194
 -11453085.04848  -8808614.55047  20989175.6384   20989181.7314
      -732.4694
  19433603.04445  20568012.92045  24734287.6534   24734305.8684
     -4515.0624
  -7748604.31846  -1536370.42046  22973179.8804   22973188.9894
      1065.0004
  -8538447.08147  -6522882.51046  22206947.2944   22206954.5994
     -1970.8914
 01 10  2  0 13  0.0010000  0  9G13G 3G10G28G 8G27G 1G 2G31
  -1882280.23448  -1112450.21446  21957518.1694   21957524.5444
     -3555.6564
   7080640.14944   9511970.58845  24840089.2944   24840101.3564
     -3690.9694
  -1583312.87745   1337017.55045  24141948.9894   24141960.2554
     -1483.0624
 -13403906.64147 -10167614.25646  21820160.9274   21820166.8804
       889.9064
 -15002379.91948 -11560483.60947  20971266.0054   20971272.2284
       451.2034
 -11442056.84148  -8800021.14447  20991273.9814   20991279.9704
      -737.4534
  19501353.58445  20620805.37445  24747179.6694   24747195.6464
     -4517.8594
  -7764539.49846  -1548787.40246  22970147.2944   22970156.6264
      1060.2034
  -8508798.16247  -6499779.47846  22212588.9274   22212597.4154
     -1981.7974
 01 10  2  0 13 15.0010000  0  9G13G 3G10G28G 8G27G 1G 2G31
  -1828891.74348  -1070848.83846  21967678.0444   21967684.4074
     -3562.6564
   7136051.83045   9555148.55745  24850634.2394   24850645.8334
     -3697.0944
  -1560997.72545   1354405.93045  24146194.5364   24146206.0244
     -1492.1254
 -13417207.42747 -10177978.46546  21817629.8024   21817636.0134
       883.6884
 -15009114.52248 -11565731.32847  20969984.2634   20969990.5564
       446.8914
 -11430958.35148  -8791372.96747  20993386.0444   20993392.2084
      -742.1874
  19569141.20344  20673626.71745  24760079.4894   24760098.1384
     -4520.3284
  -7780407.34846  -1561151.90446  22967127.7474   22967137.2084
      1055.6564
  -8478990.20347  -6476552.50346  22218261.2004   22218269.5604
     -1992.4374
 01 10  2  0 13 30.0010000  0  9G13G 3G10G28G 8G27G 1G 2G31
  -1775396.50747  -1029164.29046  21977857.5364   21977864.1104
     -3570.4064
   7191556.94145   9598399.25945  24861195.2944   24861206.6304
     -3703.9534
  -1538545.38545   1371901.24145  24150467.9894   24150479.2674
     -1501.8914
 -13430413.09747 -10188268.56946  21815116.6304   21815122.6424
       876.7034
 -15015782.80748 -11570927.38347  20968715.2084   20968721.5364
       441.8444
 -11419786.97948  -8782667.99847  20995512.0444   20995518.1034
      -747.6874
  19636967.86544  20726478.58345  24772985.7394   24773002.9934
     -4523.5784
  -7796205.36146  -1573461.99346  22964121.5054   22964131.0954
      1050.3754
  -8449020.80647  -6453199.73746  22223964.4814   22223972.2904
     -2003.8284
 01 10  2  0 13 45.0010000  0  9G13G 3G10G28G 8G27G 1G 2G31
  -1721792.58147   -987395.05346  21988058.1854   21988064.8534
     -3577.4374
   7247157.47645   9641724.34745  24871777.0364   24871787.5874
     -3710.1094
  -1515953.82645   1389504.99845  24154767.7394   24154777.8454
     -1510.9844
 -13443521.42147 -10198482.81246  21812622.1534   21812628.1064
       870.4064
 -15022382.58448 -11576070.05347  20967459.7314   20967466.0014
       437.4694
 -11408540.37248  -8773904.41247  20997652.0444   20997658.1614
      -752.5164
  19704835.68945  20779362.40345  24785902.0444   24785920.0244
     -4526.0944
  -7811931.35046  -1585715.97246  22961128.4584   22961137.4624
      1045.7664
  -8418887.94047  -6429719.59146  22229697.9354   22229706.0014
     -2014.5474
 01 10  2  0 14  0.0010000  0  9G13G 3G10G28G 8G27G 1G 2G31
  -1668083.71447   -945544.04646  21998278.7864   21998285.3254
     -3583.5004
   7302849.62245   9685120.86645  24882374.8104   24882388.4784
     -3715.2664
  -1493226.67945   1407214.43645  24159092.6924   24159104.7204
     -1519.0944
 -13456535.94147 -10208623.97146  21810145.9274   21810152.0444
       865.0784
 -15028917.12048 -11581161.88847  20966216.0214   20966222.3964
       434.0474
 -11397221.89248  -8765084.81547  20999806.0134   20999811.9544
      -756.3754
  19772740.85845  20832275.37945  24798823.6854   24798840.0484
     -4527.6724
  -7827588.82446  -1597916.54846  22958149.4584   22958158.9784
      1042.1254
  -8388595.28047  -6406114.93546  22235463.2244   22235470.9744
     -2024.2504
 01 10  2  0 14 15.0010000  0  9G13G 3G10G28G 8G27G 1G 2G31
  -1614274.10047   -903614.53346  22008518.4504   22008525.2244
     -3590.7974
   7358628.93644   9728585.30745  24892989.0134   24893000.4194
     -3721.6564
  -1470368.17245   1425026.24445  24163441.9664   24163453.2314
     -1528.4224
 -13469460.72747 -10218695.19846  21807686.5914   21807692.5914
       858.5164
 -15035390.54048 -11586206.09547  20964984.1384   20964990.4664
       429.3754
 -11385835.46448  -8756212.27947  21001972.6464   21001978.7044
      -761.5004
  19840678.96443  20885213.98645  24811751.0284   24811768.4234
     -4530.3914
  -7843181.74046  -1610066.81946  22955181.8024   22955190.9704
      1037.2504
  -8358147.05347  -6382389.05246  22241257.2714   22241265.0214
     -2035.2034
 01 10  2  0 14 30.0010000  0  9G13G 3G10G28G 8G27G 1G 2G31
  -1560365.42647   -861607.82346  22018776.7394   22018783.2674
     -3597.6254
   7414493.82243   9772116.39845  24903619.0754   24903627.6924
     -3727.5784
  -1447379.87245   1442939.11245  24167815.4744   24167829.9624
     -1537.2974
 -13482297.04747 -10228697.49946  21805243.6144   21805249.6384
       852.3914
 -15041803.96848 -11591203.55647  20963763.7244   20963770.0284
       425.1564
 -11374382.33748  -8747287.76147  21004152.1854   21004158.1614
      -766.1724
  19908648.71844  20938177.26145  24824686.5214   24824702.3104
     -4532.7974
  -7858711.47946  -1622167.86546  22952226.4974   22952235.9584
      1032.8134
  -8327544.66647  -6358543.03846  22247079.9354   22247087.1694
     -2045.7034
 01 10  2  0 14 45.0010000  0  9G13G 3G10G28G 8G27G 1G 2G31
  -1506344.43048   -819513.59946  22029056.9114   22029063.4274
     -3605.0004
   7470457.19843   9815724.17145  24914267.9744   24914281.4544
     -3734.0474
  -1424248.53845   1460963.48645  24172218.3174   24172230.2514
     -1546.7194
 -13495031.48447 -10238620.40046  21802820.2554   21802826.3134
       845.7034
 -15048143.82148 -11596143.69147  20962557.3414   20962563.6694
       420.3444
 -11362848.98948  -8738300.73847  21006346.8024   21006352.9074
      -771.4374
  19976663.01543  20991175.17845  24837627.8804   24837645.4384
     -4535.6254
  -7874164.67647  -1634209.27446  22949286.3174   22949295.3334
      1027.7814
  -8296774.84647  -6334566.57146  22252935.8724   22252943.4584
     -2056.7664
 01 10  2  0 15  0.0010000  0  9G13G 3G10G28G 8G27G 1G 2G31
  -1452219.43347   -777338.33046  22039356.2244   22039362.7514
     -3611.2974
   7526510.83143   9859402.36745  24924934.4354   24924945.1854
     -3739.4224
  -1400982.41445   1479092.93745  24176646.9584   24176656.5134
     -1555.0474
 -13507672.10647 -10248470.19146  21800414.7784   21800420.7904
       840.0784
 -15054418.01148 -11601032.65547  20961363.5604   20961369.8064
       416.6094
 -11351243.33548  -8729257.37047  21008555.2944   21008561.3884
      -775.6094
  20044713.65844  21044201.55045  24850578.9114   24850594.7594
     -4537.3754
  -7889549.37246  -1646197.29146  22946358.2944   22946367.3564
      1023.8594
  -8265845.85847  -6310466.05946  22258821.0444   22258829.1104
     -2066.7344
 01 10  2  0 15 15.0010000  0  9G13G 3G10G28G 8G27G 1G 2G31
  -1397994.55047   -735085.22746  22049674.9894   22049681.4584
     -3619.1564
   7582650.51944   9903147.59445  24935619.2004   24935630.7244
     -3746.3444
  -1377585.44145   1497324.32645  24181097.7944   24181109.2244
     -1564.9844
 -13520222.79847 -10258249.92646  21798026.5914   21798032.7554
       832.8754
 -15060630.50448 -11605873.54747  20960181.1924   20960187.5094
       411.2664
 -11339569.25248  -8720160.68647  21010776.8254   21010782.9074
      -781.4064
  20112796.34044  21097252.87745  24863534.4274   24863551.0714
     -4540.7504
  -7904869.47146  -1658134.98746  22943442.6854   22943452.0174
      1018.3444
  -8234761.82247  -6286244.74946  22264736.0994   22264744.3064
     -2078.2814
 01 10  2  0 15 30.0010000  0  9G13G 3G10G28G 8G27G 1G 2G31
  -1343659.46048   -692746.25546  22060014.9274   22060021.2904
     -3625.5004
   7638886.54544   9946967.83845  24946319.7394   24946331.7204
     -3751.7664
  -1354047.35545   1515665.63445  24185577.6464   24185589.8024
     -1573.4374
 -13532672.95648 -10267951.30646  21795657.5914   21795663.6034
       827.1564
 -15066770.53448 -11610657.97047  20959012.5834   20959018.8534
       407.4064
 -11327815.97248  -8711002.28547  21013013.3804   21013019.4034
      -785.6874
  20180921.60343  21150337.28245  24876496.7554   24876509.7084
     -4542.5944
  -7920114.38247  -1670014.08546  22940542.0674   22940551.0714
      1014.3134
  -8203512.30647  -6261894.48146  22270682.7244   22270690.9314
     -2088.3284
 01 10  2  0 15 45.0010000  0  9G13G 3G10G28G 8G27G 1G 2G31
  -1289224.79147   -650329.67946  22070373.3884   22070380.1494
     -3632.2344
   7695208.34244   9990854.98645  24957037.3644   24957050.6924
     -3757.5624
  -1330378.71445   1534108.66845  24190081.6924   24190094.1184
     -1582.1724
 -13545032.85048 -10277582.36546  21793305.6304   21793311.6774
       821.0474
 -15072848.19348 -11615393.79747  20957856.2554   20957862.7714
       403.1724
 -11315993.70348  -8701790.12447  21015263.1924   21015269.2634
      -790.3914
  20249078.70144  21203446.58845  24889468.7004   24889486.4234
     -4544.8124
  -7935294.42047  -1681842.63746  22937653.9894   22937663.4034
      1009.9064
  -8172107.72647  -6237423.40246  22276659.2944   22276667.2784
     -2098.7344
 01 10  2  0 16  0.0010000  0  9G13G 3G10G28G 8G27G 1G 2G31
  -1234687.58047   -607833.21046  22080751.6854   22080758.3644
     -3639.0164
   7751618.54443  10034810.97945  24967771.3724   24967782.6854
     -3763.4064
  -1306576.60645   1552655.74445  24194610.8494   24194621.6924
     -1591.0624
 -13557299.36448 -10287140.65446  21790970.9194   21790976.8494
       814.8594
 -15078860.40448 -11620078.62747  20956712.1304   20956718.6694
       398.8284
 -11304099.24648  -8692521.71147  21017526.6224   21017532.7164
      -795.1564
  20317270.48545  21256582.83745  24902445.2714   24902463.6144
     -4547.0474
  -7950406.50346  -1693618.23946  22934777.2634   22934786.1854
      1005.4224
  -8140545.16046  -6212829.19746  22282664.4974   22282672.4934
     -2109.2194
 01 10  2  0 16 15.0010000  0  9G13G 3G10G28G 8G27G 1G 2G31
  -1180044.22247   -565254.02346  22091149.8884   22091156.3804
     -3646.6724
   7808120.87043  10078838.79545  24978523.3964   24978534.7084
     -3770.1254
  -1282637.13645   1571309.80645  24199166.8564   24199176.3994
     -1600.7664
 -13569468.50747 -10296623.07446  21788655.4424   21788661.3724
       807.7974
 -15084803.04148 -11624709.24347  20955581.2244   20955587.5174
       393.6254
 -11292128.56248  -8683193.90847  21019804.4894   21019810.6184
      -800.8284
  20385500.60944  21309749.07145  24915427.8644   24915443.8764
     -4550.1724
  -7965446.66746  -1705337.79046  22931915.2004   22931924.2284
      1000.0314
  -8108820.86746  -6188108.98746  22288701.8884   22288709.8724
     -2120.5784
 01 10  2  0 16 30.0010000  0  9G13G 3G10G28G 8G27G 1G 2G31
  -1125297.00848   -522593.91246  22101568.1924   22101574.8254
     -3653.1874
   7864712.83943  10122936.44745  24989292.9424   24989306.7984
     -3775.7034
  -1258562.71245   1590069.06045  24203748.6064   24203758.6654
     -1609.3754
 -13581542.57648 -10306031.41646  21786357.7164   21786363.7394
       801.8444
 -15090678.24748 -11629287.30947  20954463.1464   20954469.4854
       389.5004
 -11280083.63348  -8673808.24647  21022096.6534   21022102.8764
      -805.4064
  20453766.65043  21362943.25245  24928419.4664   24928436.4504
     -4552.2034
  -7980417.12346  -1717003.03446  22929066.2164   22929075.0564
       995.7814
  -8076937.10147  -6163264.50546  22294769.1854   22294777.4274
     -2130.8124
 01 10  2  0 16 45.0010000  0  9G13G 3G10G28G 8G27G 1G 2G31
  -1070456.19747   -479860.86746  22112003.5834   22112009.9234
     -3659.7344
   7921384.16344  10167095.97545  25000077.2084   25000088.2744
     -3781.2664
  -1234363.53545   1608925.57345  24208352.9974   24208363.2314
     -1618.0164
 -13593531.30747 -10315373.26246  21784076.2314   21784082.2554
       795.8594
 -15096495.72048 -11633820.39447  20953356.0364   20953362.2714
       385.3444
 -11267974.30148  -8664372.40847  21024400.9744   21024407.0324
      -809.9844
  20522058.50843  21416157.49945  24941415.0444   24941431.7824
     -4554.1874
  -7995327.72647  -1728621.63646  22926229.0834   22926237.8534
       991.5004
  -8044903.98547  -6138303.63346  22300865.2634   22300873.4234
     -2141.0784
 01 10  2  0 17  0.0010000  0  9G13G 3G10G28G 8G27G 1G 2G31
  -1015509.20747   -437045.08046  22122459.8494   22122466.0014
     -3666.7194
   7978147.39244  10211327.05945  25010879.4354   25010891.4624
     -3787.3444
  -1210026.88945   1627889.12045  24212983.2864   24212995.2434
     -1627.0784
 -13605421.95047 -10324638.67546  21781813.4894   21781819.4424
       789.3914
 -15102242.49348 -11638298.38747  20952262.5754   20952268.8564
       380.7194
 -11255787.64348  -8654876.30747  21026720.0364   21026726.0244
      -815.0784
  20590388.66144  21469401.54745  24954418.2554   24954437.0214
     -4556.6564
  -8010165.71447  -1740183.65546  22923405.5674   22923414.7474
       986.7194
  -8012708.85946  -6113216.54146  22306991.2944   22307000.0174
     -2151.7974
 01 10  2  0 17 15.0010000  0  9G13G 3G10G28G 8G27G 1G 2G31
   -960453.94047   -394144.93046  22132937.0994   22132943.7434
     -3674.1414
   8035004.53043  10255631.29745  25021698.8884   25021711.2084
     -3793.7664
  -1185550.72345   1646961.41245  24217642.1854   24217653.5914
     -1636.5784
 -13617212.15648 -10333825.81146  21779569.8254   21779575.7784
       782.4844
 -15107916.14948 -11642719.40647  20951182.6694   20951189.0214
       375.6254
 -11243521.17048  -8645318.01747  21029054.1694   21029060.1814
      -820.6094
  20658759.20043  21522677.17145  24967428.6854   24967447.8724
     -4559.5784
  -8024928.74946  -1751687.26546  22920595.7554   22920604.7474
       981.5164
  -7980349.46647  -6088001.45446  22313149.5994   22313157.4314
     -2162.9534
 01 10  2  0 17 30.0010000  0  9G13G 3G10G28G 8G27G 1G 2G31
   -905294.59947   -351163.68546  22143433.4894   22143440.1104
     -3680.6564
   8091951.30743  10300005.41645  25032534.7244   25032547.2314
     -3799.3124
  -1160939.20745   1666139.17045  24222325.5524   24222336.3724
     -1645.1724
 -13628905.94048 -10342937.82446  21777344.5914   21777350.5094
       776.4694
 -15113520.58348 -11647086.49047  20950116.5524   20950122.8214
       371.4224
 -11231178.77348  -8635700.56347  21031402.9744   21031409.0564
      -825.2664
  20727165.89743  21575980.93445  24980445.8804   24980460.2514
     -4561.5314
  -8039620.85747  -1763135.61546  22917800.4194   22917809.1534
       977.2194
  -7947830.01447  -6062661.62946  22319337.6534   22319345.3454
     -2173.1874
 01 10  2  0 17 45.0010000  0  9G13G 3G10G28G 8G27G 1G 2G31
   -850034.23847   -308103.72146  22153949.2244   22153955.5404
     -3687.4374
   8148984.45542  10344446.79645  25043387.3724   25043399.6464
     -3805.1414
  -1136195.32145   1685420.07345  24227032.2314   24227043.8024
     -1654.0624
 -13640506.07948 -10351976.85746  21775137.2634   21775143.1814
       770.1564
 -15119058.65048 -11651401.85647  20949062.3414   20949068.5754
       366.9224
 -11218763.19648  -8626026.09047  21033765.5054   21033771.6224
      -830.2034
  20795605.60243  21629310.43945  24993469.0214   24993489.2044
     -4563.7974
  -8054244.88447  -1774530.90746  22915017.5604   22915026.1654
       972.6094
  -7915153.63746  -6037199.52446  22325555.4664   22325563.4624
     -2183.7194
 01 10  2  0 18  0.0010000  0  9G13G 3G10G28G 8G27G 1G 2G31
   -794680.09447   -264970.66746  22164482.9814   22164489.4974
     -3693.5314
   8206096.90542  10388950.03545  25054256.0364   25054267.8884
     -3810.2194
  -1111326.11145   1704798.65845  24231766.0674   24231776.7474
     -1662.2504
 -13652019.46048 -10360948.29646  21772946.2554   21772952.3844
       764.5314
 -15124536.97548 -11655670.66747  20948020.0754   20948026.1464
       363.0784
 -11206281.19948  -8616299.85047  21036140.8564   21036146.8454
      -834.4844
  20864071.22844  21682660.04745  25006498.7004   25006509.9424
     -4565.3594
  -8068807.64147  -1785878.45946  22912246.0214   22912254.4854
       968.6724
  -7882327.18146  -6011620.48146  22331802.3254   22331810.6854
     -2193.5624
 01 10  2  0 18 15.0010000  0  9G13G 3G10G28G 8G27G 1G 2G31
   -739223.29447   -221757.63746  22175036.0914   22175042.4194
     -3700.8754
   8263297.41641  10433521.80745  25065140.3724   25065153.7714
     -3816.6254
  -1086322.67845   1724281.78945  24236524.5444   24236534.6614
     -1671.7034
 -13663436.94348 -10369845.01946  21770773.7004   21770779.8644
       757.6254
 -15129946.31948 -11659885.73047  20946990.6304   20946996.8534
       358.0004
 -11193723.56948  -8606514.68547  21038530.4814   21038536.5994
      -840.0314
  20932571.60644  21736036.85645  25019533.7634   25019552.8454
     -4568.1874
  -8083300.08847  -1797171.22546  22909488.1694   22909497.1494
       963.4844
  -7849341.73947  -5985917.55046  22338079.9354   22338087.2284
     -2204.6564
 01 10  2  0 18 30.0010000  0  9G13G 3G10G28G 8G27G 1G 2G31
   -683659.92447   -178461.55546  22185609.1534   22185615.9274
     -3707.6414
   8320589.82041  10478165.23045  25076041.4894   25076051.6424
     -3822.4224
  -1061181.27545   1743872.45545  24241308.3414   24241319.4664
     -1680.5474
 -13674754.38948 -10378663.76946  21768619.9814   21768626.0754
       751.2974
 -15135282.56748 -11664043.83647  20945975.4354   20945981.7164
       353.4384
 -11181086.10248  -8596667.30547  21040935.2474   21040941.3064
      -845.0314
  21001110.58243  21789443.64445  25032576.9354   25032595.2434
     -4570.4374
  -8097718.12647  -1808406.00746  22906744.5674   22906753.5604
       958.8594
  -7816193.41246  -5960087.68346  22344387.2164   22344395.1304
     -2215.1874
 01 10  2  0 18 45.0010000  0  9G13G 3G10G28G 8G27G 1G 2G31
   -627998.97847   -135089.45146  22196201.6144   22196208.1884
     -3714.0474
   8377964.91043  10522873.10845  25086962.2004   25086971.2164
     -3827.8444
  -1035910.77445   1763563.71445  24246116.6854   24246129.8134
     -1689.0784
 -13685980.72948 -10387411.53646  21766483.4664   21766489.4314
       745.3134
 -15140554.33048 -11668151.69447  20944972.1924   20944978.4274
       349.2034
 -11168377.44048  -8586764.45447  21043353.6384   21043359.6964
      -849.6874
  21069679.10643  21842873.45845  25045624.5524   25045644.1614
     -4572.2814
  -8112070.50647  -1819589.63546  22904013.4424   22904022.0364
       954.5634
  -7782891.20846  -5934137.93646  22350724.5604   22350732.6854
     -2225.3594
 01 10  2  0 19  0.0010000  0  9G13G 3G10G28G 8G27G 1G 2G31
   -572235.33647    -91637.31346  22206812.5444   22206819.4744
     -3721.2344
   8435427.80143  10567649.38045  25097897.0914   25097908.1694
     -3834.0164
  -1010505.97245   1783359.57945  24250951.2314   24250964.3964
     -1698.3594
 -13697110.48048 -10396084.04646  21764365.5674   21764371.6144
       738.5314
 -15145755.97648 -11672204.91847  20943982.0054   20943988.2514
       344.2034
 -11155592.09848  -8576801.84947  21045786.5134   21045792.5834
      -855.1564
  21138282.25343  21896330.35345  25058679.4664   25058693.8494
     -4574.9224
  -8126351.86447  -1830717.90546  22901295.9504   22901304.8964
       949.4844
  -7749429.93846  -5908064.22046  22357091.6854   22357100.0564
     -2236.2814
 01 10  2  0 19 15.0010000  0  9G13G 3G10G28G 8G27G 1G 2G31
   -516382.16947    -48115.43246  22217441.1064   22217447.7164
     -3726.2974
   8492965.08243  10612483.69145  25108845.3644   25108857.4154
     -3838.0624
   -984980.35345   1803249.65845  24255809.1224   24255820.5174
     -1705.5474
 -13708156.79648 -10404691.53846  21762263.3494   21762269.3494
       733.8444
 -15150900.69448 -11676213.77547  20943003.0444   20943009.2674
       341.2814
 -11142743.01248  -8566789.57547  21048231.5994   21048237.6814
      -858.5314
  21206906.67445  21949803.78245  25071738.9894   25071753.5484
     -4575.4694
  -8140575.29347  -1841801.05646  22898588.9354   22898597.6344
       946.5004
  -7715822.87046  -5881876.90446  22363487.3254   22363494.5244
     -2245.1254
 01 10  2  0 19 30.0010000  0  9G13G 3G10G28G 8G27G 1G 2G31
   -460424.59747     -4512.17946  22228089.7554   22228096.2944
     -3734.7194
   8550591.91343  10657387.73645  25119811.8724   25119825.7284
     -3845.4844
   -959318.45445   1823245.88945  24260692.1614   24260705.3134
     -1716.0624
 -13719104.07748 -10413221.86246  21760180.3254   21760186.3724
       725.7814
 -15155972.79348 -11680166.05147  20942038.0214   20942044.2904
       334.9694
 -11129814.57148  -8556715.46347  21050691.8024   21050697.8024
      -865.2814
  21275567.50145  22003305.62245  25084804.2164   25084820.2164
     -4579.3284
  -8154725.33247  -1852827.00846  22895896.6304   22895904.9894
       940.1564
  -7682054.67946  -5855564.03646  22369912.5284   22369920.0444
     -2257.3284
 01 10  2  0 19 45.0010000  0  9G13G 3G10G28G 8G27G 1G 2G31
   -404351.60147     39181.00446  22238759.8724   22238766.5634
     -3741.6254
   8608318.98843  10702369.87845  25130796.3494   25130809.3494
     -3851.3754
   -933509.43745   1843356.76645  24265603.9114   24265615.7984
     -1725.0944
 -13729941.26948 -10421666.39646  21758117.9664   21758123.9424
       719.2344
 -15160960.84348 -11684052.82847  20941088.8334   20941095.1614
       330.1724
 -11116795.62148  -8546570.82747  21053169.1464   21053175.2044
      -870.5314
  21344275.68643  22056844.29345  25097878.2314   25097897.0094
     -4581.6724
  -8168790.89747  -1863787.12246  22893219.7714   22893228.2004
       935.3134
  -7648114.40846  -5829117.09346  22376371.8644   22376379.5444
     -2267.9844
 01 10  2  0 20  0.0010000  0  9G13G 3G10G28G 8G27G 1G 2G31
   -348177.43447     82953.02446  22249449.6064   22249456.0524
     -3747.8284
   8666132.09243  10747419.10545  25141798.4274   25141811.0524
     -3856.5624
   -907567.41945   1863571.27945  24270540.1064   24270551.8764
     -1733.3914
 -13740682.32948 -10430036.03346  21756074.1144   21756080.1964
       713.3444
 -15165879.09748 -11687885.22147  20940152.6924   20940159.1494
       326.0314
 -11103700.02848  -8536366.46547  21055661.3104   21055667.3564
      -875.1094
  21413016.91743  22110408.62045  25110960.3174   25110977.1144
     -4583.3444
  -8182785.93047  -1874692.29946  22890556.4424   22890565.1064
       931.1414
  -7614016.28646  -5802547.12346  22382860.4354   22382868.0564
     -2277.9844
 01 10  2  0 20 15.0010000  0  9G13G 3G10G28G 8G27G 1G 2G31
   -291911.35247    126796.66546  22260156.4114   22260163.1264
     -3754.1564
   8724021.82842  10792527.98945  25152813.9664   25152827.8564
     -3861.8754
   -881501.76845   1883882.13045  24275500.1774   24275511.8644
     -1741.8594
 -13751336.30548 -10438337.80146  21754046.5994   21754052.8214
       707.3594
 -15170736.29748 -11691670.03947  20939228.6774   20939235.0174
       321.7664
 -11090536.82048  -8526109.42047  21058166.0134   21058172.0714
      -879.8284
  21481781.78044  22163991.49145  25124046.5134   25124062.7244
     -4585.1254
  -8196719.65347  -1885549.69146  22887905.3414   22887913.9114
       926.8444
  -7579769.66947  -5775861.46846  22389377.9114   22389385.8724
     -2288.0784
 01 10  2  0 20 30.0010000  0  9G13G 3G10G28G 8G27G 1G 2G31
   -235546.97347    170716.90946  22270882.5134   22270889.1104
     -3760.9374
   8781994.56341  10837701.49345  25163845.4194   25163854.6574
     -3867.6564
   -855306.09645   1904294.29645  24280484.7004   24280496.9504
     -1750.7504
 -13761896.62248 -10446566.58546  21752037.0994   21752043.0054
       700.8594
 -15175525.82848 -11695402.12447  20938317.0444   20938323.2904
       317.0004
 -11077299.08748  -8515794.30847  21060685.3494   21060691.4784
      -885.0474
  21550576.75244  22217597.86945  25137137.8644   25137153.7824
     -4587.3594
  -8210585.28547  -1896354.02846  22885266.3104   22885274.5284
       922.0634
  -7545367.99246  -5749054.96046  22395923.0134   22395930.5634
     -2298.6564
 01 10  2  0 20 45.0010000  0  9G13G 3G10G28G 8G27G 1G 2G31
   -179084.76447    214713.38746  22281626.5054   22281633.4934
     -3767.2974
   8840049.94841  10882939.37645  25174893.1534   25174903.0014
     -3873.0004
   -828980.69245   1924807.50945  24285494.7004   24285507.8294
     -1759.2344
 -13772363.32448 -10454722.42646  21750045.5284   21750051.4814
       694.7814
 -15180247.49648 -11699081.33647  20937418.7084   20937425.0244
       312.6254
 -11063986.88448  -8505421.16247  21063218.2864   21063224.2984
      -889.8594
  21619401.47844  22271227.34945  25150234.3644   25150250.3064
     -4589.1874
  -8224383.05147  -1907105.48446  22882640.5054   22882648.9934
       917.6884
  -7510811.53147  -5722127.87346  22402500.4354   22402507.7744
     -2308.8284
 01 10  2  0 21  0.0010000  0  9G13G 3G10G28G 8G27G 1G 2G31
   -122523.06447    258787.37646  22292390.9114   22292398.0284
     -3773.1254
   8898189.52941  10928242.96945  25185956.6854   25185968.8534
     -3877.8124
   -802523.78345   1945423.25445  24290529.5054   24290538.8964
     -1767.2194
 -13782734.48248 -10462803.81746  21748072.0604   21748078.0484
       689.1724
 -15184899.23548 -11702706.05447  20936533.3564   20936539.5214
       308.7344
 -11050598.06148  -8494988.31747  21065766.3964   21065772.4194
      -894.2034
  21688257.70743  22324881.43045  25163336.5834   25163356.1814
     -4590.5164
  -8238110.92147  -1917802.46946  22880028.4584   22880036.9234
       913.8134
  -7476098.38846  -5695078.66346  22409104.8414   22409112.9894
     -2318.4694
 01 10  2  0 21 15.0010000  0  9G13G 3G10G28G 8G27G 1G 2G31
    -65868.41047    302933.80746  22303171.4894   22303178.3334
     -3780.9844
   8956406.63242  10973606.95145  25197036.3964   25197047.4744
     -3884.5944
   -775941.92045   1966136.37445  24295588.3964   24295597.5284
     -1777.1724
 -13793016.47148 -10470815.72646  21746115.2004   21746121.1534
       681.5944
 -15189487.36648 -11706281.20947  20935660.3564   20935666.5324
       302.8444
 -11037138.92548  -8484500.67947  21068327.4034   21068333.3684
      -900.5314
  21757138.69543  22378554.72145  25176444.6854   25176462.1384
     -4593.7974
  -8251775.25547  -1928449.94646  22877428.0994   22877436.5634
       907.9384
  -7441235.29046  -5667912.64046  22415739.4114   22415747.7124
     -2330.1094
 01 10  2  0 21 30.0010000  0  9G13G 3G10G28G 8G27G 1G 2G31
     -9110.05447    347161.03846  22313972.0364   22313978.9074
     -3787.0474
   9014711.79643  11019039.54245  25208130.4974   25208142.2314
     -3889.6564
   -749224.42645   1986955.15545  24300672.0834   24300683.6534
     -1785.4064
 -13803198.35148 -10478749.63446  21744177.6924   21744183.6104
       675.7504
 -15194000.78748 -11709798.14247  20934801.4194   20934807.6064
       298.7034
 -11023598.41248  -8473949.62947  21070904.0054   21070910.1104
      -905.1254
  21826055.17843  22432255.66645  25189559.5674   25189577.2204
     -4595.3284
  -8265365.25747  -1939039.50946  22874841.9194   22874850.2084
       903.8284
  -7406211.54546  -5640621.41546  22422404.2084   22422412.2634
     -2339.9844
 01 10  2  0 21 45.0010000  0  9G13G 3G10G28G 8G27G 1G 2G31
     47747.81447    391465.80746  22324791.9194   22324798.8844
     -3793.3754
   9073100.80043  11064537.42445  25219241.8104   25219254.7864
     -3894.9534
   -722375.28845   2007876.48845  24305781.0994   24305793.5364
     -1793.8444
 -13813284.01448 -10486608.56646  21742258.3804   21742264.2514
       669.6414
 -15198443.27548 -11713259.80847  20933955.8724   20933962.0244
       294.2664
 -11009980.28448  -8463338.10347  21073495.4114   21073501.5174
      -910.0004
  21895002.90744  22485981.00645  25202680.8414   25202698.1184
     -4597.0944
  -8278884.82947  -1949574.19046  22872269.7864   22872278.3684
       899.4224
  -7371031.20046  -5613208.18146  22429098.7164   22429106.4314
     -2350.1094
 01 10  2  0 22  0.0010000  0  9G13G 3G10G28G 8G27G 1G 2G31
    104702.15947    435845.76146  22335630.0524   22335637.2044
     -3800.8914
   9131570.62444  11110098.33845  25230367.2474   25230380.4234
     -3901.3914
   -695397.65045   2028897.95345  24310915.6384   24310927.1964
     -1803.5314
 -13823276.26848 -10494394.71546  21740356.6614   21740362.6614
       662.3284
 -15202817.62848 -11716668.37647  20933123.4744   20933129.6854
       288.6414
 -10996287.23148  -8452668.19147  21076101.3104   21076107.3454
      -916.0944
  21963978.88843  22539728.47245  25215805.2944   25215820.9424
     -4600.0474
  -8292336.69147  -1960056.10446  22869709.1614   22869717.9074
       893.8134
  -7335697.26846  -5585675.25846  22435823.0604   22435830.6464
     -2361.4374
 01 10  2  0 22 15.0010000  0  9G13G 3G10G28G 8G27G 1G 2G31
    161755.95747    480303.19946  22346487.1534   22346494.0244
     -3806.5784
   9190124.09045  11155724.44145  25241510.0134   25241522.2044
     -3906.0314
   -668288.49945   2050021.95045  24316074.3804   24316084.7674
     -1811.3284
 -13833171.84148 -10502105.52646  21738473.5994   21738479.5524
       656.7974
 -15207120.25348 -11720021.05847  20932304.7474   20932310.9464
       284.7974
 -10982515.92348  -8441937.30047  21078721.9584   21078727.9464
      -920.3754
  22032986.11443  22593500.07645  25228936.9504   25228953.4424
     -4601.1874
  -8305717.64547  -1970482.76946  22867162.8884   22867171.9854
       890.0314
  -7300206.71346  -5558020.28946  22442575.9664   22442584.6424
     -2370.9534
 01 10  2  0 22 30.0010000  0  9G13G 3G10G28G 8G27G 1G 2G31
    218902.21547    524832.69946  22357361.0834   22357367.8104
     -3812.4534
   9248754.26245  11201410.31545  25252667.3564   25252679.2674
     -3910.8754
   -641054.82645   2071242.93045  24321256.2394   24321268.1734
     -1819.3444
 -13842977.37748 -10509746.16946  21736607.8024   21736613.7904
       651.0784
 -15211358.05148 -11723323.22347  20931498.2084   20931504.3604
       280.7034
 -10968672.94548  -8431150.56947  21081356.0754   21081362.0874
      -924.8914
  22102017.54243  22647290.69545  25242073.8564   25242091.6614
     -4602.5474
  -8319034.42347  -1980859.42846  22864629.1064   22864637.8534
       886.0164
  -7264566.40146  -5530248.64846  22449358.8804   22449366.7244
     -2380.6414
 01 10  2  0 22 45.0010000  0  9G13G 3G10G28G 8G27G 1G 2G31
    276142.58747    569435.53046  22368254.1924   22368261.2984
     -3819.3594
   9307462.60045  11247157.06845  25263839.3724   25263850.8494
     -3916.6874
   -613694.88745   2092562.31745  24326462.5674   24326474.9934
     -1828.4064
 -13852691.08248 -10517315.26146  21734759.4354   21734765.4814
       644.3134
 -15215528.74448 -11726573.09247  20930704.5134   20930710.6654
       275.5944
 -10954756.26748  -8420306.40247  21084004.3724   21084010.3964
      -930.4374
  22171074.78443  22701101.36745  25255215.2554   25255234.1614
     -4604.8754
  -8332285.17047  -1991184.63446  22862107.1924   22862116.0564
       880.9844
  -7228774.60546  -5502358.94546  22456169.3884   22456176.7394
     -2391.3754
 01 10  2  0 23  0.0010000  0  9G13G 3G10G28G 8G27G 1G 2G31
    333473.00547    614108.51946  22379164.2554   22379171.2084
     -3825.6564
   9366245.07445  11292961.61845  25275024.8884   25275036.4464
     -3921.9224
   -586212.67645   2113976.95945  24331692.5444   24331704.2434
     -1836.8754
 -13862316.78448 -10524815.77746  21732927.6614   21732933.7434
       638.1414
 -15219636.11148 -11729773.62147  20929922.9194   20929929.2244
       271.0784
 -10940769.59548  -8409407.70047  21086665.8724   21086671.8374
      -935.4224
  22240153.76644  22754929.00445  25268360.8334   25268379.8924
     -4606.6094
  -8345473.61947  -2001461.30546  22859597.0834   22859605.9234
       876.5164
  -7192835.20746  -5474354.23446  22463008.5364   22463016.6384
     -2401.5164
 01 10  2  0 23 15.0010000  0  9G13G 3G10G28G 8G27G 1G 2G31
    390903.93147    658859.83346  22390092.7784   22390099.3534
     -3832.0474
   9425112.01245  11338831.92745  25286226.6384   25286240.0714
     -3927.2504
   -558597.62245   2135495.12345  24336946.9114   24336958.1184
     -1845.3914
 -13871843.75848 -10532239.35946  21731114.5754   21731120.4584
       631.8754
 -15223669.30448 -11732916.34847  20929155.4974   20929161.6964
       266.4224
 -10926702.08048  -8398445.99747  21089342.8174   21089348.8174
      -940.5004
  22309264.97244  22808781.74545  25281512.4584   25281528.0714
     -4608.4694
  -8358589.07047  -2011681.08446  22857101.6924   22857110.4504
       871.9534
  -7156737.70346  -5446226.32346  22469878.0834   22469885.8454
     -2411.7344
 01 10  2  0 23 30.0010000  0  9G13G 3G10G28G 8G27G 1G 2G31
    448431.21347    703686.23546  22401039.2474   22401046.4704
     -3838.5474
   9484059.30045  11384764.89345  25297444.1064   25297456.4624
     -3932.6724
   -530853.85545   2157113.65745  24342225.7714   24342238.0094
     -1854.0624
 -13881275.92948 -10539589.07046  21729319.7634   21729325.8454
       625.4694
 -15227632.10748 -11736004.22747  20928401.5524   20928407.7164
       261.6564
 -10912557.49648  -8387424.24547  21092034.4354   21092040.5404
      -945.7344
  22378404.30543  22862656.30045  25294669.3174   25294683.2434
     -4610.4064
  -8371635.49847  -2021847.08346  22854619.1064   22854627.7944
       867.2814
  -7120486.24646  -5417978.43346  22476775.8104   22476783.3604
     -2422.0784
 01 10  2  0 23 45.0010000  0  9G13G 3G10G28G 8G27G 1G 2G31
    506056.83447    748589.24446  22412005.7084   22412012.9194
     -3845.0784
   9543088.98145  11430762.06245  25308677.1064   25308689.0054
     -3938.1414
   -502979.41445   2178833.90045  24347531.7864   24347544.9274
     -1862.7344
 -13890610.83148 -10546862.99346  21727543.2244   21727549.1654
       619.0004
 -15231522.07948 -11739035.35747  20927661.1774   20927667.2244
       256.8134
 -10898333.40348  -8376340.54147  21094741.3254   21094747.4314
      -951.0164
  22447573.82643  22916554.47145  25307831.3644   25307856.1104
     -4612.3754
  -8384610.52347  -2031957.44146  22852150.1464   22852159.0444
       862.5314
  -7084078.69846  -5389608.93846  22483704.1464   22483712.9384
     -2432.4534
 01 10  2  0 24  0.0010000  0  9G13G 3G10G28G 8G27G 1G 2G31
    563781.20947    793569.21646  22422991.0524   22422998.0754
     -3851.1094
   9602201.20245  11476823.59345  25319926.0994   25319938.3844
     -3943.0944
   -474973.97645   2200656.25845  24352860.8804   24352872.4384
     -1870.9374
 -13899848.10348 -10554060.83446  21725785.5914   21725791.5444
       613.0164
 -15235338.57448 -11742009.23347  20926934.8804   20926941.1034
       252.4384
 -10884029.26348  -8365194.46147  21097463.3104   21097469.2514
      -955.8284
  22516773.61743  22970476.37845  25320998.9744   25321019.2984
     -4613.8594
  -8397513.69647  -2042011.81646  22849694.2944   22849703.1574
       858.2664
  -7047514.91446  -5361117.70046  22490661.6694   22490669.5244
     -2442.3444
 01 10  2  0 24 15.0010000  0  9G13G 3G10G28G 8G27G 1G 2G31
    621590.48047    838615.34546  22433990.7314   22433997.4814
     -3856.6254
   9661382.12545  11522938.63045  25331187.8024   25331200.7784
     -3947.5164
   -446851.20845   2222570.03045  24358212.1224   24358226.5994
     -1878.5944
 -13909001.14848 -10561193.04646  21724043.7164   21724049.7394
       607.5634
 -15239094.93948 -11744936.25747  20926220.0444   20926226.3024
       248.5784
 -10869658.31748  -8353996.32547  21100198.0284   21100204.0524
      -960.1254
  22585990.12443  23024411.15745  25334171.9034   25334193.0524
     -4614.8284
  -8410358.40047  -2052020.63646  22847249.8024   22847258.5604
       854.5314
  -7010808.40546  -5332515.24846  22497647.5524   22497655.3134
     -2451.6874
 01 10  2  0 24 30.0010000  0  9G13G 3G10G28G 8G27G 1G 2G31
    679488.74647    883730.81246  22445008.2944   22445014.9504
     -3862.2814
   9720635.76745  11569110.37045  25342462.9194   25342473.7044
     -3952.0944
   -418606.99045   2244578.45645  24363587.4034   24363600.3924
     -1886.4374
 -13918065.61648 -10568256.23446  21722318.8024   21722324.7084
       601.9064
 -15242786.72848 -11747812.96047  20925517.6064   20925523.7354
       244.5314
 -10855216.18348  -8342742.71347  21102946.2634   21102952.2864
      -964.6254
  22655227.35443  23078362.09845  25347347.7004   25347368.1534
     -4615.9374
  -8423140.37747  -2061980.57346  22844817.7314   22844826.2434
       850.5944
  -6973955.24546  -5303798.49246  22504660.1774   22504667.9854
     -2461.2034
 01 10  2  0 24 45.0010000  0  9G13G 3G10G28G 8G27G 1G 2G31
    737485.56847    928923.07346  22456045.3884   22456052.1964
     -3870.2194
   9779971.67044  11615346.17745  25353753.5444   25353766.8134
     -3958.9374
   -390231.74545   2266688.98545  24368986.1614   24368998.2714
     -1896.5164
 -13927031.76448 -10575242.81846  21720612.7244   21720618.6884
       594.0004
 -15246404.02848 -11750631.62147  20924829.3174   20924835.5524
       238.1884
 -10840692.91948  -8331425.88747  21105709.9744   21105715.9744
      -971.3914
  22724494.86943  23132336.53245  25360528.7634   25360546.1924
     -4619.3284
  -8435849.88047  -2071884.03146  22842399.3964   22842407.7674
       844.4064
  -6936945.68946  -5274959.89546  22511702.4744   22511710.7164
     -2472.9844
 01 10  2  0 25  0.0010000  0  9G13G 3G10G28G 8G27G 1G 2G31
    795585.40047    974195.60946  22467101.2084   22467108.1034
     -3876.4224
   9839394.24443  11661649.55044  25365062.0364   25365071.7784
     -3964.0624
   -361720.91145   2288905.17745  24374411.6224   24374423.7784
     -1904.9374
 -13935894.82448 -10582149.06346  21718926.0834   21718932.1184
       587.7504
 -15249941.85048 -11753388.34647  20924155.8174   20924161.9704
       233.5314
 -10826083.55848  -8320041.97047  21108489.9664   21108495.9784
      -976.5004
  22793797.16344  23186338.14245  25373716.7314   25373734.2674
     -4620.9844
  -8448482.11247  -2081727.28446  22839995.1924   22840003.7284
       839.8914
  -6899775.07446  -5245995.79746  22518776.0134   22518784.4424
     -2483.0784
 01 10  2  0 25 15.0010000  0  8G13G 3G10G28G 8G27G 2G31
    853777.78547   1019540.26046  22478174.7084   22478181.6614
     -3882.3284
   9898892.98143  11708012.19245  25376385.0914   25376395.0444
     -3968.8444
   -333084.90345   2311218.91145  24379861.4584   24379874.7514
     -1912.9694
 -13944664.92548 -10588982.87446  21717257.1694   21717263.0524
       581.8444
 -15253410.26948 -11756090.99747  20923496.2474   20923502.3644
       229.1884
 -10811398.18448  -8308598.82647  21111284.4584   21111290.5404
      -981.2974
  -8461047.22747  -2091518.24046  22837604.1614   22837612.7554
       835.7034
  -6862453.78846  -5216914.29746  22525878.4034   22525886.8334
     -2492.8284
 01 10  2  0 25 30.0010000  0  8G13G 3G10G28G 8G27G 2G31
    912061.65047   1064956.20146  22489265.8724   22489273.2124
     -3888.7194
   9958466.62643  11754433.31944  25387720.6384   25387732.2784
     -3974.1414
   -304325.05945   2333629.07945  24385334.8964   24385347.0754
     -1921.5314
 -13953343.15748 -10595745.09746  21715605.7314   21715611.8254
       575.4064
 -15256810.13248 -11758740.22447  20922848.9504   20922855.0674
       224.2974
 -10796637.67748  -8297097.13347  21114093.3174   21114099.3064
      -986.6254
  -8473546.37147  -2101257.79246  22835225.5054   22835233.6534
       831.0004
  -6824983.15546  -5187716.40246  22533008.8414   22533016.5094
     -2503.0944
 01 10  2  0 25 45.0010000  0  8G13G 3G10G28G 8G27G 2G31
    970437.99047   1110444.19546  22500374.4974   22500381.9784
     -3894.6414
  10018116.21143  11800913.48845  25399071.0524   25399078.3564
     -3978.9694
   -275440.23445   2356136.70745  24390831.3964   24390842.3684
     -1929.6414
 -13961928.07448 -10602434.61446  21713971.8494   21713977.8134
       569.4224
 -15260140.00948 -11761334.92047  20922215.3254   20922221.4544
       219.8594
 -10781800.62148  -8285535.79847  21116916.6304   21116922.7004
      -991.5004
  -8485978.15647  -2110944.85346  22832859.7084   22832868.6184
       826.7504
  -6787362.03546  -5158401.25846  22540167.2864   22540175.3414
     -2512.8914
 01 10  2  0 26  0.0010000  0  8G13G 3G10G28G 8G27G 2G31
   1028902.99747   1156001.28546  22511499.8414   22511506.9584
     -3901.1254
  10077837.76343  11847449.90544  25410435.5604   25410443.9074
     -3984.3284
   -246434.08345   2378738.84445  24396349.8254   24396360.5874
     -1938.2974
 -13970423.29448 -10609054.23146  21712355.2784   21712361.2784
       562.8594
 -15263403.46948 -11763877.85647  20921594.2164   20921600.3924
       214.8444
 -10766890.39548  -8273917.44147  21119754.0994   21119760.2164
      -996.9534
  -8498346.13947  -2120582.19546  22830506.6224   22830515.4154
       821.9064
  -6749594.14546  -5128971.75346  22547354.4664   22547362.8024
     -2523.2504
 01 10  2  0 26 15.0010000  0  8G13G 3G10G28G 8G27G 2G31
   1087472.11847   1201639.50746  22522645.1464   22522652.2394
     -3907.7344
  10137646.68842                  25421817.1144
     -3989.8124
   -217291.22745   2401447.46345  24401896.4974   24401909.6144
     -1947.0944
 -13978813.17248 -10615591.76346  21710758.5674   21710764.6264
       556.1414
 -15266584.40548 -11766356.49147  20920988.6924   20920994.9744
       209.6414
 -10751891.19648  -8262229.75547  21122608.2784   21122614.3964
     -1002.5784
  -8510634.65647  -2130157.61746  22828168.0834   22828176.6184
       816.9064
  -6711664.06046  -5099415.84746  22554572.6854   22554579.9544
     -2533.7504
 01 10  2  0 26 30.0010000  0  8G13G 3G10G28G 8G27G 2G31
   1146136.55147   1247351.97346  22533809.0364   22533816.3064
     -3914.2664
  10197534.13842                  25433213.2944
     -3995.2344
   -188020.59845   2424255.71345  24407466.5914   24407478.2204
     -1955.7504
 -13987106.21748 -10622053.84846  21709180.8334   21709186.8454
       549.5164
 -15269691.54148 -11768777.62247  20920397.5284   20920403.6104
       204.5634
 -10736811.59648  -8250479.42347  21125477.8334   21125483.8564
     -1008.1254
  -8522852.28447  -2139677.81246  22825842.3884   22825851.0284
       812.0164
  -6673580.65246  -5069740.47946  22561819.9194   22561827.6814
     -2544.1254
 01 10  2  0 26 45.0010000  0  8G13G 3G10G28G 8G27G 2G31
   1204896.47147   1293138.86946  22544991.4354   22544998.2554
     -3920.5784
  10257500.38342                  25444624.5674
     -4000.4694
   -158621.76745   2447163.82645  24413061.5994   24413072.5244
     -1964.2664
 -13995301.82448 -10628440.01446  21707620.9034   21707626.9504
       543.0474
 -15272723.91948 -11771140.50247  20919820.4424   20919826.6884
       199.5944
 -10721650.78548  -8238665.80747  21128362.9974   21128369.1144
     -1013.5164
  -8534998.39347  -2149142.27046  22823531.2084   22823539.9424
       807.2814
  -6635343.35546  -5039945.19946  22569095.8104   22569103.9704
     -2554.3594
 01 10  2  0 27  0.0010000  0  8G13G 3G10G28G 8G27G 2G31
   1263753.41847   1339001.35846  22556190.7634   22556197.9744
     -3926.6874
  10317547.01241                  25456051.2944
     -4005.4224
   -129093.14445   2470173.10545  24418680.8104   24418691.6064
     -1972.5474
 -14003398.15748 -10634748.81246  21706080.2394   21706086.3214
       536.7974
 -15275679.71948 -11773443.71147  20919258.0834   20919264.2714
       194.8284
 -10706406.71548  -8226787.31647  21131263.6854   21131269.7784
     -1018.7034
  -8547071.12747  -2158549.54146  22821234.5754   22821242.9114
       802.7504
  -6596950.57146  -5010028.74346  22576401.7714   22576410.1064
     -2564.3594
 01 10  2  0 27 15.0010000  0  8G13G 3G10G28G 8G27G 2G31
   1322705.72847   1384938.15946  22567408.8804   22567415.5244
     -3932.9844
  10377672.07841                  25467492.2244
     -4010.6254
    -99436.35445   2493282.22845  24424323.7394   24424336.5874
     -1981.0314
 -14011396.80648 -10640981.48946  21704558.2394   21704564.2514
       530.3444
 -15278560.12548 -11775688.17547  20918709.9034   20918716.0564
       189.8754
 -10691080.80748  -8214845.05347  21134180.2314   21134186.2204
     -1024.1094
  -8559072.05747  -2167900.87546  22818951.1774   22818959.6654
       798.0164
  -6558404.05146  -4979992.50946  22583736.8884   22583745.0014
     -2574.5314
 01 10  2  0 27 30.0010000  0  8G13G 3G10G28G 8G27G 2G31
   1381751.47147   1430947.75646  22578645.0054   22578651.8994
     -3939.0164
  10437873.46441                  25478948.6304
     -4015.4694
    -69653.58645   2516489.50245  24429990.2714   24430003.4234
     -1989.2344
 -14019299.59348 -10647139.47346  21703054.2474   21703060.1534
       524.1414
 -15281367.11648 -11777875.42447  20918175.7784   20918181.8964
       185.1564
 -10675674.82548  -8202840.39747  21137111.7474   21137117.7714
     -1029.2504
  -8571003.03547  -2177197.69646  22816679.8024   22816688.4544
       793.5474
  -6519705.95846  -4949838.16246  22591100.5214   22591108.1774
     -2584.4374
 01 10  2  0 27 45.0010000  0  8G13G 3G10G28G 8G27G 2G31
   1440882.95547   1477024.17546  22589897.4114   22589904.4584
     -3945.2194
      8036.58251                  25490416.4744
     -4020.5474
    -39752.23945   2539789.18845  24435681.1064   24435694.0244
     -1997.6414
 -14027113.76648 -10653228.40946  21701567.0754   21701573.1224
       517.7194
 -15284107.61348 -11780010.86847  20917654.2314   20917660.3604
       180.2194
 -10660195.88148  -8190778.88847  21140057.3964   21140063.4314
     -1034.6254
  -8582871.30547  -2186445.65946  22814421.2784   22814429.4744
       788.8594
  -6480863.64846  -4919571.43846  22598492.5054   22598500.3024
     -2594.5624
 01 10  2  0 28  0.0010000  0  8G13G 3G10G28G 8G27G 2G31
   1500101.33447   1523168.30446  22601166.9194   22601174.0014
     -3951.1564
     68376.65841                  25501898.2004
     -4025.3444
     -9731.20945   2563182.13045  24441394.5214   24441406.5604
     -2005.7664
 -14034837.82648 -10659247.13146  21700097.3724   21700103.4194
       511.5634
 -15286780.04548 -11782093.27247  20917145.7714   20917151.7944
       175.5314
 -10644642.47948  -8178659.35447  21143017.1064   21143023.1304
     -1039.7504
  -8594675.55947  -2195643.73046  22812175.5914   22812184.0794
       784.4534
  -6441876.04447  -4889191.49046  22605912.2784   22605919.7244
     -2604.3754
 01 10  2  0 28 15.0010000  0  7G13G10G28G 8G27G 2G31
   1559412.68247   1569384.86446  22612453.4814   22612460.6344
     -3957.2814
     20415.63845   2586673.11745  24447131.2084   24447143.8924
     -2014.0784
 -14042465.46548 -10665190.70746  21698645.7864   21698651.8214
       505.2034
 -15289378.02148 -11784117.65447  20916651.2474   20916657.5404
       170.6094
 -10629008.10348  -8166476.72947  21145992.1224   21145998.2284
     -1045.0944
  -8606409.31847  -2204786.88446  22809942.5444   22809950.8104
       779.7974
  -6402736.89046  -4858693.45146  22613359.8414   22613368.5524
     -2614.4224
 01 10  2  0 28 30.0010000  0  7G13G10G28G 8G27G 2G31
   1618821.90747   1615677.71146  22623757.9744   22623765.2784
     -3964.1724
     50693.03545   2610265.85245  24452892.7164   24452904.0404
     -2023.1414
 -14049991.67548 -10671055.25946  21697213.6304   21697219.6424
       498.0634
 -15291896.31848 -11786079.95547  20916172.1774   20916178.3764
       164.9224
 -10613287.53848  -8154226.94147  21148983.7084   21148989.6494
     -1051.2194
  -8618067.60847  -2213871.21946  22807723.5914   22807731.8804
       774.4064
  -6363441.44146  -4828073.62946  22620836.8564   22620844.0914
     -2625.2034
 01 10  2  0 28 45.0010000  0  7G13G10G28G 8G27G 2G31
   1678324.38547   1662043.21146  22635080.9894   22635088.0244
     -3969.8754
     81096.59145   2633956.88345  24458678.0054   24458689.2824
     -2031.0474
 -14057420.78748 -10676844.14846  21695799.8724   21695805.9194
       492.0944
 -15294339.11948 -11787983.42647  20915707.3104   20915713.5094
       160.4064
 -10597484.93148  -8141913.22747  21151990.8414   21151996.8994
     -1056.1724
  -8629654.66047  -2222900.04546  22805518.6924   22805527.0874
       770.1724
  -6323994.12646  -4797335.46746  22628343.9504   22628352.2284
     -2634.8284
 01 10  2  0 29  0.0010000  0  7G13G10G28G 8G27G 2G31
   1737914.30947   1708476.84746  22646420.9034   22646428.4424
     -3975.1414
    111620.55845   2657741.69045  24464486.1774   24464497.5364
     -2038.5004
 -14064758.29848 -10682561.65946  21694403.6144   21694409.5444
       486.5634
 -15296711.75648 -11789832.21647  20915255.6924   20915261.8924
       156.2664
 -10581605.71748  -8129539.81347  21155012.5134   21155018.5954
     -1060.7194
  -8641176.06547  -2231877.71746  22803326.7554   22803335.0444
       766.3444
  -6284400.68046  -4766483.43146  22635878.0994   22635885.9664
     -2643.9844
 01 10  2  0 29 15.0010000  0  7G13G10G28G 8G27G 2G31
   1797593.85747   1754980.33546  22657778.1144   22657785.3374
     -3981.4534
    142266.96345   2681621.94045  24470319.1384   24470333.2634
     -2047.0164
 -14072002.00348 -10688206.07546  21693025.0674   21693031.1264
       479.9224
 -15299011.93548 -11791624.55247  20914818.1614   20914824.4074
       151.0784
 -10565647.53948  -8117104.87347  21158049.3494   21158055.3724
     -1066.3594
  -8652629.51347  -2240802.43446  22801147.4274   22801155.5994
       761.4384
  -6244659.13346  -4735515.98546  22643440.9424   22643449.0674
     -2654.2194
 01 10  2  0 29 30.0010000  0  7G13G10G28G 8G27G 2G31
   1857358.91547   1801550.43746  22669151.1464   22669158.7314
     -3987.8284
    173031.84845   2705594.53245  24476172.5914   24476185.9894
     -2055.5944
 -14079155.39848 -10693780.11046  21691663.8724   21691669.8964
       473.2344
 -15301243.05248 -11793363.07647  20914393.4814   20914399.6344
       145.7814
 -10549613.88848  -8104611.11747  21161100.4814   21161106.4354
     -1072.0784
  -8664018.78247  -2249677.14746  22798979.2944   22798987.7474
       756.5004
  -6204773.31246  -4704436.15346  22651031.1464   22651039.9504
     -2664.5164
 01 10  2  0 29 45.0010000  0  7G13G10G28G 8G27G 2G31
   1917221.23747   1848196.33646  22680542.3174   22680550.0324
     -3994.0944
    203926.87245   2729668.50845  24482052.2244   24482064.2744
     -2064.0314
 -14086206.60448 -10699274.52246  21690322.0674   21690327.9384
       466.6414
 -15303393.12448 -11795038.44247  20913984.3334   20913990.4034
       140.5944
 -10533492.66248  -8092049.13047  21164168.1464   21164174.1464
     -1077.7194
  -8675331.88947  -2258492.51846  22796826.2394   22796834.5754
       751.6414
  -6164731.40846  -4673234.65646  22658649.9034   22658657.0564
     -2674.7034
 01 10  2  0 30  0.0010000  0  7G13G10G28G 8G27G 2G31
   1977175.14547   1894913.59746  22691951.8644   22691959.4624
     -3999.5004
    234946.43945   2753839.53545  24487954.3804   24487967.6384
     -2071.6564
 -14093161.05348 -10704693.53746  21688998.6304   21689004.5604
       460.8754
 -15305467.22648 -11796654.61247  20913589.5054   20913595.7284
       136.2194
 -10517289.06248  -8079422.94447  21167251.6064   21167257.6064
     -1082.5164
  -8686574.19047  -2267252.70946  22794687.1464   22794695.4584
       747.5944
  -6124539.00546  -4641915.90946  22666299.2784   22666307.0284
     -2684.0314
 01 10  2  0 30 15.0010000  0  7G13G10G28G 8G27G 2G31
   2037218.64947   1941700.68046  22703377.0054   22703384.5094
     -4005.3444
    266088.47345   2778105.97745  24493881.3804   24493895.3534
     -2079.6874
 -14100020.41748 -10710038.46746  21687693.3494   21687699.3254
       454.6564
 -15307467.02548 -11798212.87847  20913209.0994   20913215.2164
       131.3754
 -10501004.78848  -8066733.89847  21170350.4274   21170356.4744
     -1087.7664
  -8697747.45547  -2275959.09946  22792561.5754   22792569.9114
       743.1094
  -6084198.22946  -4610481.54746  22673975.5444   22673983.3644
     -2693.7974
 01 10  2  0 30 30.0010000  0  7G13G10G28G 8G27G 2G31
   2097348.72547   1988555.21346  22714819.4664   22714827.1344
     -4011.5624
    297350.08445   2802465.61345  24499829.8024   24499844.0674
     -2088.1094
 -14106787.67348 -10715311.62646  21686405.4744   21686411.4624
       448.0784
 -15309395.27648 -11799715.39947  20912842.2944   20912848.4464
       126.1564
 -10484642.61648  -8053984.15147  21173464.0914   21173470.1264
     -1093.4224
  -8708854.54947  -2284613.93246  22790447.7864   22790455.8994
       738.2504
  -6043712.12146  -4578933.93646  22681679.5214   22681687.3294
     -2703.9224
 01 10  2  0 30 45.0010000  0  7G13G10G28G 8G27G 2G31
   2157569.95147   2035480.77546  22726279.1464   22726286.6964
     -4017.7664
    328735.81845   2826921.97545  24505802.8254   24505813.2124
     -2096.5004
 -14113457.97248 -10720509.23346  21685136.2164   21685142.0874
       441.4844
 -15311246.92148 -11801158.22547  20912489.7784   20912495.9194
       120.9224
 -10468197.49148  -8041169.77047  21176593.4584   21176599.4814
     -1099.0784
  -8719890.58847  -2293213.39946  22788346.9584   22788354.8374
       733.3914
  -6003075.97146  -4547269.41246  22689412.1774   22689419.9854
     -2714.0624
 01 10  2  0 31  0.0010000  0  7G13G10G28G 8G27G 2G31
   2217877.29747   2082473.44546  22737755.9274   22737763.2554
     -4023.0944
    360240.55945   2851471.05145  24511798.0754   24511810.0794
     -2104.0314
 -14120036.03648 -10725634.96446  21683884.4974   21683890.4274
       435.7344
 -15313026.64848 -11802545.00947  20912151.2084   20912157.3494
       116.5004
 -10451674.10948  -8028294.40647  21179737.6774   21179743.7474
     -1103.9224
  -8730860.43047  -2301761.28846  22786259.4584   22786267.7354
       729.3754
  -5962294.89646  -4515491.96546  22697173.1384   22697181.9894
     -2723.3124
 01 10  2  0 31 15.0010000  0  7G13G10G28G 8G27G 2G31
   2278275.81647   2129537.16546  22749249.0054   22749256.5444
     -4029.6724
    391869.67245   2876117.08645  24517816.8024   24517830.7044
     -2112.8284
 -14126516.45948 -10730684.62346  21682651.2314   21682657.1964
       428.7034
 -15314728.81748 -11803871.36347  20911827.2004   20911833.3534
       110.8284
 -10435066.79648  -8015353.64247  21182898.0134   21182904.1884
     -1110.0314
  -8741758.54347  -2310253.26846  22784186.1924   22784194.4464
       724.0784
  -5921363.55646  -4483597.42446  22704961.2554   22704969.2044
     -2733.8444
 01 10  2  0 31 30.0010000  0  7G13G10G28G 8G27G 2G31
   2338766.06547   2176672.35646  22760760.1464   22760767.5914
     -4036.1414
    423623.62845   2900860.29645  24523859.4664   24523872.2904
     -2121.5314
 -14132898.36348 -10735657.50046  21681436.8724   21681442.8844
       421.7664
 -15316352.61748 -11805136.64547  20911518.0444   20911524.2204
       105.2194
 -10418374.67648  -8002346.79147  21186074.3414   21186080.3764
     -1116.0474
  -8752584.22447  -2318688.81446  22782126.3024   22782134.6964
       718.8914
  -5880281.36746  -4451585.33546  22712780.1464   22712787.0404
     -2744.2344
 01 10  2  0 31 45.0010000  0  7G13G10G28G 8G27G 2G31
   2399353.70447   2223883.41546  22772289.7084   22772296.9544
     -4042.5164
    455508.13245   2925705.31445  24529927.3964   24529941.3454
     -2130.0474
 -14139175.82248 -10740548.99546  21680242.0524   21680248.0634
       414.9224
 -15317891.81048 -11806336.00047  20911225.1384   20911231.1734
        99.7034
 -10401591.63048  -7989269.09647  21189268.1224   21189274.2044
     -1122.0004
  -8763331.56347  -2327063.31946  22780080.7714   22780089.0484
       713.7814
  -5839042.68546  -4419451.29146  22720627.3884   22720635.5714
     -2754.5474
 01 10  2  0 32  0.0020000  0  7G13G10G28G 8G27G 2G31
   2460032.77447   2271165.74746  22783836.4244   22783843.8574
     -4047.9374
    487515.10945   2950645.73445  24536017.3694   24536030.5214
     -2137.7034
 -14145359.20848 -10745367.18446  21679065.3854   21679071.3614
       409.0164
 -15319356.29148 -11807477.13647  20910946.5184   20910952.5884
        95.0784
 -10384726.27148  -7976127.26047  21192477.4244   21192483.5294
     -1127.0164
  -8774011.11147  -2335384.99346  22778047.9164   22778056.1824
       709.6094
  -5797654.84246  -4387201.04646  22728502.1824   22728510.5064
     -2763.9064
 01 10  2  0 32 15.0020000  0  7G13G10G28G 8G27G 2G31
   2520795.36747   2318513.16446  22795399.3934   22795406.5334
     -4053.7034
    519640.56845   2975678.49745  24542130.7604   24542144.2994
     -2145.6724
 -14151447.11748 -10750110.98946  21677906.9244   21677912.8544
       402.7344
 -15320745.16648 -11808559.36347  20910682.2834   20910688.4004
        90.1094
 -10367780.27648  -7962922.58647  21195702.1354   21195708.2404
     -1132.4224
  -8784620.93547  -2343652.33846  22776029.1354   22776037.3544
       705.0634
  -5756123.17346  -4354838.71946  22736406.7134   22736415.0844
     -2773.6094
 01 10  2  0 32 30.0020000  0  7G13G10G28G 8G27G 2G31
   2581646.96947   2365929.91346  22806978.2684   22806985.9004
     -4059.2974
    551888.20845   3000806.45245  24548267.6114   24548279.6744
     -2153.4694
 -14157438.14148 -10754779.29246  21676767.0414   21676773.0414
       396.6254
 -15322056.62048 -11809581.26047  20910432.5644   20910438.7294
        85.2814
 -10350750.50448  -7949652.63347  21198942.7684   21198948.8384
     -1137.6724
  -8795160.01147  -2351864.55746  22774023.8144   22774032.0574
       700.6884
  -5714443.29646  -4322360.89146  22744336.9864   22744344.8184
     -2783.1564
 01 10  2  0 32 45.0020000  0  7G13G10G28G 8G27G 2G31
   2642584.79847   2413413.87946  22818574.9944   22818583.0024
     -4065.7034
    584255.11545   3026027.35945  24554426.2684   24554438.7524
     -2162.0784
 -14163335.00548 -10759374.21446  21675644.9244   21675650.8774
       389.6884
 -15323293.19348 -11810544.80847  20910197.2754   20910203.3694
        79.6254
 -10333639.51048  -7936319.39247  21202199.1274   21202205.1744
     -1143.7504
  -8805630.95647  -2360023.68746  22772031.1354   22772039.2134
       695.4844
  -5672618.05846  -4289769.81446  22752296.9164   22752304.1744
     -2793.4844
 01 10  2  0 33  0.0020000  0  7G13G10G28G 8G27G 2G31
   2703615.21847   2460969.96846  22830188.7914   22830196.4244
     -4071.3754
    616747.66145   3051346.17745  24560609.3464   24560623.4124
     -2169.9534
 -14169131.14648 -10763890.66446  21674541.5414   21674547.5884
       383.4384
 -15324448.01648 -11811444.65547  20909977.6354   20909983.7874
        74.6564
 -10316440.57348  -7922917.61847  21205471.7444   21205477.8264
     -1149.1414
  -8816027.11647  -2368124.54246  22770052.7294   22770060.9944
       690.9844
  -5630641.15846  -4257060.55146  22760284.6584   22760292.7134
     -2803.1254
 01 10  2  0 33 15.0020000  0  7G13G10G28G 8G27G 2G31
   2764731.79147   2508593.21346  22841819.2444   22841826.4434
     -4077.5474
    649359.50645   3076757.91045  24566816.3614   24566830.5574
     -2178.3284
 -14174832.71048 -10768333.41246  21673456.7214   21673462.5924
       376.7194
 -15325527.09148 -11812285.48647  20909772.2294   20909778.3814
        69.1884
 -10299159.62948  -7909451.94647  21208760.0964   21208766.1434
     -1155.0314
  -8826354.66247  -2376171.93546  22768087.1744   22768095.3224
       685.9844
  -5588518.77546  -4224237.93146  22768299.4164   22768306.8144
     -2813.2344
 01 10  2  0 33 30.0020000  0  7G13G10G28G 8G27G 2G31
   2825936.33947   2556284.99546  22853466.6114   22853474.0804
     -4082.6414
    682092.45345   3102264.04445  24573044.6194   24573056.6704
     -2185.6564
 -14180437.56248 -10772700.80046  21672390.0804   21672396.1044
       371.0004
 -15326528.33748 -11813065.65947  20909581.6434   20909587.7954
        64.7194
 -10281794.51448  -7895920.69347  21212064.7914   21212070.8144
     -1159.9224
  -8836611.64947  -2384164.33546  22766135.6044   22766144.2324
       682.0164
  -5546249.17046  -4191300.58246  22776344.1824   22776352.6004
     -2822.3124
 01 10  2  0 33 45.0020000  0  7G13G10G28G 8G27G 2G31
   2887228.80747   2604045.28546  22865129.4084   22865136.9594
     -4089.3284
    714946.73145   3127864.70045  24579296.9324   24579309.8734
     -2194.5784
 -14185945.42548 -10776992.61746  21671341.7754   21671347.6934
       363.7194
 -15327451.10748 -11813784.68547  20909406.0574   20909412.1744
        58.6414
 -10264344.67448  -7882323.41647  21215385.4394   21215391.5924
     -1166.3754
  -8846797.65447  -2392101.43146  22764197.4244   22764206.0064
       676.4694
  -5503832.21146  -4158248.41546  22784414.4244   22784423.6744
     -2832.9374
 01 10  2  0 34  0.0020000  0  7G13G10G28G 8G27G 2G31
   2948608.19847   2651873.31646  22876809.3614   22876817.0884
     -4094.6254
    747921.08945   3153558.94145  24585571.2914   24585583.4824
     -2202.0474
 -14191357.22948 -10781209.57946  21670312.1664   21670318.2484
       357.8134
 -15328296.19948 -11814443.18647  20909245.1114   20909251.2294
        53.9844
 -10246810.93548  -7868660.76747  21218721.8304   21218727.8894
     -1171.4844
  -8856913.56747  -2399983.91746  22762272.4324   22762280.5684
       672.2974
  -5461269.10747  -4125082.39546  22792516.9164   22792523.9984
     -2842.1564
 01 10  2  0 34 15.0020000  0  7G13G10G28G 8G27G 2G31
   3010074.49447   2699769.05846  22888505.5334   22888513.6464
     -4100.4844
    781015.54445   3179346.73945  24591868.7134   24591880.5884
     -2210.1414
 -14196672.67748 -10785351.45846  21669300.5724   21669306.5614
       351.3134
 -15329063.27948 -11815040.89647  20909099.1584   20909105.2404
        48.6884
 -10229192.94848  -7854932.46647  21222074.5724   21222080.5844
     -1177.1874
  -8866959.16447  -2407811.61446  22760360.4164   22760368.3774
       667.5164
  -5418559.87446  -4091802.42246  22800641.1504   22800649.2644
     -2852.0004
 01 10  2  0 34 30.0020000  0  7G13G10G28G 8G27G 2G31
   3071625.51447   2747730.81546  22900219.3854   22900227.4044
     -4105.5314
    814227.92945   3205226.46445  24598189.8384   24598203.5294
     -2217.4224
 -14201893.71248 -10789419.77447  21668307.2834   21668313.3074
       345.6094
 -15329753.99848 -11815579.10647  20908967.6744   20908973.7214
        44.1884
 -10211492.44948  -7841139.86747  21225442.8854   21225448.8854
     -1182.0944
  -8876936.34047  -2415585.98346  22758461.8224   22758470.0294
       663.5474
  -5375706.57946  -4058410.28046  22808797.4324   22808804.5844
     -2861.0004
 01 10  2  0 34 45.0020000  0  7G13G10G28G 8G27G 2G31
   3133253.62947   2795752.65146  22911946.7054   22911954.4794
     -4112.1094
    847550.57945   3231192.09345  24604530.6824   24604543.3074
     -2226.1874
 -14207027.60048 -10793420.19047  21667330.2754   21667336.2054
       338.3444
 -15330375.65948 -11816063.50347  20908849.4864   20908855.6504
        38.1254
 -10193716.64348  -7827288.59347  21228825.4474   21228831.5064
     -1188.5784
  -8886852.56647  -2423312.85946  22756574.6744   22756582.7644
       658.0474
  -5332716.83346  -4024911.75146  22816976.9244   22816985.7174
     -2871.5474
 01 10  2  0 35  0.0020000  0  7G13G10G28G 8G27G 2G31
   3194975.16047   2843847.27446  22923691.8304   22923699.6274
     -4117.9064
    880999.87745   3257256.41345  24610896.1504   24610909.1744
     -2234.2034
 -14212057.80848 -10797339.80847  21666372.9004   21666378.9364
       331.8594
 -15330911.38148 -11816480.93347  20908747.6894   20908753.8304
        32.8134
 -10175848.76748  -7813365.57347  21232225.5724   21232231.6314
     -1194.2974
  -8896691.15547  -2430979.24446  22754702.4864   22754710.7174
       653.2814
  -5289574.28246  -3991294.21846  22825189.0724   22825197.3734
     -2881.2814
 01 10  2  0 35 15.0020000  0  7G13G10G28G 8G27G 2G31
   3256786.28947   2892011.72246  22935454.3074   22935462.5024
     -4124.0164
    914571.94045   3283416.37245  24617284.4004   24617296.4984
     -2242.5164
 -14216988.03448 -10801181.51347  21665434.6044   21665440.6504
       325.0634
 -15331364.71848 -11816834.17147  20908661.3774   20908667.4364
        27.1884
 -10157892.37448  -7799373.58147  21235642.4004   21235648.5294
     -1200.3444
  -8906455.79847  -2438588.00446  22752844.7214   22752853.1974
       648.2194
  -5246282.84746  -3957560.60846  22833424.5184   22833432.0804
     -2891.3594
 01 10  2  0 35 30.0020000  0  7G13G10G28G 8G27G 2G31
   3318683.24247   2940243.03046  22947232.8934   22947241.4044
     -4130.0164
    948263.08444   3309669.14645  24623695.8384   24623707.5374
     -2250.7504
 -14221821.67748 -10804947.96047  21664515.0104   21664520.9984
       318.3284
 -15331738.97748 -11817125.78347  20908590.0024   20908596.0844
        21.6094
 -10139850.77248  -7785315.18847  21239075.8224   21239081.9044
     -1206.2974
  -8916149.91347  -2446141.80746  22750999.5724   22751007.7324
       643.2344
  -5202846.18646  -3923713.85946  22841692.0184   22841699.2294
     -2901.2974
 01 10  2  0 35 45.0020000  0  7G13G10G28G 8G27G 2G31
   3380680.55947   2988552.55446  22959031.1974   22959039.5214
     -4135.9224
    982087.86945   3336026.04645  24630132.8694   24630144.9084
     -2258.8754
 -14226543.80148 -10808627.51347  21663616.2834   21663622.1544
       311.6564
 -15332019.09548 -11817344.03347  20908536.5644   20908542.6584
        16.1094
 -10121708.98848  -7771178.73247  21242527.9864   21242534.1624
     -1212.2344
  -8925758.65247  -2453629.08646  22749171.2834   22749179.5024
       638.2974
  -5159249.57846  -3889742.48746  22849986.6194   22849994.8964
     -2911.2034
 01 10  2  0 36  0.0020000  0  7G13G10G28G 8G27G 2G31
   3442763.47147   3036928.77346  22970844.9554   22970852.8224
     -4141.5004
   1016031.48344   3362475.52145  24636592.0804   24636604.7054
     -2266.6564
 -14231168.96748 -10812231.52047  21662736.0884   21662742.0294
       305.3444
 -15332219.43948 -11817500.13247  20908498.4394   20908504.4984
        10.8914
 -10103481.34148  -7756975.36847  21245996.6664   21246002.6894
     -1217.8284
  -8935296.50647  -2461061.12946  22747356.1744   22747364.2524
       633.7194
  -5115507.91346  -3855658.07846  22858312.5574   22858319.6394
     -2920.7344
 01 10  2  0 36 15.0020000  0  7G13G10G28G 8G27G 2G31
   3504927.52547   3085368.21846  22982674.3464   22982681.9794
     -4147.1874
   1050089.48445   3389014.14445  24643072.6504   24643085.7794
     -2274.5624
 -14235701.47748 -10815763.31847  21661873.5024   21661879.4904
       298.8594
 -15332344.12348 -11817597.27447  20908474.6744   20908480.6044
         5.5634
 -10085171.96048  -7742708.32047  21249480.8384   21249486.8614
     -1223.5784
  -8944767.80447  -2468441.31646  22745553.5724   22745561.5804
       628.9694
  -5071625.56446  -3821464.00046  22866660.9164   22866669.7444
     -2930.3914
 01 10  2  0 36 30.0020000  0  7G13G10G28G 8G27G 2G31
   3567175.91547   3133873.37146  22994519.8304   22994527.7794
     -4152.7974
   1084264.94145   3415644.31345  24649576.8384   24649589.1114
     -2282.4224
 -14240137.89948 -10819220.24247  21661029.4084   21661035.4204
       292.4384
 -15332389.59248 -11817632.69047  20908466.1744   20908472.3034
         0.2814
 -10066777.32448  -7728374.83947  21252981.1974   21252987.2444
     -1229.2664
  -8954169.12747  -2475766.97746  22743764.2914   22743772.3224
       624.3134
  -5027599.44646  -3787157.96546  22875041.0884   22875048.1934
     -2939.9694
 01 10  2  0 36 45.0020000  0  7G13G10G28G 8G27G 2G31
   3629507.40247   3182443.29946  23006380.9474   23006389.0374
     -4157.7664
   1118556.69945   3442365.08645  24656102.6044   24656117.0104
     -2289.5784
 -14244479.28448 -10822603.12047  21660203.3544   21660209.2714
       286.6724
 -15332356.68448 -11817607.02647  20908472.3774   20908478.4944
        -4.3914
 -10048298.26648  -7713975.57547  21256497.4244   21256503.4714
     -1234.3444
  -8963501.41247  -2483038.84546  22741988.7524   22741996.9364
       620.2664
  -4983430.64246  -3752740.68046  22883443.4324   22883451.8614
     -2948.9224
 01 10  2  0 37  0.0020000  0  7G13G10G28G 8G27G 2G31
   3691931.27047   3231085.20246  23018259.9324   23018267.7054
     -4164.2344
   1152974.20445   3469183.85545  24662651.1664   24662662.8654
     -2298.2664
 -14248715.91648 -10825904.37247  21659397.1044   21659402.9754
       279.3914
 -15332235.45148 -11817512.54747  20908495.4944   20908501.5294
       -10.5944
 -10029724.92848  -7699502.84147  21260032.0334   21260038.1974
     -1240.9374
  -8972755.00247  -2490249.38646  22740227.6974   22740235.7524
       614.7194
  -4939109.74346  -3718204.96146  22891880.0804   22891887.3264
     -2959.3594
 01 10  2  0 37 15.0020000  0  7G13G10G28G 8G27G 2G31
   3754433.23847   3279787.96946  23030153.2994   23030160.9904
     -4169.5314
   1187503.11544   3496089.41445  24669221.7684   24669234.3464
     -2305.7504
 -14252861.86148 -10829134.95247  21658607.9714   21658613.7834
       273.2504
 -15332039.97148 -11817360.20747  20908532.5964   20908538.6544
       -15.6414
 -10011071.32648  -7684967.56347  21263581.6584   21263587.7054
     -1246.3754
  -8981943.99947  -2497409.59046  22738479.4714   22738487.6784
       610.3284
  -4894651.20446  -3683561.88346  22900337.9164   22900345.3734
     -2968.6094
 01 10  2  0 37 30.0020000  0  7G13G10G28G 8G27G 2G31
   3817012.75347   3328551.15046  23042062.3774   23042069.9044
     -4174.8124
   1222142.79545   3523081.32645  24675813.0724   24675826.1074
     -2313.2664
 -14256917.46448 -10832295.13747  21657836.2524   21657842.2054
       267.1094
 -15331770.21048 -11817149.98547  20908583.7364   20908589.7954
       -20.7194
  -9992337.54248  -7670369.80947  21267146.6584   21267152.6464
     -1251.8594
  -8991068.73047  -2504519.72046  22736742.7994   22736750.6434
       605.9064
  -4850055.57046  -3648812.06946  22908825.8774   22908834.6934
     -2977.8754
 01 10  2  0 37 45.0020000  0  7G13G10G28G 8G27G 2G31
   3879677.45147   3377380.69746  23053987.0414   23053995.1314
     -4180.9694
   1256900.94445   3550165.51745  24682428.8144   24682442.6234
     -2321.6414
 -14260874.81448 -10835378.76347  21657083.1044   21657089.1744
       260.0634
 -15331418.15648 -11816875.64247  20908650.9634   20908656.9394
       -26.7034
  -9973515.48048  -7655703.26647  21270728.2134   21270734.4364
     -1258.2344
  -9000121.26447  -2511573.59146  22735020.1044   22735027.9594
       600.6094
  -4805315.13946  -3613949.37146  22917337.9084   22917346.7954
     -2988.0164
 01 10  2  0 38  0.0020000  0  7G13G10G28G 8G27G 2G31
   3942428.96246   3426277.90246  23065927.9394   23065936.4634
     -4185.8284
   1291779.13945   3577343.23845  24689065.4394   24689078.8734
     -2328.7194
 -14264732.07148 -10838384.39247  21656349.1194   21656355.1314
       254.3134
 -15330981.77248 -11816535.58447  20908734.0334   20908740.0804
       -31.4064
  -9954603.22848  -7640966.44547  21274327.1664   21274333.2604
     -1263.3284
  -9009099.72647  -2518569.75046  22733311.3774   22733319.3854
       596.5944
  -4760428.20446  -3578972.56146  22925881.5104   22925888.3934
     -2996.8444
 01 10  2  0 38 15.0020000  0  7G13G10G28G 8G27G 2G31
   4005260.66246   3475237.58246  23077884.4944   23077892.5144
     -4191.8124
   1326770.83844   3604609.45445  24695723.8774   24695736.1974
     -2336.9224
 -14268495.49348 -10841316.90147  21655632.8694   21655638.9164
       247.4064
 -15330467.29848 -11816134.67547  20908831.7294   20908837.8224
       -37.2664
  -9935606.94948  -7626164.14647  21277942.1894   21277948.3074
     -1269.5944
  -9018010.46347  -2525513.12446  22731615.9794   22731623.9284
       591.4384
  -4715401.41746  -3543886.72946  22934447.7294   22934455.6894
     -3006.8124
 01 10  2  0 38 30.0020000  0  8G13G 7G10G28G 8G27G 2G31
   4068178.34946   3524264.29946  23089856.6894   23089865.2134
     -4197.3914
    -12958.28253                  25302125.1894
      2592.0004
   1361881.62544   3631968.41345  24702404.8304   24702418.3814
     -2344.6874
 -14272159.29348 -10844171.78947  21654935.6894   21654941.6434
       240.9384
 -15329868.59848 -11815668.13247  20908945.6504   20908951.6504
       -42.7194
  -9916520.59148  -7611291.65747  21281574.0024   21281580.0024
     -1275.4374
  -9026847.66147  -2532399.20546  22729934.1664   22729942.0104
       586.7034
  -4670229.06546  -3508687.51446  22943046.4324   22943054.1824
     -3016.3284
 01 10  2  0 38 45.0020000  0  8G13G 7G10G28G 8G27G 2G31
   4131182.73746   3573358.55446  23101846.8774   23101855.4004
     -4202.8754
    -51829.52143                  25294727.7054
      2591.1564
   1397112.52444   3659420.97745  24709108.9164   24709120.6864
     -2352.4064
 -14275722.23748 -10846948.08447  21654257.8224   21654263.7754
       234.4844
 -15329184.41048 -11815134.98247  20909075.6504   20909081.7684
       -48.1724
  -9897342.83448  -7596347.95147  21285223.4004   21285229.5184
     -1281.2664
  -9035610.07247  -2539227.01146  22728266.5024   22728274.2294
       581.9844
  -4624910.27146  -3473374.14846  22951666.9714   22951674.8964
     -3025.8284
 01 10  2  0 39  0.0020000  0  8G13G 7G10G28G 8G27G 2G31
   4194265.88646   3622514.16446  23113851.6194   23113860.1314
     -4208.0474
    -90690.99643                  25287332.3544
      2590.5784
   1432455.55444   3686960.90145  24715834.7134   24715848.3344
     -2359.8284
 -14279191.98748 -10849651.75447  21653597.5334   21653603.3574
       228.3284
 -15328422.21048 -11814541.04047  20909220.9164   20909226.9864
       -53.3124
  -9878081.13948  -7581338.83347  21288888.7364   21288894.7834
     -1286.7974
  -9044305.32447  -2546002.48746  22726611.8384   22726619.5644
       577.5634
  -4579452.91346  -3437952.88946  22960319.5644   22960328.3114
     -3034.9844
 01 10  2  0 39 15.0020000  0  8G13G 7G10G28G 8G27G 2G31
   4257432.38947   3671734.73846  23125871.7524   23125880.2874
     -4214.5474
   -129537.69843                  25279938.6894
      2588.6254
   1467915.13044   3714591.65545  24722582.8614   24722596.9634
     -2368.5314
 -14282563.89248 -10852279.19247  21652955.6114   21652961.4474
       220.8754
 -15327577.10448 -11813882.49947  20909381.6114   20909387.7874
       -59.7504
  -9858730.76748  -7566260.61947  21292571.1434   21292577.1434
     -1293.6564
  -9052928.76647  -2552722.00346  22724971.2214   22724978.9364
       571.8284
  -4533852.71446  -3402420.22946  22968995.8224   22969002.8464
     -3045.4374
 01 10  2  0 39 30.0020000  0  8G13G 7G10G28G 8G27G 2G31
   4320687.97247   3721024.72246  23137909.4864   23137917.7994
     -4219.5164
   -168363.25243                  25272551.4714
      2588.1564
   1503496.99744   3742317.76645  24729354.2524   24729368.5884
     -2375.7194
 -14285831.95648 -10854825.70447  21652333.8144   21652339.7684
       214.8914
 -15326642.90148 -11813154.53047  20909559.4864   20909565.6044
       -64.7814
  -9839285.49748  -7551108.45747  21296271.3144   21296277.3264
     -1299.0314
  -9061474.35147  -2559380.85146  22723344.8544   22723352.6274
       567.5944
  -4488103.67646  -3366771.66946  22977702.9554   22977711.4434
     -3054.4064
 01 10  2  0 39 45.0020000  0  8G13G 7G10G28G 8G27G 2G31
   4384023.28646   3770376.83446  23149961.2684   23149969.2874
     -4224.8444
   -207176.51743     -6046.27455  25265166.1044   25265187.2524
      2587.2814
   1539191.78344   3770131.75145  24736146.3224   24736163.1314
     -2383.2344
 -14289005.25848 -10857298.38647  21651729.9394   21651735.8934
       208.5474
 -15325628.58348 -11812364.12347  20909752.6194   20909758.5724
       -70.1414
  -9819754.30648  -7535889.34347  21299988.0644   21299994.1704
     -1304.7974
  -9069951.25247  -2565986.18746  22721731.6824   22721739.5254
       563.0004
  -4442215.22946  -3331014.43846  22986433.9474   22986441.5574
     -3063.7034
 01 10  2  0 40  0.0020000  0  8G13G 7G10G28G 8G27G 2G31
   4447437.54546   3819790.48146  23162028.8694   23162037.0414
     -4230.3284
   -245977.68243    -36280.69744  25257782.6354   25257800.5924
      2586.2504
   1574998.63744   3798033.11745  24742960.4244   24742974.1974
     -2390.9534
 -14292084.19948 -10859697.54247  21651144.0804   21651150.0104
       202.0314
 -15324534.43948 -11811511.52947  20909960.8304   20909966.9124
       -75.6874
  -9800137.49348  -7520603.50847  21303721.1194   21303727.2014
     -1310.7194
  -9078359.94647  -2572538.36646  22720131.3854   22720139.2994
       558.2194
  -4396188.15946  -3295149.21246  22995194.4324   22995202.2874
     -3073.1724
 01 10  2  0 40 15.0020000  0  8G13G 7G10G28G 8G27G 2G31
   4510938.21046   3869271.42746  23174112.6044   23174120.7294
     -4235.9694
   -284758.50343    -66499.46045  25250401.1434   25250418.5144
      2585.0164
   1610925.17344   3826027.76245  24749796.1744   24749810.6154
     -2398.7814
 -14295061.05548 -10862017.14047  21650577.4084   21650583.3384
       195.3444
 -15323352.48548 -11810590.50847  20910185.7684   20910191.8384
       -81.4374
  -9780427.19348  -7505244.83347  21307471.7054   21307477.8574
     -1316.8594
  -9086692.62247  -2579031.31046  22718545.9794   22718553.8814
       553.2664
  -4350014.92746  -3259170.08346  23003978.8694   23003988.1434
     -3082.7974
 01 10  2  0 40 30.0020000  0  8G13G 7G10G28G 8G27G 2G31
   4574519.74347   3918815.39446  23186212.0334   23186220.1114
     -4241.7034
   -323524.09943    -96706.08145  25243025.9864   25243045.7834
      2583.5944
   1646965.90244   3854111.35545  24756655.2444   24756668.3264
     -2406.7814
 -14297941.18248 -10864261.36947  21650029.4794   21650035.3734
       188.5314
 -15322087.87648 -11809605.08047  20910426.3224   20910432.3934
       -87.3124
  -9760628.57848  -7489817.33247  21311239.1744   21311245.2094
     -1323.1094
  -9094954.58047  -2585469.15346  22716973.7364   22716981.7324
       548.1884
  -4303700.98646  -3223081.32046  23012794.0254   23012799.6394
     -3092.5314
 01 10  2  0 40 45.0020000  0  8G13G 7G10G28G 8G27G 2G31
   4638183.37546   3968423.33946  23198326.9004   23198335.2014
     -4247.1254
   -362272.61943   -126899.58845  25235650.1434   25235669.5064
      2582.5004
   1683122.02544   3882284.90145  24763535.6584   24763549.2564
     -2414.4064
 -14300723.10448 -10866429.07047  21649499.9004   21649505.9474
       182.0474
 -15320738.94248 -11808553.93947  20910682.9944   20910689.0884
       -92.9064
  -9740739.99748  -7474319.73547  21315023.8694   21315029.9284
     -1329.0624
  -9103144.41047  -2591850.79646  22715414.9324   22715422.7054
       543.4224
  -4257245.16146  -3186881.95446  23021632.4394   23021640.4364
     -3101.9374
 01 10  2  0 41  0.0020000  0  8G13G 7G10G28G 8G27G 2G31
   4701929.86846   4018095.86346  23210457.4244   23210465.9944
     -4252.6724
   -401002.55443   -157078.53045  25228281.0414   25228295.2484
      2581.2504
   1719394.37344   3910548.97845  24770438.0494   24770453.5454
     -2422.1874
 -14303405.80448 -10868519.45547  21648989.4634   21648995.3464
       175.3754
 -15319304.41548 -11807436.10047  20910955.7524   20910961.8464
       -98.6414
  -9720760.23248  -7458751.08247  21318825.6504   21318831.6974
     -1335.1724
  -9111260.99647  -2598175.36646  22713870.2914   22713877.9474
       538.5164
  -4210646.55746  -3150571.43646  23030501.0494   23030510.8614
     -3111.4844
 01 10  2  0 41 15.0020000  0  8G13G 7G10G28G 8G27G 2G31
   4765761.77046   4067834.92946  23222604.1044   23222612.2994
     -4258.7974
   -439710.99943   -187240.71045  25220915.0644   25220934.8264
      2579.3444
   1755785.32844   3938905.51245  24777362.6434   24777377.1074
     -2430.5164
 -14305986.51648 -10870530.36947  21648498.2834   21648504.1784
       168.1564
 -15317781.47948 -11806249.38047  20911245.5494   20911251.7484
      -104.9694
  -9700686.42648  -7443109.15147  21322646.0104   21322652.0334
     -1341.8754
  -9119301.66147  -2604440.77646  22712340.4554   22712348.2754
       533.0164
  -4163902.85846  -3114147.75746  23039395.7684   23039401.7794
     -3121.5784
 01 10  2  0 41 30.0020000  0  8G13G 7G10G28G 8G27G 2G31
   4829684.20146   4117644.54046  23234767.8074   23234776.3774
     -4263.8284
   -478392.26043   -217381.76945  25213553.6114   25213572.2954
      2578.5314
   1792299.84845   3967358.28945  24784311.7754   24784324.3424
     -2437.7504
 -14308459.97848 -10872457.72147  21648027.6824   21648033.6584
       162.0004
 -15316164.79648 -11804989.61047  20911553.2134   20911559.3424
      -110.2504
  -9680513.12148  -7427389.68747  21326484.6434   21326490.8184
     -1347.5314
  -9127261.08047  -2610642.87546  22710825.4394   22710833.2254
       528.6094
  -4117008.77746  -3077606.90846  23048319.4324   23048328.0614
     -3130.5944
 01 10  2  0 41 45.0020000  0  8G13G 7G10G28G 8G27G 2G31
   4893676.90246   4167508.90946  23246946.3384   23246954.7684
     -4268.5004
   -517066.07743   -247516.95345  25206193.4244   25206211.1234
      2577.9844
   1828917.77144   3995891.66945  24791280.3384   24791297.2404
     -2444.6414
 -14310846.05848 -10874316.97347  21647573.7524   21647579.7294
       156.1564
 -15314473.88348 -11803671.98847  20911875.0254   20911881.0494
      -115.2034
  -9660260.06348  -7411608.07547  21330338.5884   21330344.6464
     -1352.8754
  -9135159.14247  -2616797.17046  22709322.7444   22709330.4244
       524.5004
  -4069984.68646  -3040964.79246  23057267.5254   23057275.2404
     -3139.2664
 01 10  2  0 42  0.0020000  0  8G13G 7G10G28G 8G27G 2G31
   4957748.02646   4217434.37546  23259138.1824   23259147.0454
     -4274.5944
   -555723.50543   -277639.51645  25198837.6744   25198854.9634
      2576.0314
   1865647.40245   4024512.08945  24798269.6664   24798281.7524
     -2452.9374
 -14313136.28948 -10876101.54647  21647137.9004   21647143.8894
       148.9224
 -15312700.29448 -11802289.94647  20912212.5414   20912218.5764
      -121.5944
  -9639918.65048  -7395757.62147  21334209.6434   21334215.6784
     -1359.6254
  -9142987.44147  -2622897.09946  22707832.9394   22707840.5024
       518.9844
  -4022822.30746  -3004214.91546  23066243.2054   23066251.9284
     -3149.3444
 01 10  2  0 42 15.0020000  0  8G13G 7G10G28G 8G27G 2G31
   5021898.84747   4267421.95446  23271346.2684   23271354.4634
     -4279.2664
   -594362.79343   -307747.74645  25191484.8304   25191503.8544
      2575.4384
   1902489.95645   4053220.50545  24805280.8304   24805293.4554
     -2459.8284
 -14315329.35848 -10877810.39947  21646720.4004   21646726.3074
       143.0634
 -15310842.31848 -11800842.15147  20912566.1584   20912572.2294
      -126.5784
  -9619487.30948  -7379837.09047  21338097.4944   21338103.5294
     -1365.0004
  -9150744.49347  -2628941.51146  22706356.8144   22706364.4004
       514.8594
  -3975520.43546  -2967356.34646  23075243.1504   23075251.8964
     -3158.0164
 01 10  2  0 42 30.0020000  0  8G13G 7G10G28G 8G27G 2G31
   5086136.88046   4317477.48446  23283570.1354   23283578.4474
     -4284.7974
   -632975.82744   -337835.67345  25184137.1194   25184155.7214
      2573.9844
   1939452.99845   4082022.77145  24812314.2214   24812327.5494
     -2467.5624
 -14317417.35448 -10879437.38047  21646322.7914   21646328.7564
       136.3444
 -15308891.96848 -11799322.37747  20912937.1274   20912943.1974
      -132.4534
  -9598958.04248  -7363840.24847  21342004.1894   21342010.2604
     -1371.2504
  -9158422.52847  -2634924.35746  22704895.7684   22704903.2714
       509.8754
  -3928071.46646  -2930383.12946  23084274.2444   23084280.5614
     -3167.5164
 01 10  2  0 42 45.0020000  0  8G13G 7G10G28G 8G27G 2G31
   5150443.76546   4367586.65046  23295807.0184   23295815.0494
     -4289.5004
   -671580.34644   -367916.89745  25176790.6584   25176808.8854
      2573.2504
   1976518.03745   4110904.52445  24819367.1664   24819381.7834
     -2474.4844
 -14319418.30448 -10880996.53347  21645942.4714   21645948.4004
       130.4224
 -15306866.96748 -11797744.43447  20913322.4634   20913328.5574
      -137.5624
  -9578348.84148  -7347781.12347  21345925.8934   21345931.9754
     -1376.7034
  -9166039.62447  -2640859.71646  22703446.2294   22703453.7094
       505.6884
  -3880493.71346  -2893309.56446  23093326.4324   23093335.3654
     -3176.2194
 01 10  2  0 43  0.0020000  0  8G13G 7G10G28G 8G27G 2G31
   5214827.44646   4417755.67546  23308059.6194   23308067.6744
     -4295.5784
   -710167.73944   -397984.70245  25169447.3304   25169464.5254
      2571.1414
   2013693.12445   4139872.07745  24826441.8544   24826454.2914
     -2482.7664
 -14321324.04848 -10882481.49147  21645579.5964   21645585.4084
       123.1094
 -15304759.11048 -11796101.92347  20913723.6584   20913729.7754
      -144.0624
  -9557651.25348  -7331653.12547  21349864.5724   21349870.6074
     -1383.5474
  -9173587.48847  -2646741.12246  22702009.9084   22702017.5064
       500.1094
  -3832779.30246  -2856129.55746  23102407.2994   23102415.1434
     -3186.2814
 01 10  2  0 43 15.0020000  0  8G13G 7G10G28G 8G27G 2G31
   5279299.27546   4467993.38846  23320328.0024   23320337.0534
     -4300.5474
   -748726.23744   -428030.17545  25162110.3304   25162127.7954
      2570.1094
   2050989.47645   4168934.10545  24833538.8464   24833554.7174
     -2489.9694
 -14323123.07448 -10883883.30847  21645237.5024   21645243.5144
       116.8914
 -15302556.70748 -11794385.74547  20914142.8074   20914148.8074
      -149.4534
  -9536853.68648  -7315447.22347  21353822.2524   21353828.2644
     -1389.3284
  -9181054.66547  -2652559.66746  22700588.9634   22700596.6074
       495.6414
  -3784916.90146  -2818834.18046  23111514.8464   23111522.2444
     -3195.2344
 01 10  2  0 43 30.0020000  0  8G13G 7G10G28G 8G27G 2G31
   5343838.28046   4518283.45746  23332608.3464   23332616.9514
     -4305.0784
   -787276.05344   -458068.73245  25154773.3544   25154790.1744
      2569.4224
   2088386.39745   4198074.42845  24840656.6584   24840670.1154
     -2496.7194
 -14324835.93548 -10885217.97147  21644911.3224   21644917.3464
       111.0784
 -15300280.13548 -11792611.76947  20914575.8144   20914581.9204
      -154.5164
  -9515976.58248  -7299179.34047  21357794.9864   21357801.0104
     -1394.7034
  -9188461.74047  -2658331.37246  22699179.4554   22699186.9594
       491.5474
  -3736927.36046  -2781439.73746  23120647.5724   23120655.2174
     -3203.7664
 01 10  2  0 43 45.0020000  0  8G13G 7G10G28G 8G27G 2G31
   5408452.44546   4568632.06846  23344905.2444   23344913.5574
     -4310.1094
   -825808.65345   -488093.97645  25147441.5804   25147457.8614
      2568.2814
   2125891.62545   4227299.24345  24847792.5644   24847806.6074
     -2503.9534
 -14326454.59948 -10886479.23547  21644603.2054   21644609.1704
       104.7664
 -15297921.04648 -11790773.48847  20915024.5644   20915030.5294
      -160.0474
  -9495011.63648  -7282843.01747  21361784.3074   21361790.3544
     -1400.6094
  -9195800.52547  -2664049.87046  22697782.7914   22697790.3424
       486.9694
  -3688802.74546  -2743940.07546  23129803.8934   23129813.2134
     -3212.8124
 01 10  2  0 44  0.0020000  0  8G13G 7G10G28G 8G27G 2G31
   5473142.65446   4619039.95546  23357214.2524   23357222.7404
     -4315.5474
   -864322.60045   -518104.60845  25140112.2834   25140129.0574
      2566.6414
   2163506.10645   4256609.12845  24854951.3464   24854964.6744
     -2511.5944
 -14327977.82948 -10887666.13547  21644313.5184   21644319.3774
        98.0314
 -15295478.01748 -11788869.81247  20915489.6744   20915495.6504
      -165.9844
  -9473957.48248  -7266437.17447  21365790.9634   21365796.9514
     -1406.9374
  -9203069.84947  -2669714.24046  22696399.5414   22696406.8934
       481.9694
  -3640542.28346  -2706334.54046  23138988.6894   23138996.8034
     -3222.2194
 01 10  2  0 44 15.0020000  0  8G13G 7G10G28G 8G27G 2G31
   5537905.41646   4669504.36546  23369539.3304   23369547.8304
     -4319.8594
   -902820.83044   -548103.01645  25132785.8854   25132803.0574
      2566.0784
   2201226.15845   4286001.26745  24862128.4084   24862141.6074
     -2518.1414
 -14329409.01948 -10888781.31047  21644040.9554   21644046.8614
        92.4064
 -15292954.34148 -11786903.29047  20915969.9004   20915975.8654
      -170.8914
  -9452817.28948  -7249964.28647  21369813.7604   21369819.8544
     -1412.1564
  -9210273.09947  -2675327.12246  22695028.6974   22695036.3894
       478.0784
  -3592149.49246  -2668625.87946  23148197.1114   23148204.7324
     -3230.5314
 01 10  2  0 44 30.0020000  0  8G13G 7G10G28G 8G27G 2G31
   5602745.16846   4720028.76746  23381877.2214   23381886.1194
     -4325.8594
   -941298.38444   -578085.31045  25125464.0024   25125480.2834
      2563.8444
   2239056.23345   4315479.23245  24869327.7604   24869339.5644
     -2526.3444
 -14330743.32848 -10889821.00147  21643786.9714   21643792.9364
        85.0634
 -15290344.95748 -11784869.98847  20916466.3774   20916472.4474
      -177.4844
  -9431586.15548  -7233420.53747  21373854.0254   21373860.0374
     -1419.1094
  -9217405.47247  -2680884.77546  22693671.4244   22693679.2794
       472.4694
  -3543619.86846  -2630810.60346  23157431.4084   23157439.3114
     -3240.5314
 01 10  2  0 44 45.0020000  0  8G13G 7G10G28G 8G27G 2G31
   5667661.76846   4770613.04746  23394229.9004   23394238.1074
     -4330.1724
   -979754.68945   -608051.08845  25118146.0334   25118164.6354
      2563.1884
   2276996.27745   4345042.78345  24876547.7834   24876560.4904
     -2532.8124
 -14331980.57748 -10890785.05947  21643551.4324   21643557.3144
        79.4064
 -15287649.62948 -11782769.70647  20916979.1584   20916985.2404
      -182.3914
  -9410263.73848  -7216805.65947  21377911.2754   21377917.4044
     -1424.3914
  -9224466.78747  -2686387.05746  22692327.4944   22692335.1624
       468.5474
  -3494953.47046  -2592888.78646  23166692.2754   23166701.9004
     -3248.8284
 01 10  2  0 45  0.0020000  0  8G13G 7G10G28G 8G27G 2G31
   5732658.34146   4821259.64246  23406598.6044   23406607.5844
     -4335.9224
  -1018186.01644   -637997.37545  25110831.5644   25110847.3654
      2561.0784
   2315049.30245   4374694.45045  24883788.9244   24883799.5214
     -2540.8124
 -14333117.45648 -10891670.91147  21643335.1274   21643341.0574
        72.2814
 -15284864.82648 -11780599.70747  20917509.1584   20917515.2174
      -188.7974
  -9388846.61148  -7200116.98247  21381987.0024   21381993.0614
     -1431.1414
  -9231453.77247  -2691831.43246  22690998.1824   22691005.8854
       463.1564
  -3446147.33746  -2554858.04646  23175980.7294   23175988.2444
     -3258.5624
 01 10  2  0 45 15.0020000  0  8G13G 7G10G28G 8G27G 2G31
   5797729.02346   4871963.98746  23418981.8934   23418990.6744
     -4340.9374
  -1056597.62144   -667928.25145  25103521.8774   25103541.2644
      2559.7194
   2353209.53245   4404429.60045  24891050.2834   24891062.4164
     -2548.0164
 -14334159.53148 -10892482.87647  21643137.0254   21643143.0614
        65.8754
 -15281996.04248 -11778364.26847  20918055.0574   20918060.9984
      -194.5164
  -9367340.16648  -7183358.70747  21386079.4394   21386085.5214
     -1437.1874
  -9238371.97647  -2697222.20046  22689681.5414   22689688.9044
       458.4844
  -3397207.16046  -2516722.85946  23185293.7604   23185301.5924
     -3267.5784
 01 10  2  0 45 30.0020000  0  8G13G 7G10G28G 8G27G 2G31
   5862877.81646   4922729.21346  23431379.3614   23431388.2714
     -4345.4224
  -1094985.05544   -697840.33845  25096217.7364   25096235.7174
      2558.7504
   2391481.03845   4434251.49245  24898333.0574   24898347.2994
     -2554.7034
 -14335102.56348 -10893217.67747  21642957.4634   21642963.3344
        59.9844
 -15279038.62548 -11776059.76947  20918617.9004   20918623.9124
      -199.7034
  -9345739.96648  -7166527.37547  21390189.8854   21390195.8384
     -1442.7194
  -9245217.12747  -2702556.04946  22688379.0804   22688386.7484
       454.3284
  -3348129.04246  -2478480.16746  23194632.9634   23194639.4554
     -3276.0314
 01 10  2  0 45 45.0020000  0  8G13G 7G10G28G 8G27G 2G31
   5928096.79946   4973549.12146  23443789.2444   23443797.8734
     -4350.5004
  -1133355.50244   -727739.20245  25088916.1824   25088931.9474
      2557.2344
   2429855.76445   4464153.73945  24905635.6974   24905648.1464
     -2561.9694
 -14335954.37248 -10893881.39847  21642795.3544   21642801.2954
        53.5314
 -15276000.10648 -11773692.07447  20919196.0334   20919202.0804
      -205.5004
  -9324053.62448  -7149628.92547  21394316.5414   21394322.5764
     -1448.8594
  -9251996.92847  -2707838.97546  22687088.7294   22687096.1154
       449.5944
  -3298920.79546  -2440136.12246  23203996.8544   23204006.0924
     -3285.0944
 01 10  2  0 46  0.0020000  0  8G13G 7G10G28G 8G27G 2G31
   5993388.91446   5024426.00846  23456214.5254   23456223.3654
     -4354.7344
  -1171705.63344   -757622.26445  25081617.1744   25081635.6114
      2556.5004
   2468336.50645   4494138.70145  24912958.5964   24912971.4434
     -2568.4064
 -14336711.82648 -10894471.58847  21642651.0964   21642657.0964
        47.8594
 -15272877.42948 -11771258.80947  20919790.4394   20919796.4514
      -210.5004
  -9302277.85248  -7132660.78247  21398460.3304   21398466.3654
     -1454.2034
  -9258708.28247  -2713068.56746  22685811.8304   22685819.3224
       445.6414
  -3249579.70846  -2401688.55146  23213385.2364   23213393.6314
     -3293.3284
 01 10  2  0 46 15.0020000  0  8G13G 7G10G28G 8G27G 2G31
   6058756.12646   5075361.41846  23468652.9714   23468662.0924
     -4360.2194
  -1210032.62545   -787487.13645  25074324.7134   25074342.3894
      2554.4534
   2506925.42245   4524207.88245  24920301.6584   24920316.3114
     -2576.1094
 -14337372.58348 -10894986.43247  21642525.4244   21642531.2714
        40.9224
 -15269667.80948 -11768757.78047  20920401.0024   20920407.0144
      -216.7814
  -9280410.14148  -7115620.99647  21402621.7134   21402627.7134
     -1460.8284
  -9265348.78847  -2718242.95246  22684548.0644   22684555.5924
       440.4224
  -3200103.67946  -2363135.79346  23222800.7754   23222807.2684
     -3302.8124
 01 10  2  0 46 30.0020000  0  8G13G 7G10G28G 8G27G 2G31
   6124200.99646   5126357.32446  23481107.5884   23481116.0764
     -4364.8914
  -1248333.36645   -817331.77045  25067036.5254   25067054.6354
      2553.1884
   2545625.23045   4554363.50645  24927666.5184   24927681.2874
     -2582.9844
 -14337933.56348 -10895423.52447  21642418.4324   21642424.4324
        34.7664
 -15266368.19848 -11766186.63847  20921028.8074   20921034.8074
      -222.2814
  -9258447.34948  -7098507.13147  21406800.9324   21406806.9324
     -1466.6564
  -9271915.44747  -2723359.79446  22683298.3544   22683305.9634
       436.0004
  -3150489.99246  -2324475.79346  23232241.5414   23232250.8144
     -3311.4844
 01 10  2  0 46 45.0020000  0  8G13G 7G10G28G 8G27G 2G31
   6189715.81446   5177407.74946  23493573.5024   23493582.5064
     -4369.8594
  -1286614.97944   -847161.39345  25059749.8694   25059768.0614
      2551.6094
   2584428.06945   4584599.38945  24935050.6434   24935064.3464
     -2590.1564
 -14338402.35448 -10895788.78347  21642329.2444   21642335.0334
        28.3284
 -15262985.93448 -11763551.08547  20921672.7364   20921678.7484
      -228.0944
  -9236396.96948  -7081325.01547  21410997.0884   21411003.0534
     -1472.8124
  -9278415.88947  -2728425.04346  22682061.1744   22682068.8424
       431.2974
  -3100746.38846  -2285714.59646  23241707.8854   23241716.5844
     -3320.4224
 01 10  2  0 47  0.0020000  0  8G13G 7G10G28G 8G27G 2G31
   6255304.16546   5228515.47246  23506056.5804   23506065.6314
     -4375.1874
  -1324873.51445   -876973.02145  25052470.2604   25052487.5494
      2549.5944
   2623337.34345   4614918.23645  24942453.7604   24942468.1784
     -2597.7034
 -14338775.49248 -10896079.50647  21642258.2994   21642264.0644
        21.4844
 -15259517.43248 -11760848.34747  20922332.5964   20922338.5614
      -234.3284
  -9214255.14148  -7064071.63447  21415210.3304   21415216.4944
     -1479.3594
  -9284846.52147  -2733435.88646  22680837.6434   22680845.2874
       426.1884
  -3050869.54246  -2246849.51746  23251199.5334   23251206.4864
     -3329.7664
 01 10  2  0 47 15.0020000  0  8G13G 7G10G28G 8G27G 2G31
   6320969.35546   5279683.08746  23518551.8304   23518561.0574
     -4380.3594
  -1363105.03145   -906763.58845  25045195.6354   25045213.0764
      2547.7194
   2662356.39245   4645322.59345  24949880.4474   24949896.1544
     -2605.0474
 -14339049.23848 -10896292.78447  21642206.2364   21642211.9674
        14.7974
 -15255958.58548 -11758075.20447  20923009.8384   20923015.8144
      -240.4064
  -9192018.10048  -7046744.06847  21419441.9864   21419448.0214
     -1485.7814
  -9291203.60247  -2738389.42046  22679627.6664   22679635.3694
       421.2194
  -3000855.95546  -2207877.92046  23260716.0024   23260725.6864
     -3338.9224
 01 10  2  0 47 30.0020000  0  8G13G 7G10G28G 8G27G 2G31
   6386708.84346   5330908.58046  23531061.1744   23531070.0614
     -4384.6414
  -1401311.30845   -936534.59845  25037923.9794   25037940.4004
      2546.7194
   2701482.58045   4675810.45045  24957325.1584   24957339.1434
     -2611.5164
 -14339225.73748 -10896430.27447  21642172.4324   21642178.3264
         9.0004
 -15252311.55248 -11755233.33147  20923703.7684   20923709.8614
      -245.6094
  -9169687.92448  -7029343.92347  21423691.4084   21423697.4084
     -1491.3124
  -9297489.42447  -2743287.43246  22678431.4714   22678439.2444
       417.1564
  -2950708.21446  -2168801.77646  23270258.6824   23270265.8574
     -3347.1724
 01 10  2  0 47 45.0020000  0  8G13G 7G10G28G 8G27G 2G31
   6452516.13946   5382186.91946  23543585.7214   23543594.1154
     -4389.6874
  -1439498.29845   -966290.42645  25030658.3854   25030673.9284
      2544.8754
   2740709.43345   4706376.75845  24964789.7294   24964803.0334
     -2618.7504
 -14339311.31948 -10896496.93147  21642156.4794   21642162.3854
         2.4064
 -15248582.42748 -11752327.50647  20924413.3384   20924419.3614
      -251.6414
  -9147270.71048  -7011875.96447  21427957.1274   21427963.1274
     -1497.6724
  -9303710.28147  -2748134.81846  22677247.6824   22677255.2094
       412.2664
  -2900432.81346  -2129626.16546  23279827.0024   23279835.9124
     -3356.2194
 01 10  2  0 48  0.0020000  0  8G13G 7G10G28G 8G27G 2G31
   6518394.27546   5433520.45646  23556120.1274   23556128.8504
     -4394.5164
  -1477662.37545   -996028.54345  25023395.1434   25023412.0924
      2543.2034
   2780040.12545   4737023.97245  24972274.6354   24972287.6004
     -2625.7974
 -14339302.69348 -10896490.17747  21642157.8304   21642163.7834
        -4.0004
 -15244767.60448 -11749354.89547  20925139.3464   20925145.3694
      -257.4694
  -9124762.96048  -6994337.46047  21432240.3074   21432246.3774
     -1503.8284
  -9309862.78647  -2752928.93946  22676076.9474   22676084.6274
       407.5944
  -2850026.69846  -2090348.68946  23289417.6044   23289425.5064
     -3365.0624
 01 10  2  0 48 15.0020000  0  8G13G 7G10G28G 8G27G 2G31
   6584346.09546   5484911.39646  23568669.8384   23568678.7254
     -4399.9064
  -1515799.81545  -1025745.79945  25016137.0494   25016154.5144
      2540.9844
   2819477.66645   4767754.43345  24979779.6434   24979791.9634
     -2633.3754
 -14339196.57048 -10896407.44847  21642177.9634   21642183.8934
       -10.9694
 -15240863.60948 -11746312.80447  20925882.2364   20925888.2714
      -263.8914
  -9102161.25848  -6976725.74047  21436541.2214   21436547.2214
     -1510.5784
  -9315943.63947  -2757667.22846  22674919.7914   22674927.4124
       402.3594
  -2799486.82146  -2050966.97246  23299035.6894   23299043.0414
     -3374.4224
 01 10  2  0 48 30.0020000  0  8G13G 7G10G28G 8G27G 2G31
   6650368.99446   5536357.71846  23581235.1434   23581243.9004
     -4403.7504
  -1553913.00045  -1055444.20245  25008884.5254   25008902.3424
      2540.2034
   2859018.98545   4798565.80845  24987302.7134   24987316.0884
     -2639.4224
 -14338995.69848 -10896250.89947  21642216.2994   21642222.2294
       -16.4224
 -15236873.10248 -11743203.30447  20926641.6504   20926647.7914
      -268.7974
  -9079468.09848  -6959042.76047  21440859.5184   21440865.6234
     -1515.7974
  -9321955.50347  -2762351.76146  22673775.6824   22673783.0804
       398.6254
  -2748816.15246  -2011483.36346  23308677.1434   23308685.5614
     -3382.2664
 01 10  2  0 48 45.0020000  0  8G13G 7G10G28G 8G27G 2G31
   6716460.60546   5587857.61346  23593809.6584   23593817.3854
     -4409.0784
  -1592003.57445  -1085125.02945  25001636.5644   25001650.6434
      2537.9384
   2898661.88945   4829456.27545  24994847.5644   24994860.8574
     -2646.8914
 -14338701.98548 -10896021.99847  21642272.1194   21642277.9904
       -23.3444
 -15232797.65848 -11740027.61247  20927417.1504   20927423.1974
      -275.1874
  -9056685.38348  -6941289.99147  21445194.9394   21445201.0574
     -1522.5004
  -9327900.38647  -2766984.10746  22672644.4794   22672651.8544
       393.4224
  -2698016.94046  -1971899.59946  23318345.6114   23318353.4554
     -3391.5624
 01 10  2  0 49  0.0020000  0  8G13G 7G10G28G 8G27G 2G31
   6782629.13846   5639417.40846  23606404.4164   23606414.0764
     -4413.0624
  -1630062.81445  -1114781.36445  24994393.5644   24994409.7174
      2536.9534
   2938414.48345   4860432.24445  25002412.5184   25002427.7684
     -2653.1094
 -14338306.98148 -10895714.16947  21642347.3614   21642353.1504
       -29.0004
 -15228628.75448 -11736779.09947  20928210.3694   20928216.3934
      -280.3284
  -9033804.48848  -6923460.72047  21449549.1274   21449555.1744
     -1527.9694
  -9333769.85747  -2771557.67246  22671527.6274   22671535.0374
       389.5004
  -2647081.15246  -1932209.36446  23328037.3224   23328045.6004
     -3399.5624
 01 10  2  0 49 15.0020000  0  9G13G 7G10G28G 8G27G11G 2G31
   6848862.75246   5691027.96346  23619005.8854   23619015.1114
     -4417.9064
  -1668101.84845  -1144422.01945  24987155.5414   24987172.0684
      2535.0944
   2978265.01045   4891484.51145  25009996.0414   25010009.3224
     -2660.0944
 -14337822.26748 -10895336.44247  21642439.3224   21642445.1704
       -35.4534
 -15224377.73748 -11733466.60047  20929019.3544   20929025.3894
      -286.3124
  -9010836.71048  -6905563.75447  21453919.9004   21453926.0064
     -1534.2344
     -9708.40854                  25798647.6974
      1213.1094
  -9339575.39147  -2776081.43046  22670422.7684   22670430.2604
       384.7504
  -2596020.39146  -1892421.81846  23337754.1664   23337763.5574
     -3408.3594
 01 10  2  0 49 30.0020000  0  9G13G 7G10G28G 8G27G11G 2G31
   6915167.95446   5742694.27246  23631624.5254   23631633.3424
     -4423.1414
  -1706113.78844  -1174041.52645  24979919.8464   24979937.4394
      2532.8284
   3018219.78345   4922618.03545  25017598.7914   25017612.9984
     -2667.5474
 -14337241.20848 -10894883.63747  21642549.8384   21642555.6394
       -42.3444
 -15220037.76048 -11730084.78547  20929845.1434   20929851.1784
      -292.7034
  -8987775.28148  -6887593.81247  21458308.2684   21458314.4084
     -1540.9534
    -27886.43744                  25795187.2754
      1210.2974
  -9345310.40347  -2780550.23546  22669331.3544   22669338.8574
       379.5784
  -2544828.48546  -1852531.99146  23347496.2684   23347502.5494
     -3417.5784
 01 10  2  0 49 45.0020000  0  9G13G 7G10G28G 8G27G11G 2G31
   6981541.32046   5794413.68446  23644253.3774   23644262.5104
     -4427.5784
  -1744101.24845  -1203641.94345  24972692.1274   24972709.0414
      2531.2504
   3058275.56645   4953830.25145  25025221.2054   25025235.1784
     -2674.1414
 -14336566.87148 -10894358.15447  21642678.2994   21642684.2994
       -48.4844
 -15215611.71648 -11726635.90147  20930687.3614   20930693.3964
      -298.3594
  -8964623.09648  -6869553.14747  21462713.9864   21462719.9394
     -1546.9374
    -46031.90243                  25791734.3774
      1208.1884
  -9350977.96547  -2784966.47646  22668252.7754   22668260.0804
       375.1724
  -2493508.55246  -1812542.46046  23357261.3074   23357271.2834
     -3426.0164
 01 10  2  0 50  0.0020000  0  9G13G 7G10G28G 8G27G11G 2G31
   7047988.40746   5846190.55146  23656899.1114   23656908.1504
     -4431.7504
  -1782058.08345  -1233218.50745  24965470.3304   24965487.4674
      2529.9384
   3098437.91945   4985125.55645  25032863.4944   25032876.9514
     -2680.5004
 -14335793.41948 -10893755.43147  21642825.3304   21642831.1894
       -54.3444
 -15211093.56248 -11723115.25047  20931547.2444   20931553.3034
      -303.7664
  -8941374.18948  -6851437.11847  21467138.0334   21467144.1154
     -1552.6254
    -64138.42943                  25788289.4944
      1206.3284
  -9356572.26947  -2789325.63746  22667187.9714   22667195.4514
       371.0314
  -2442055.09946  -1772448.92846  23367053.5494   23367061.9084
     -3434.1564
 01 10  2  0 50 15.0020000  0  9G13G 7G10G28G 8G27G11G 2G31
   7114506.40546   5898022.68646  23669556.7054   23669566.6584
     -4436.8754
  -1819986.56944  -1262772.99245  24958251.8774   24958267.6784
      2527.6724
   3138703.96445   5016501.59045  25040525.9164   25040541.3184
     -2687.8444
 -14334923.45348 -10893077.50647  21642990.7754   21642996.6704
       -61.1874
 -15206485.73548 -11719524.72147  20932423.9084   20932429.8614
      -310.1564
  -8918031.06648  -6833247.67047  21471579.8854   21471585.9204
     -1559.3284
    -82208.23943     -8443.34055  25784851.1664   25784865.3384
      1203.4534
  -9362095.87047  -2793629.70346  22666137.0804   22666144.6194
       365.9224
  -2390470.89846  -1732253.42746  23376868.1274   23376875.4794
     -3443.2814
 01 10  2  0 50 30.0020000  0  9G13G 7G10G28G 8G27G11G 2G31
   7181090.48646   5949906.31046  23682227.5104   23682236.6434
     -4441.5784
  -1857890.85143  -1292308.67445  24951036.0254   24951054.5334
      2525.7034
   3179068.71845   5047954.54945  25048207.6744   25048220.6504
     -2694.7034
 -14333961.40848 -10892327.83347  21643173.9394   21643179.8694
       -67.6254
 -15201792.60548 -11715867.72147  20933316.9554   20933323.0144
      -316.1564
  -8894598.02648  -6814988.16147  21476039.1504   21476045.3034
     -1565.6254
   -100245.48843    -22498.26745  25781418.4944   25781431.5764
      1200.9694
  -9367553.27147  -2797882.17646  22665098.5184   22665105.9394
       361.1884
  -2338760.79346  -1691959.88146  23386710.1504   23386719.1314
     -3451.9534
 01 10  2  0 50 45.0020000  0  9G13G 7G10G28G 8G27G11G 2G31
   7247747.17246   6001846.49945  23694911.4554   23694920.3184
     -4445.9844
  -1895763.78544  -1321819.86545  24943831.2134   24943845.7484
      2524.0474
   3219538.74445   5079489.57245  25055908.7294   25055921.2364
     -2701.2974
 -14332900.68848 -10891501.27047  21643375.8544   21643381.5964
       -73.7974
 -15197007.10848 -11712138.75547  20934227.5884   20934233.5644
      -321.8914
  -8871068.28548  -6796653.30447  21480516.7754   21480522.7644
     -1571.6724
   -118243.11443    -36522.36445  25777993.1974   25778000.9714
      1198.7344
  -9372937.77547  -2802077.85046  22664073.7444   22664081.0254
       356.7504
  -2286918.32646  -1651563.15646  23396574.9474   23396581.3814
     -3460.3594
 01 10  2  0 51  0.0020000  0  9G13G 7G10G28G 8G27G11G 2G31
   7314466.97246   6053835.84946  23707608.6194   23707617.4244
     -4449.8444
  -1933614.43545  -1351313.62045  24936629.7604   24936648.0684
      2522.8594
   3260104.58545   5111099.21645  25063629.2054   25063643.4364
     -2707.3444
 -14331750.49248 -10890604.98947  21643594.7214   21643600.5334
       -79.4224
 -15192138.55448 -11708345.05747  20935154.1894   20935160.2134
      -327.1254
  -8847450.89448  -6778250.14347  21485010.9554   21485017.0144
     -1577.1724
   -136209.86644    -50522.27645  25774574.2834   25774588.4084
      1196.9844
  -9378258.60447  -2806223.91146  22663061.3224   22663068.5334
       352.8444
  -2234953.00546  -1611070.67146  23406463.6744   23406470.6744
     -3468.2034
 01 10  2  0 51 15.0020000  0  9G13G 7G10G28G 8G27G11G 2G31
   7381257.71446   6105880.50245  23720319.8934   23720328.8144
     -4454.8284
  -1971434.24344  -1380783.51545  24929432.2994   24929450.2094
      2520.5164
   3300774.15745   5142789.73745  25071368.0574   25071383.1544
     -2714.5164
 -14330502.75948 -10889632.70147  21643832.2054   21643837.9944
       -86.1874
 -15187178.32148 -11704479.92647  20936097.9474   20936103.9824
      -333.4844
  -8823737.49448  -6759772.17447  21489523.5804   21489529.6274
     -1583.8594
   -154137.29943    -64491.64545  25771162.5644   25771178.1544
      1194.0784
  -9383507.56547  -2810313.96246  22662062.4634   22662069.8734
       347.7814
  -2182856.92746  -1570476.38046  23416375.9944   23416385.1394
     -3477.1874
 01 10  2  0 51 30.0020000  0  9G13G 7G10G28G 8G27G11G 2G31
   7448114.27646   6157976.43146  23733041.5414   23733050.5104
     -4459.1414
  -2009227.66743  -1410232.77345  24922238.6974   24922257.5454
      2518.8284
   3341542.13345   5174556.90645  25079125.3774   25079139.9004
     -2720.9844
 -14329162.42648 -10888588.25547  21644087.1194   21644093.0024
       -92.2974
 -15182131.34848 -11700547.21147  20937058.4944   20937064.5414
      -339.2194
  -8799932.90448  -6741223.14247  21494053.4324   21494059.4204
     -1589.8594
   -172029.79043    -78433.68945  25767758.0414   25767772.0724
      1191.7974
  -9388689.65147  -2814351.90746  22661076.2524   22661083.7094
       343.3914
  -2130635.33746  -1529784.24146  23426315.4164   23426321.6504
     -3485.4694
 01 10  2  0 51 45.0020000  0  9G13G 7G10G28G 8G27G11G 2G31
   7515040.20746   6210126.42445  23745777.5644   23745785.9124
     -4463.8594
  -2046990.67244  -1439658.28445  24915052.6894   24915069.9674
      2516.6564
   3382412.06245   5206403.58545  25086902.6974   25086916.9984
     -2727.8914
 -14327725.62248 -10887468.64447  21644360.4864   21644366.2404
       -98.8284
 -15176993.41948 -11696543.61947  20938036.1044   20938042.0684
      -345.4064
  -8776033.16148  -6722599.97347  21498601.4164   21498607.4634
     -1596.3284
   -189883.23143    -92345.31845  25764360.4324   25764374.3814
      1189.0784
  -9393801.00547  -2818334.72946  22660103.4794   22660110.7364
       338.5634
  -2078284.70046  -1488991.52746  23436276.5024   23436285.3074
     -3494.1724
 01 10  2  0 52  0.0020000  0  9G13G 7G10G28G 8G27G11G 2G31
   7582035.05546   6262330.12946  23758525.7524   23758535.2134
     -4468.6874
  -2084723.18844  -1469060.03545  24907872.6664   24907888.7954
      2514.3754
   3423383.39545   5238329.16145  25094698.4714   25094713.4864
     -2734.8914
 -14326192.55848 -10886274.02847  21644652.2914   21644658.2214
      -105.5004
 -15171764.81248 -11692469.36547  20939031.1504   20939037.1744
      -351.6724
  -8752038.34948  -6703902.72547  21503167.4324   21503173.5724
     -1602.9064
   -207697.38143   -106226.37445  25760969.3384   25760988.3384
      1186.2344
  -9398841.88847  -2822262.64646  22659144.5414   22659151.9394
       333.6254
  -2025805.48846  -1448098.66146  23446262.7604   23446270.2994
     -3502.9844
 01 10  2  0 52 15.0020000  0  9G13G 7G10G28G 8G27G11G 2G31
   7649097.01646   6314586.10345  23771287.3934   23771297.2644
     -4472.9064
  -2122426.27344  -1498438.97845  24900697.1504   24900716.1624
      2512.6564
   3464454.36745   5270332.49645  25102515.1354   25102529.9864
     -2741.2664
 -14324564.75248 -10885005.57947  21644962.0024   21644967.8264
      -111.5474
 -15166446.86648 -11688325.50447  20940042.9944   20940048.9594
      -357.3914
  -8727949.80248  -6685132.43347  21507751.2524   21507757.2054
     -1608.9064
   -225473.35543   -120077.69845  25757587.3224   25757599.4084
      1183.9064
  -9403813.75847  -2826136.78746  22658198.1974   22658205.6784
       329.2814
  -1973199.49546  -1407106.96146  23456272.4084   23456279.3614
     -3511.1724
 01 10  2  0 52 30.0020000  0  9G13G 7G10G28G 8G27G11G 2G31
   7716220.55446   6366890.08946  23784060.8144   23784070.5924
     -4476.5944
  -2160104.96345  -1527798.78245  24893528.9324   24893545.6354
      2511.4534
   3505619.39045   5302409.04145  25110348.3854   25110365.4754
     -2747.1254
 -14322847.51048 -10883667.45047  21645288.5414   21645294.4474
      -117.0944
 -15161044.51248 -11684115.86747  20941071.0104   20941077.0334
      -362.6254
  -8703772.68448  -6666293.12347  21512352.1354   21512358.1354
     -1614.4064
   -243216.19843   -133903.24545  25754210.3224   25754217.1824
      1182.0944
  -9408721.89347  -2829961.25846  22657264.0494   22657271.3304
       325.4384
  -1920472.27546  -1366020.86246  23466306.5724   23466315.4244
     -3518.8284
 01 10  2  0 52 45.0020000  0  9G13G 7G10G28G 8G27G11G 2G31
   7783408.85746   6419244.52245  23796846.1434   23796855.6624
     -4481.5004
  -2197755.45844  -1557136.68745  24886363.5414   24886378.8264
      2508.9694
   3546881.59545   5334561.35945  25118200.6744   25118215.5964
     -2754.1724
 -14321037.53548 -10882257.05847  21645633.0414   21645638.9824
      -123.8754
 -15155554.06348 -11679837.58447  20942115.8544   20942121.9824
      -369.0784
  -8679503.38548  -6647381.98747  21516970.4714   21516976.4594
     -1621.1414
   -260922.00743   -147699.89844  25750841.0254   25750859.1004
      1179.0164
  -9413562.89547  -2833733.41546  22656342.9714   22656350.1824
       320.3914
  -1867620.70546  -1324837.80746  23476364.9714   23476371.2524
     -3527.6874
 01 10  2  0 53  0.0020000  0  9G13G 7G10G28G 8G27G11G 2G31
   7850663.64046   6471650.76045  23809645.3144   23809654.8344
     -4486.1874
  -2235375.41443  -1586450.82445  24879202.6044   24879220.4674
      2506.6724
   3588242.64845   5366790.67345  25126071.4864   25126088.1314
     -2761.0164
 -14319132.91348 -10880772.90847  21645995.4634   21646001.2994
      -130.4534
 -15149973.51548 -11675489.09347  20943177.6584   20943183.6004
      -375.3594
  -8655139.80248  -6628397.38147  21521606.6434   21521612.6664
     -1627.7034
   -278588.34043   -161465.78745  25747479.8934   25747492.1074
      1176.1254
  -9418334.83847  -2837451.76646  22655434.7914   22655442.0374
       315.5164
  -1814642.94146  -1283556.43846  23486445.7444   23486455.3114
     -3536.3594
 01 10  2  0 53 15.0020000  0  9G13G 7G10G28G 8G27G11G 2G31
   7917985.92146   6524109.58945  23822455.1274   23822464.9514
     -4490.3594
  -2272963.21944  -1615739.82945  24872050.2834   24872064.4674
      2504.8284
   3629703.66945   5399097.85745  25133960.8384   25133975.3384
     -2767.3444
 -14317132.26048 -10879213.94847  21646376.2834   21646382.1544
      -136.5474
 -15144301.38948 -11671069.24647  20944257.1974   20944263.2214
      -381.1564
  -8630680.53248  -6609338.21847  21526260.9164   21526266.8814
     -1633.7814
   -296213.57843   -175199.58145  25744125.1044   25744139.3814
      1173.6564
  -9423036.40247  -2841115.27546  22654540.1434   22654547.6704
       311.1254
  -1761538.12546  -1242176.12946  23496551.5964   23496561.8774
     -3544.5164
 01 10  2  0 53 30.0020000  0  9G13G 7G10G28G 8G27G11G 2G31
   7985369.60146   6576616.27945  23835277.3614   23835286.8694
     -4494.4534
  -2310524.30145  -1645008.08745  24864903.9324   24864918.1394
      2503.0164
   3671258.64845   5431478.29745  25141868.6584   25141884.4824
     -2773.6094
 -14315041.33048 -10877584.62547  21646774.1744   21646780.1274
      -142.5624
 -15138543.35348 -11666582.45747  20945352.9084   20945358.9904
      -386.9064
  -8606131.17048  -6590208.84747  21530932.6664   21530938.7954
     -1639.7974
   -313803.00643   -188905.50545  25740777.8224   25740790.2134
      1171.2664
  -9427673.38047  -2844728.45746  22653657.4394   22653664.9794
       306.8134
  -1708312.23146  -1200701.42945  23506679.4944   23506686.4714
     -3552.5784
 01 10  2  0 53 45.0020000  0  9G13G 7G10G28G 8G27G11G 2G31
   8052818.63746   6629173.89245  23848112.8074   23848122.5254
     -4498.4064
  -2348054.14344  -1674251.96745  24857762.1584   24857777.3504
      2501.2974
   3712911.43244   5463934.87845  25149793.8384   25149808.5724
     -2779.7344
 -14312855.98648 -10875881.74647  21647190.0334   21647195.8574
      -148.4694
 -15132694.91448 -11662025.21647  20946465.7054   20946471.7054
      -392.5474
  -8581487.34248  -6571005.87047  21535622.0724   21535628.0844
     -1645.7034
   -331351.95943   -202579.94745  25737438.6274   25737449.6824
      1168.9694
  -9432241.58547  -2848288.04046  22652787.9864   22652795.5494
       302.6414
  -1654961.38446  -1159129.30146  23516832.1194   23516840.1044
     -3560.5164
 01 10  2  0 54  0.0020000  0  9G13G 7G10G28G 8G27G11G 2G31
   8120328.64446   6681779.02246  23860958.9474   23860968.8074
     -4503.0314
  -2385556.59144  -1703474.54545  24850625.8854   24850642.2714
      2498.9224
   3754657.43545   5496464.17745  25157738.7054   25157749.7604
     -2786.5004
 -14310580.44748 -10874108.57647  21647623.1044   21647628.8464
      -155.0314
 -15126760.16148 -11657400.72547  20947595.1974   20947601.2094
      -398.8754
  -8556753.17148  -6551732.49747  21540329.1194   21540335.1074
     -1652.2974
   -348864.49143   -216225.92345  25734106.2524   25734118.9474
      1165.9384
  -9436745.31847  -2851797.38846  22651931.1274   22651938.5724
       297.7664
  -1601490.05046  -1117463.38946  23527008.1504   23527016.7214
     -3569.0944
 01 10  2  0 54 15.0020000  0  9G13G 7G10G28G 8G27G11G 2G31
   8187902.66846   6734434.00245  23873818.7444   23873827.9944
     -4507.2814
  -2423027.82244  -1732672.70445  24843494.3074   24843510.2834
      2496.8284
   3796499.80445   5529068.54545  25165701.5414   25165713.3344
     -2792.9064
 -14308211.20448 -10872262.39247  21648073.8544   21648079.6894
      -161.2814
 -15120735.27248 -11652705.99547  20948741.6744   20948747.6864
      -404.8754
  -8531925.00348  -6532385.88047  21545053.5644   21545059.6234
     -1658.5624
   -366336.48443   -229840.33845  25730781.6274   25730794.7794
      1163.2194
  -9441180.98247  -2855253.70246  22651087.1114   22651094.6624
       293.2344
  -1547895.00646  -1075700.99246  23537206.1434   23537212.4714
     -3577.3444
 01 10  2  0 54 30.0020000  0  9G13G 7G10G28G 8G27G11G 2G31
   8255535.60946   6787134.90245  23886688.5254   23886697.9864
     -4511.1254
  -2460472.35144  -1761850.12945  24836368.8934   24836387.0254
      2495.1094
   3838433.41845   5561744.02345  25173681.8074   25173696.8814
     -2798.8914
 -14305753.04848 -10870346.92947  21648541.7684   21648547.4284
      -167.1254
 -15114625.04148 -11647944.76447  20949904.2444   20949910.3144
      -410.4844
  -8507007.50748  -6512969.65547  21549795.3464   21549801.4284
     -1664.4374
   -383772.42044   -243426.68545  25727463.3614   25727474.8734
      1160.9064
  -9445553.35347  -2858660.69246  22650255.0724   22650262.4004
       289.0944
  -1494181.37346  -1033846.26046  23547427.2294   23547436.6894
     -3585.1414
 01 10  2  0 54 45.0020000  0  9G13G 7G10G28G 8G27G11G 2G31
   8323233.49446   6839886.42445  23899572.6044   23899582.1824
     -4515.5624
  -2497883.63445  -1791001.66845  24829250.6194   24829267.2174
      2492.7664
   3880464.24345   5594495.24445  25181680.1824   25181695.1044
     -2805.5164
 -14303199.96648 -10868357.49747  21649027.4474   21649033.2484
      -173.5784
 -15108423.13248 -11643112.09547  20951084.5414   20951090.6114
      -416.7344
  -8481994.38848  -6493478.92547  21554555.0964   21554561.0614
     -1670.9374
   -401165.94044   -256979.98345  25724152.8694   25724165.6824
      1157.9224
  -9449856.36447  -2862013.64146  22649436.1974   22649443.3144
       284.3444
  -1440343.36146   -991894.60046  23557672.1824   23557680.6234
     -3593.5624
 01 10  2  0 55  0.0020000  0  9G13G 7G10G28G 8G27G11G 2G31
   8390992.21846   6892685.35045  23912466.0184   23912474.4714
     -4519.0944
  -2535265.21245  -1820130.02545  24822136.4554   24822152.7604
      2491.2664
   3922588.12445   5627318.98045  25189696.2994   25189709.8614
     -2811.1724
 -14300555.87048 -10866297.14447  21649530.5964   21649536.2564
      -179.1254
 -15102133.12148 -11638210.77647  20952281.4554   20952287.4324
      -422.0784
  -8456889.37948  -6473916.58347  21559332.5494   21559338.6434
     -1676.5624
   -418520.42644   -270502.84245  25720851.1354   25720860.7484
      1155.8284
  -9454093.89747  -2865315.55846  22648629.5644   22648636.8574
       280.5004
  -1386385.14246   -949849.17346  23567939.4474   23567947.1274
     -3601.0474
 01 10  2  0 55 15.0020000  0  9G13G 7G10G28G 8G27G11G 2G31
   8458811.91746   6945531.78045  23925372.0254   23925381.2874
     -4523.7974
  -2572616.39345  -1849234.72045  24815028.1664   24815045.4434
      2488.6254
   3964805.07545   5660215.25345  25197729.1114   25197746.2014
     -2818.0314
 -14297820.31448 -10864165.52447  21650051.0574   21650056.6704
      -185.8594
 -15095754.49548 -11633240.40847  20953495.2604   20953501.2484
      -428.6414
  -8431691.91948  -6454282.20347  21564127.4084   21564133.4324
     -1683.3594
   -435835.03144   -283994.66945  25717556.4164   25717568.7254
      1152.5314
  -9458265.56947  -2868566.15946  22647835.7914   22647843.0374
       275.4694
  -1332306.55246   -907710.07246  23578231.2444   23578240.0494
     -3609.7034
 01 10  2  0 55 30.0020000  0  9G13G 7G10G28G 8G27G11G 2G31
   8526693.94246   6998426.77045  23938289.5884   23938298.2994
     -4527.4064
  -2609935.20445  -1878314.14045  24807927.0574   24807940.6544
      2486.9534
   4007116.42444   5693185.03045  25205781.2684   25205797.0804
     -2823.7974
 -14294991.64448 -10861961.34747  21650589.2214   21650594.8574
      -191.5624
 -15089285.42148 -11628199.55947  20954726.2754   20954732.1824
      -434.1724
  -8406400.32448  -6434574.47847  21568940.2684   21568946.3964
     -1689.1414
   -453107.77144   -297453.87845  25714269.1894   25714282.6004
      1150.2344
  -9462369.78547  -2871764.19946  22647054.9794   22647062.0254
       271.4844
  -1278106.21446   -865476.04946  23588544.2444   23588553.5414
     -3617.2974
 01 10  2  0 55 45.0020000  0  9G13G 7G10G28G 8G27G11G 2G31
   8594642.26046   7051373.43245  23951218.3224   23951227.7014
     -4532.1874
  -2647216.86445  -1907364.64045  24800832.9164   24800848.5294
      2484.1094
   4049526.36544   5726231.60145  25213850.8304   25213865.6934
     -2830.7034
 -14292065.65248 -10859681.33747  21651146.3774   21651151.9434
      -198.3914
 -15082721.42948 -11623084.75047  20955975.2834   20955981.2134
      -440.8444
  -8381010.04448  -6414789.85047  21573771.6664   21573777.6894
     -1696.0624
   -470333.83843   -310876.68245  25710990.0494   25711001.8184
      1146.7664
  -9466402.15847  -2874906.25846  22646287.5724   22646294.4674
       266.3444
  -1223779.97746   -823143.92346  23598884.1194   23598892.3264
     -3626.0164
 01 10  2  0 56  0.0020000  0  9G13G 7G10G28G 8G27G11G 2G31
   8662650.67146   7104366.88945  23964161.8304   23964171.1864
     -4535.6094
  -2684467.22645  -1936390.77345  24793744.6504   24793759.8894
      2482.5634
   4092028.49145   5759350.06945  25221939.0574   25221953.2524
     -2836.2664
 -14289048.34548 -10857330.17447  21651720.4004   21651725.9084
      -203.9224
 -15076068.35248 -11617900.52947  20957241.2754   20957247.2524
      -446.2504
  -8355527.01748  -6394932.95447  21578621.1274   21578627.2564
     -1701.6874
   -487518.97643   -324267.58445  25707719.5184   25707732.9164
      1144.5784
  -9470368.74347  -2877997.05746  22645532.7214   22645539.8384
       262.5164
  -1169334.15046   -780718.64546  23609245.1044   23609253.2404
     -3633.4064
 01 10  2  0 56 15.0020000  0  9G13G 7G10G28G 8G27G11G 2G31
   8730716.49446   7157405.13445  23977112.9944   23977123.0064
     -4539.3754
  -2721688.17045  -1965393.98645  24786661.2214   24786676.3304
      2480.6884
   4134620.12945   5792538.25045  25230044.9634   25230059.1464
     -2842.1564
 -14285942.04948 -10854909.67047  21652311.4324   21652317.1394
      -209.7814
 -15069328.29248 -11612648.52647  20958523.7914   20958529.8144
      -451.9694
  -8329953.33348  -6375005.41947  21583487.5334   21583493.5804
     -1707.6724
   -504664.98044   -337627.92145  25704458.0024   25704470.3934
      1142.0314
  -9474271.83947  -2881038.38246  22644789.8224   22644796.8814
       258.3594
  -1114771.48846   -738202.27346  23619627.9324   23619635.5884
     -3641.1254
 01 10  2  0 56 30.0020000  0  9G13G 7G10G28G 8G27G11G 2G31
   8798841.59746   7210489.53045  23990077.8614   23990087.2874
     -4543.8124
  -2758877.30945  -1994372.38245  24779583.7684   24779599.8854
      2478.0314
   4177303.02745   5825797.60345  25238167.1664   25238179.7914
     -2848.7344
 -14282744.80748 -10852418.29747  21652920.0254   21652925.8034
      -216.3594
 -15062499.10848 -11607327.07147  20959823.4794   20959829.4904
      -458.4374
  -8304286.85848  -6355005.57847  21588371.7834   21588377.8184
     -1714.3754
   -521769.41345   -350955.97545  25701203.4394   25701215.0924
      1138.7194
  -9478109.42047  -2884028.65846  22644059.4634   22644066.4754
       253.4844
  -1060090.21046   -695593.46746  23630033.0644   23630041.6934
     -3649.5314
 01 10  2  0 56 45.0020000  0  9G13G 7G10G28G 8G27G11G 2G31
   8867032.29146   7263625.04745  24003053.7604   24003061.0414
     -4547.9224
  -2796027.66545  -2023320.56745  24772515.3304   24772529.9244
      2475.7194
   4220083.48045   5859132.98845  25246307.8464   25246321.3264
     -2854.9694
 -14279449.94148 -10849850.84747  21653546.6504   21653552.3224
      -222.5944
 -15055573.72948 -11601930.66547  20961141.4634   20961147.4164
      -464.5784
  -8278520.80348  -6334928.13647  21593274.8614   21593281.0024
     -1720.7504
   -538825.32345   -364246.25645  25697957.3614   25697965.7214
      1135.7504
  -9481874.84847  -2886962.71346  22643342.9944   22643349.9944
       248.9384
  -1005283.88345   -652887.26045  23640460.1584   23640469.2684
     -3657.6094
 01 10  2  0 57  0.0020000  0  9G13G 7G10G28G 8G27G11G 2G31
   8935283.37946   7316807.65045  24016041.8464   24016052.1864
     -4552.1564
  -2833143.95045  -2052242.22645  24765451.7364   24765465.1584
      2473.1884
   4262956.38344   5892540.33145  25254465.8144   25254480.5964
     -2861.3444
 -14276062.42948 -10847211.21047  21654191.2914   21654196.9864
      -229.0004
 -15048557.11048 -11596463.15647  20962476.5334   20962482.5924
      -470.9064
  -8252660.01848  -6314776.87747  21598196.1664   21598202.1194
     -1727.2974
   -555837.27344   -377502.16945  25694719.9474   25694736.2644
      1132.5944
  -9485573.17447  -2889844.47346  22642639.0334   22642646.1864
       244.2344
   -950357.81346   -610087.71546  23650912.5024   23650920.2404
     -3665.7974
 01 10  2  0 57 15.0020000  0  9G13G 7G10G28G 8G27G11G 2G31
   9003591.19746   7370034.40945  24029041.0804   24029051.4434
     -4555.7814
  -2870229.10645  -2081139.61645  24758394.3854   24758409.8114
      2471.2504
   4305918.09244   5926016.85945  25262640.9634   25262654.2214
     -2867.1094
 -14272585.62148 -10844501.99547  21654852.9554   21654858.7214
      -234.8124
 -15041452.56248 -11590927.13847  20963828.5644   20963834.5064
      -476.6564
  -8226707.70348  -6294554.30647  21603134.5414   21603140.5764
     -1733.2664
   -572808.24045   -390726.14145  25691490.2754   25691505.2324
      1129.9694
  -9489207.71747  -2892676.54346  22641947.6664   22641954.7364
       240.1254
   -895315.60246   -567197.69746  23661387.5334   23661395.2014
     -3673.3914
 01 10  2  0 57 30.0020000  0  9G13G 7G10G28G 8G27G11G 2G31
   9071954.86046   7423304.69545  24042049.8144   24042060.0024
     -4559.9844
  -2907283.48244  -2110013.03545  24751341.7754   24751357.4004
      2468.7034
   4348967.51244   5959561.79745  25270833.2294   25270848.8654
     -2873.4224
 -14269020.30748 -10841723.81347  21655531.3854   21655537.1394
      -241.1874
 -15034260.36648 -11585322.81547  20965197.1894   20965203.2364
      -482.9694
  -8200664.41748  -6274260.84247  21608090.6824   21608096.6004
     -1739.8124
   -589738.44145   -403918.47345  25688268.2524   25688282.1544
      1126.7664
  -9492779.19647  -2895459.47346  22641267.7214   22641274.7564
       235.4534
   -840158.28846   -524218.04145  23671887.2684   23671894.3504
     -3681.5164
 01 10  2  0 57 45.0020000  0  9G13G 7G10G28G 8G27G11G 2G31
   9140385.00546   7476626.81745  24055070.5184   24055082.6154
     -4564.2814
  -2944295.79243  -2138853.64545  24744297.1894   24744313.5884
      2466.0164
   4392115.31744   5993183.36145  25279043.8934   25279059.6584
     -2879.8594
 -14265355.55448 -10838868.14447  21656228.7754   21656234.5184
      -247.6874
 -15026969.50148 -11579641.61247  20966584.5884   20966590.6354
      -489.4224
  -8174519.07948  -6253887.85447  21613065.6894   21613071.8654
     -1746.4844
   -606616.55943   -417070.13345  25685056.4474   25685069.2834
      1123.4064
  -9496276.64347  -2898184.70946  22640602.3694   22640609.3574
       230.6414
   -784875.17746   -481140.22145  23682404.9714   23682413.0964
     -3689.7974
 01 10  2  0 58  0.0020000  0  9G13G 7G10G28G 8G27G11G 2G31
   9208875.58946   7529996.02645  24068104.8304   24068114.8184
     -4568.3124
  -2981271.51643  -2167665.73545  24737260.5414   24737276.5294
      2463.5784
   4435355.35145   6026876.83745  25287272.8224   25287285.6934
     -2885.9844
 -14261597.26648 -10835939.58947  21656944.0024   21656949.5684
      -253.9374
 -15019585.60648 -11573887.91347  20967989.6584   20967995.7294
      -495.6414
  -8148277.40848  -6233439.80447  21618059.2524   21618065.2994
     -1752.9224
   -623447.99344   -430185.43945  25681853.7134   25681863.9364
      1120.2664
  -9499705.94447  -2900856.84946  22639949.4554   22639956.3854
       226.0944
   -729472.36146   -437969.21746  23692947.8774   23692957.3734
     -3697.7504
 01 10  2  0 58 15.0020000  0  9G13G 7G10G28G 8G27G11G 2G31
   9277423.25646   7583409.69045  24081148.7524   24081158.6114
     -4571.9374
  -3018213.39744  -2196451.48345  24730230.9084   24730248.5494
      2461.4384
   4478684.24945   6060639.49545  25295518.2604   25295532.3264
     -2891.7664
 -14257748.43048 -10832940.47847  21657676.2604   21657682.0374
      -259.8124
 -15012111.56648 -11568063.97547  20969411.8224   20969417.8934
      -501.4694
  -8121942.29348  -6212918.94247  21623070.7294   21623076.9514
     -1759.0004
   -640235.48945   -443266.49545  25678658.7914   25678672.4124
      1117.5004
  -9503070.11547  -2903478.24446  22639309.2444   22639316.2564
       221.9064
   -673953.28845   -394707.58646  23703509.8694   23703518.4044
     -3705.3594
 01 10  2  0 58 30.0020000  0  9G13G 7G10G28G 8G27G11G 2G31
   9346027.86746   7636867.72945  24094205.2214   24094214.5644
     -4575.3284
  -3055121.01944  -2225210.48845  24723208.1584   24723223.3384
      2459.5474
   4522101.78045   6094471.28345  25303780.4084   25303794.1704
     -2897.2664
 -14253808.96048 -10829870.74447  21658426.0964   21658431.8734
      -265.4534
 -15004547.05548 -11562169.54347  20970851.3694   20970857.3344
      -507.1254
  -8095513.47548  -6192325.06247  21628099.9714   21628106.1234
     -1764.8594
   -656978.46544   -456312.88145  25675472.3854   25675482.1624
      1114.9064
  -9506369.04347  -2906048.79246  22638681.4864   22638688.6274
       217.9534
   -618318.00046   -351355.43446  23714098.2834   23714107.7684
     -3712.7034
 01 10  2  0 58 45.0030000  0  9G13G 7G10G28G 8G27G11G 2G31
   9414692.22146   7690372.37145  24107271.5934   24107281.1014
     -4579.3914
  -3091997.69944  -2253945.43245  24716190.7104   24716208.3394
      2456.9384
   4565609.42544   6128373.23345  25312058.8354   25312076.3234
     -2903.4694
 -14249779.98348 -10826731.26447  21659192.7494   21659198.4094
      -271.7974
 -14996892.60748 -11556205.02647  20972307.9834   20972314.0654
      -513.4694
  -8068990.34748  -6171657.69347  21633147.1634   21633153.3154
     -1771.4224
   -673678.93144   -469326.10945  25672294.3744   25672306.4014
      1111.5784
  -9509604.20347  -2908569.65146  22638066.0934   22638073.1404
       213.2974
   -562564.43546   -307911.15746  23724709.6324   23724717.9564
     -3720.7034
 01 10  2  0 59  0.0030000  0  9G13G 7G10G28G 8G27G11G 2G31
   9483405.96845   7743915.43245  24120344.7964   24120354.3974
     -4582.4844
  -3128839.39744  -2282653.03845  24709179.3824   24709192.5464
      2455.2814
   4609199.79344   6162339.71545  25320353.9374   25320369.5734
     -2908.6564
 -14245663.15848 -10823523.33147  21659976.1554   21659981.7924
      -277.1564
 -14989150.33848 -11550172.08047  20973781.2184   20973787.2184
      -518.8594
  -8042377.47048  -6150920.38747  21638211.6164   21638217.6404
     -1777.0164
   -690335.35844   -482305.02645  25669125.2264   25669137.3004
      1109.2194
  -9512776.43747  -2911041.48346  22637462.3974   22637469.2804
       209.6254
   -506701.42446   -264381.49645  23735338.4294   23735346.3904
     -3727.7194
 01 10  2  0 59 15.0030000  0  9G13G 7G10G28G 8G27G11G 2G31
   9552173.44445   7797500.40045  24133431.8194   24133442.4994
     -4586.0164
  -3165648.26944  -2311335.14045  24702174.7724   24702190.1164
      2453.1254
   4652875.48045   6196372.64645  25328666.1244   25328678.5154
     -2914.2814
 -14241458.25048 -10820246.76347  21660776.1244   21660781.7844
      -283.0004
 -14981319.60348 -11544070.19947  20975271.3904   20975277.4134
      -524.7344
  -8015673.02448  -6130111.73747  21643293.1944   21643299.2764
     -1783.0784
   -706948.58645   -495250.27045  25665964.2104   25665975.1474
      1106.3754
  -9515886.03247  -2913464.50646  22636870.6554   22636877.5854
       205.4844
   -450725.76546   -220764.04046  23745991.9214   23745998.8744
     -3735.1874
 01 10  2  0 59 30.0030000  0  9G13G 7G10G28G 8G27G11G 2G31
   9620997.92246   7851129.75145  24146530.0694   24146539.2844
     -4590.3444
  -3202420.36844  -2339988.57145  24695177.7804   24695192.1984
      2450.0784
   4696639.78945   6230474.59945  25336993.8974   25337008.6794
     -2920.7034
 -14237161.75048 -10816898.82447  21661593.7334   21661599.3824
      -289.6254
 -14973396.48148 -11537896.32547  20976778.8744   20976784.9094
      -531.4224
  -7988873.24648  -6109228.79247  21648393.2574   21648399.3624
     -1789.9694
   -723514.73144   -508158.89745  25662811.7024   25662820.7884
      1102.6884
  -9518929.29747  -2915835.84146  22636291.4764   22636298.3944
       200.5164
   -394633.93945   -177056.17446  23756662.7264   23756672.2804
     -3743.4844
 01 10  2  0 59 45.0030000  0  9G13G 7G10G28G 8G27G11G 2G31
   9689880.23646   7904804.19245  24159637.7574   24159647.6164
     -4593.9694
  -3239154.30345  -2368612.20945  24688187.4214   24688203.7494
      2447.7504
   4740493.53745   6264646.26545  25345339.2264   25345353.8434
     -2926.4694
 -14232772.58348 -10813478.67047  21662429.1014   21662434.7374
      -295.6094
 -14965379.88248 -11531649.60847  20978304.3744   20978310.4094
      -537.4694
  -7961976.88148  -6088270.58547  21653511.2574   21653517.3394
     -1796.2194
   -740032.26745   -521029.55445  25659668.1404   25659680.0734
      1099.6254
  -9521905.17047  -2918154.67046  22635725.1324   22635732.0624
       196.2344
   -338425.22946   -133257.22045  23767362.5384   23767368.1984
     -3751.0314
 01 10  2  1  0  0.0030000  0  9G13G 7G10G28G 8G27G11G 2G31
   9758815.79946   7958520.11045  24172756.4214   24172765.8004
     -4598.0004
  -3275854.02044  -2397209.22745  24681202.9764   24681216.6794
      2445.0004
   4784432.09545   6298884.00645  25353700.7724   25353714.8744
     -2932.5944
 -14228295.04548 -10809989.67147  21663281.0694   21663286.8354
      -301.9844
 -14957273.69548 -11525333.08947  20979847.1874   20979853.0814
      -543.9374
  -7934988.03848  -6067240.32347  21658647.1404   21658653.3044
     -1802.8754
   -756504.90644   -533865.23445  25656532.5464   25656545.3124
      1096.1564
  -9524817.94147  -2920424.32746  22635170.7494   22635177.5584
       191.5474
   -282104.28245    -89370.69045  23778075.9374   23778084.4834
     -3759.0004
 01 10  2  1  0 15.0030000  0  9G13G 7G10G28G 8G27G11G 2G31
   9827813.19045   8012284.22745  24185883.5304   24185894.2804
     -4601.5944
  -3312510.22643  -2425772.34345  24674226.8824   24674242.2144
      2442.5944
   4828463.95045   6333194.44345  25362079.0224   25362093.5584
     -2938.2814
 -14223720.31048 -10806424.92547  21664151.8514   21664157.6044
      -307.9374
 -14949069.03048 -11518939.83247  20981408.3354   20981414.3004
      -549.9844
  -7907897.81048  -6046131.05847  21663802.1554   21663808.2964
     -1809.1094
   -772923.57543   -546658.89745  25653407.2184   25653421.2264
      1093.0784
  -9527658.85847  -2922637.99046  22634630.1084   22634637.2844
       187.2814
   -225662.40545    -45390.09045  23788818.4444   23788827.3314
     -3766.5314
 01 10  2  1  0 30.0030000  0  9G13G 7G10G28G 8G27G11G 2G31
   9896867.50146   8066092.67345  24199025.9834   24199036.3944
     -4605.4844
  -3349127.10944  -2454304.75445  24667260.0624   24667275.9094
      2439.8754
   4872584.44144   6367573.97145  25370474.6244   25370492.5934
     -2944.2664
 -14219052.90148 -10802787.95947  21665039.9054   21665045.4604
      -314.2194
 -14940770.22548 -11512473.22147  20982987.5544   20982993.5304
      -556.3594
  -7880710.48448  -6024946.13347  21668975.7884   21668981.7294
     -1815.7034
   -789292.18044   -559413.64045  25650293.2184   25650303.1594
      1089.6094
  -9530432.40447  -2924799.15946  22634102.2184   22634109.1124
       182.7034
   -169104.55146     -1318.97845  23799582.5464   23799588.1014
     -3774.3594
 01 10  2  1  0 45.0030000  0  9G13G 7G10G28G 8G27G11G 2G31
   9965983.01245   8119948.84545  24212177.7964   24212187.1874
     -4609.5784
  -3385699.94344  -2482802.87845  24660299.9134   24660315.1164
      2436.9224
   4916797.55744   6402025.70545  25378888.3354   25378902.6014
     -2950.4534
 -14214288.49248 -10799075.41747  21665946.3824   21665952.0304
      -320.6874
 -14932372.57548 -11505929.58247  20984585.6874   20984591.7574
      -562.9694
  -7853421.51348  -6003682.00247  21674168.6164   21674174.7104
     -1822.5004
   -805605.95045   -572125.43745  25647190.1164   25647203.2104
      1085.9064
  -9533134.09947  -2926904.34746  22633588.0934   22633595.0584
       177.8914
   -112426.33946     42845.83446  23810368.0694   23810378.0694
     -3782.3754
 01 10  2  1  1  0.0030000  0  9G13G 7G10G28G 8G27G11G 2G31
  10035158.98646   8173852.08745  24225342.2724   24225351.3004
     -4614.1254
  -3422228.96145  -2511266.86545  24653349.8434   24653364.8354
      2433.4064
   4961102.41945   6436548.93645  25387320.8584   25387339.0854
     -2957.1094
 -14209427.57948 -10795287.66947  21666871.2414   21666876.8904
      -327.6564
 -14923876.54348 -11499309.28847  20986202.3514   20986208.3154
      -570.0784
  -7826031.41348  -5982339.07047  21679380.7264   21679386.8314
     -1829.7814
   -821865.24244   -584794.84645  25644095.8274   25644107.7024
      1081.7344
  -9535764.53947  -2928954.00346  22633087.5224   22633094.4054
       172.5944
    -55628.94945     87103.52545  23821175.3824   23821183.0034
     -3790.8444
 01 10  2  1  1 15.0030000  0  9G13G 7G10G28G 8G27G11G 2G31
  10104384.04946   8227793.59445  24238515.3354   24238525.9914
     -4616.7974
  -3458724.79845  -2539704.96145  24646405.3824   24646419.9404
      2431.7814
   5005487.78645   6471134.87645  25395766.8194   25395782.2454
     -2961.8754
 -14204481.17248 -10791433.30947  21667812.6474   21667818.2264
      -332.7664
 -14915292.88348 -11492620.70647  20987835.6874   20987841.6984
      -575.3284
  -7798550.93648  -5960925.71347  21684610.1634   21684616.3154
     -1835.2194
   -838080.36245   -597429.91745  25641009.6244   25641018.3824
      1079.3444
  -9538334.62547  -2930956.63446  22632598.4294   22632605.3234
       169.1564
      1276.58945    131445.55145  23832001.4294   23832010.8434
     -3797.4844
 01 10  2  1  1 30.0030000  0  9G13G 7G10G28G 8G27G11G 2G31
  10173659.96045   8281774.73645  24251696.0154   24251705.7924
     -4619.9694
  -3495185.18745  -2568115.47945  24639466.1554   24639483.0464
      2429.6254
   5049955.20045   6505784.67345  25404228.3274   25404241.9134
     -2967.0784
 -14199447.40448 -10787510.86747  21668770.5304   21668776.0854
      -338.3594
 -14906619.59848 -11485862.29047  20989486.1404   20989492.1164
      -581.1094
  -7770978.08448  -5939440.37647  21689857.2654   21689863.2764
     -1841.1254
   -854249.13944   -610028.98545  25637932.5464   25637940.1794
      1076.5004
  -9540842.54247  -2932910.82246  22632121.4374   22632128.3314
       165.2664
     58291.82846    175872.95545  23842853.6474   23842861.4334
     -3804.5314
 01 10  2  1  1 45.0030000  0  9G13G 7G10G28G 8G27G11G 2G31
  10242988.84646   8335797.14445  24264891.9834   24264902.1244
     -4623.8754
  -3531607.28845  -2596496.12645  24632536.0384   24632550.6674
      2426.6564
   5094506.93645   6540500.22845  25412705.9604   25412722.0304
     -2973.1414
 -14194323.80448 -10783518.43447  21669745.5544   21669751.1444
      -344.7814
 -14897853.71748 -11479031.71847  20991154.2884   20991160.2764
      -587.6874
  -7743310.24448  -5917881.02047  21695122.0464   21695128.1284
     -1847.9064
   -870368.88244   -622589.51845  25634864.9684   25634877.6514
      1072.7814
  -9543285.83247  -2934814.65546  22631656.3514   22631663.1714
       160.5314
    115419.00345    220387.70045  23853723.1164   23853730.6794
     -3812.4374
 01 10  2  1  2  0.0030000  0  9G13G 7G10G28G 8G27G11G 2G31
  10312380.27545   8389868.28445  24278095.2494   24278104.1244
     -4628.5474
  -3567980.92745  -2624839.00445  24625615.3354   24625629.9054
      2422.8914
   5139152.51943   6575288.83945  25421201.0224   25421217.7024
     -2979.8594
 -14189100.51247 -10779448.31447  21670739.5304   21670745.0264
      -351.9064
 -14888985.42848 -11472121.35647  20992841.9444   20992847.9094
      -595.0004
  -7715537.37648  -5896239.82847  21700407.1084   21700413.1554
     -1855.4064
   -886429.00245   -635103.78445  25631809.1634   25631822.9134
      1068.3134
  -9545654.63047  -2936660.44646  22631205.5854   22631212.4564
       155.0784
    172667.68545    264996.98245  23864618.2574   23864628.1874
     -3820.9844
 01 10  2  1  2 15.0030000  0  9G13G 7G10G28G 8G27G11G 2G31
  10381828.66945   8443983.85245  24291311.3974   24291322.2534
     -4631.3754
  -3604311.13245  -2653148.05745  24618702.3124   24618717.2574
      2420.9694
   5183886.16844   6610146.15245  25429714.7024   25429728.2884
     -2984.7504
 -14183783.06947 -10775304.82947  21671751.2804   21671756.8704
      -357.2194
 -14880019.96948 -11465135.26847  20994548.0464   20994553.9644
      -600.5314
  -7687664.74348  -5874520.89547  21705710.9684   21705716.9914
     -1861.0784
   -902434.78743   -647575.79445  25628762.3514   25628772.3044
      1065.6414
  -9547954.28647  -2938452.35446  22630767.7884   22630774.6084
       151.4224
    230032.07946    309696.51945  23875537.4374   23875544.2804
     -3827.7194
 01 10  2  1  2 30.0030000  0  9G13G 7G10G28G 8G27G11G 2G31
  10451327.31646   8498138.52645  24304537.3584   24304548.8944
     -4635.1724
  -3640603.96745  -2681427.99345  24611794.9134   24611807.6674
      2418.0164
   5228701.27545   6645066.96045  25438242.7414   25438254.9444
     -2990.6414
 -14178377.82447 -10771092.93147  21672779.7184   21672785.3194
      -363.5474
 -14870963.48448 -11458078.25947  20996271.3974   20996277.3864
      -607.0624
  -7659698.58148  -5852729.08247  21711032.8904   21711038.9834
     -1867.7974
   -918392.05845   -660009.84745  25625726.4374   25625737.6794
      1061.9224
  -9550191.26747  -2940195.42646  22630342.2024   22630349.0464
       146.7814
    287505.59845    354481.13745  23886472.3354   23886480.8234
     -3835.4534
 01 10  2  1  2 45.0030000  0  9G13G 7G10G28G 8G27G11G 2G31
  10520878.06546   8552333.80445  24317772.8664   24317782.2804
     -4638.4534
  -3676857.05245  -2709676.94245  24604893.1084   24604907.2104
      2415.5474
   5273599.61745   6680052.67445  25446786.8664   25446800.3354
     -2996.0164
 -14172882.64547 -10766810.95447  21673825.6014   21673831.3664
      -369.3594
 -14861813.71148 -11450948.55347  20998012.4444   20998018.4794
      -613.1094
  -7631636.64648  -5830862.63347  21716372.8124   21716378.9054
     -1874.0004
   -934298.32343   -672404.25445  25622697.4134   25622710.2844
      1058.7194
  -9552363.41847  -2941887.98546  22629928.6324   22629935.2654
       142.6414
    345089.97045    399352.04345  23897427.7964   23897438.1014
     -3842.6724
 01 10  2  1  3  0.0030000  0  9G13G 7G10G28G 8G27G26G 2G31
  10590484.43846   8606572.46045  24331017.4604   24331026.8394
     -4641.9844
  -3713066.22844  -2737891.68845  24598002.0934   24598017.4374
      2412.7504
   5318584.60245   6715105.82245  25455346.9294   25455360.3154
     -3001.5624
 -14167293.88547 -10762456.05447  21674888.9834   21674894.6904
      -375.4224
 -14852566.62448 -11443743.02147  20999772.0854   20999778.1204
      -619.4224
  -7603475.13448  -5808918.59947  21721732.0224   21721738.1514
     -1880.4694
    -22718.42652                  25313809.2884
      2063.7814
  -9554467.09447  -2943527.18146  22629528.4374   22629535.2694
       138.2504
    402788.66945    444312.11045  23908406.6634   23908414.1444
     -3850.0944
 01 10  2  1  3 15.0030000  0  9G13G 7G10G28G 8G27G26G 2G31
  10660148.02946   8660855.66645  24344274.1554   24344283.6984
     -4645.8594
  -3749229.21445  -2766070.44345  24591121.2414   24591135.7884
      2409.5944
   5363657.88644   6750227.79545  25463924.2804   25463938.9914
     -3007.5624
 -14161609.64547 -10758026.75347  21675970.5384   21675976.2574
      -381.8594
 -14843220.27848 -11436460.14647  21001550.6714   21001556.7534
      -626.1414
  -7575211.98748  -5786895.36847  21727110.1714   21727116.1714
     -1887.3444
    -53629.85243                  25307927.1404
      2058.3444
  -9556500.33247  -2945111.49646  22629141.3824   22629148.3474
       133.4694
    460603.34146    489362.47146  23919413.1164   23919420.7264
     -3857.8914
 01 10  2  1  3 30.0030000  0  9G13G 7G10G28G 8G27G26G 2G31
  10729860.98745   8715177.38545  24357538.8824   24357549.1044
     -4648.6724
  -3785353.35745  -2794218.87545  24584247.2724   24584259.7924
      2407.4844
   5408811.52944   6785412.31645  25472516.9684   25472534.3514
     -3012.4064
 -14155837.61347 -10753529.04347  21677068.9684   21677074.4524
      -387.2194
 -14833781.92848 -11429105.57547  21003346.7184   21003352.7884
      -631.7814
  -7546854.68648  -5764798.77147  21732506.3354   21732512.4054
     -1893.1094
    -84468.73245                  25302060.6164
      2054.0164
  -9558470.74847  -2946646.85946  22628766.4134   22628773.1284
       129.7814
    518526.05145    534497.10445  23930432.4214   23930440.6164
     -3864.6094
 01 10  2  1  3 45.0030000  0  9G13G 7G10G28G 8G27G26G 2G31
  10799623.17545   8769537.42945  24370813.9604   24370823.4334
     -4652.7034
  -3821438.28644  -2822336.81745  24577380.1554   24577394.2454
      2404.0944
   5454045.30745   6820659.32345  25481125.3194   25481140.4054
     -3018.4844
 -14149977.77447 -10748962.90947  21678184.1324   21678189.5814
      -393.8284
 -14824251.58348 -11421679.31447  21005160.2494   21005166.2144
      -638.6874
  -7518403.05648  -5742628.66947  21737920.5074   21737926.5894
     -1900.1724
   -115234.80945                  25296206.3274
      2048.3914
  -9560378.28847  -2948133.22746  22628403.4914   22628410.3864
       124.8284
    576556.57245    579715.74345  23941476.1014   23941484.0154
     -3872.5314
 01 10  2  1  4  0.0030000  0  9G13G 7G10G28G 8G27G26G 2G31
  10869438.60345   8823938.97245  24384101.4444   24384111.7724
     -4656.0164
  -3857479.16445  -2850420.38245  24570524.6474   24570540.9054
      2401.3594
   5499363.27045   6855971.92745  25489749.1554   25489763.0114
     -3023.8914
 -14144025.64647 -10744324.86947  21679316.8664   21679322.3624
      -399.7664
 -14814624.39248 -11414177.59647  21006992.2884   21006998.2764
      -644.9224
  -7489852.54548  -5720381.52047  21743353.6404   21743359.7694
     -1906.5474
   -145923.28646    -19124.53255  25290366.0774   25290377.2494
      2043.4224
  -9562218.62247  -2949567.22246  22628053.1554   22628060.0734
       120.5784
    634698.86945    625021.41845  23952536.9444   23952546.1474
     -3879.8124
 01 10  2  1  4 15.0030000  0  9G13G 7G10G28G 8G27G26G 2G31
  10939304.22345   8878379.59145  24397396.7574   24397407.7534
     -4659.6874
  -3893478.45545  -2878471.58545  24563674.1244   24563686.9134
      2398.2194
   5544762.27844   6891347.80945  25498387.8434   25498399.1674
     -3029.6414
 -14137984.13547 -10739617.17647  21680466.3124   21680471.7724
      -406.0784
 -14804903.20048 -11406602.62947  21008841.9994   21008847.9874
      -651.5314
  -7461205.86048  -5698059.43147  21748804.8434   21748810.9834
     -1913.3124
   -176536.67445    -42979.19843  25284540.1244   25284544.8704
      2038.0634
  -9563994.58047  -2950951.06146  22627715.1474   22627721.9914
       115.9384
    692949.96846    670411.79745  23963626.2184   23963633.2294
     -3887.3284
 01 10  2  1  4 30.0030000  0  9G13G 7G10G28G 8G27G26G 2G31
  11009222.01645   8932860.91245  24410700.5624   24410710.6204
     -4662.5164
  -3929433.59545  -2906488.34745  24556830.2654   24556843.5114
      2395.9224
   5590244.34943   6926788.24245  25507041.7024   25507054.6324
     -3034.5164
 -14131850.94747 -10734838.04847  21681633.3434   21681638.7694
      -411.5164
 -14795085.49148 -11398952.45347  21010710.3664   21010716.3904
      -657.3444
  -7432460.53548  -5675660.47147  21754274.9054   21754280.9524
     -1919.2344
   -207072.26343                  25278728.8434
      2033.5314
  -9565703.78947  -2952282.88746  22627389.6794   22627396.2764
       112.1254
    751311.79046    715888.66945  23974731.8124   23974738.2804
     -3894.0624
 01 10  2  1  4 45.0030000  0  9G13G 7G10G28G 8G27G26G 2G31
  11079183.66545   8987376.38945  24424013.9604   24424023.9834
     -4665.5624
  -3965352.40845  -2934476.83845  24549994.0384   24550007.3904
      2393.4224
   5635801.06344   6962286.84945  25515712.1714   25515725.7454
     -3039.5624
 -14125634.19647 -10729993.80947  21682816.4914   21682821.9174
      -417.2034
 -14785178.88948 -11391233.01447  21012595.5154   21012601.5974
      -663.3594
  -7403624.57848  -5653190.89347  21759762.1474   21759768.2654
     -1925.3914
   -237537.70843                  25272931.8664
      2028.7344
  -9567354.34147  -2953569.00446  22627075.9214   22627082.6244
       108.1094
    809776.14645    761445.26845  23985855.2574   23985866.6404
     -3901.0004
 01 10  2  1  5  0.0030000  0  9G13G 7G10G28G 8G27G26G 2G31
  11149192.16145   9041928.35545  24437335.7724   24437347.2264
     -4668.8124
  -4001231.21645  -2962434.13645  24543167.1634   24543181.7104
      2390.5314
   5681435.40045   6997846.00645  25524396.6324   25524410.5224
     -3044.9064
 -14119330.58847 -10725081.88747  21684015.9374   21684021.3624
      -423.1724
 -14775180.25248 -11383441.85447  21014498.2104   21014504.1984
      -669.7034
  -7374694.59148  -5630648.04847  21765267.5074   21765273.5194
     -1931.8284
   -267929.53145                  25267148.6164
      2023.6094
  -9568943.07947  -2954806.95846  22626773.4914   22626780.3514
       103.8134
    868345.85346    807084.04445  23997002.7964   23997009.5224
     -3908.1724
 01 10  2  1  5 15.0030000  0  9G13G 7G10G28G 8G27G26G 2G31
  11219248.96445   9096517.95545  24450667.9054   24450678.5034
     -4672.3284
  -4037067.89244  -2990358.61045  24536346.0694   24536362.7144
      2387.4384
   5727148.81644   7033466.77645  25533095.4054   25533111.8394
     -3050.4534
 -14112938.53647 -10720101.04547  21685232.6324   21685238.2454
      -429.3594
 -14765087.67148 -11375577.48647  21016418.7884   21016424.7654
      -676.2344
  -7345668.72848  -5608030.48747  21770790.8514   21770796.9094
     -1938.5164
   -298245.47545                  25261379.7804
      2018.2664
  -9570468.22847  -2955995.35146  22626483.3044   22626489.9484
        99.2974
    927022.48345    852806.07445  24008166.4604   24008178.0194
     -3915.5784
 01 10  2  1  5 30.0030000  0  9G13G 7G10G28G 8G27G26G 2G31
  11289359.30646   9151149.30845  24464010.0304   24464021.1674
     -4675.8594
  -4072856.69545  -3018245.75845  24529537.7264   24529552.0974
      2384.2814
   5772946.33943   7069153.14045  25541809.7024   25541822.9134
     -3056.0164
 -14106452.62947 -10715047.07347  21686466.4914   21686472.0694
      -435.5784
 -14754895.27548 -11367635.34547  21018358.2494   21018364.1554
      -682.8594
  -7316541.35048  -5585333.82547  21776333.7964   21776339.9604
     -1945.2664
   -328479.72245    -20413.17555  25255626.6244   25255637.0224
      2012.8444
  -9571924.40547  -2957130.00846  22626206.0074   22626212.8664
        94.7344
    985810.99046    898615.30045  24019355.2654   24019362.8744
     -3923.0164
 01 10  2  1  5 45.0030000  0  9G13G 7G10G28G 8G27G26G 2G31
  11359523.95945   9205822.94845  24477361.0464   24477372.5464
     -4678.9224
  -4108596.28345  -3046094.58545  24522737.4134   24522751.6794
      2381.5314
   5818828.71743   7104905.52745  25550541.1634   25550557.6674
     -3061.1254
 -14099871.84847 -10709919.17347  21687718.6944   21687724.4254
      -441.3594
 -14744602.14648 -11359614.71647  21020316.8584   21020322.9174
      -689.0474
  -7287311.40148  -5562557.24347  21781895.7884   21781901.8124
     -1951.5624
   -358631.06445    -43907.64845  25249888.5224   25249896.4014
      2007.8594
  -9573310.63747  -2958210.16546  22625942.3044   22625949.1364
        90.6094
   1044712.21245    944512.48045  24030562.0074   24030569.5114
     -3929.9534
 01 10  2  1  6  0.0030000  0  9G13G 7G10G28G 8G27G26G 2G31
  11429734.41045   9260532.31745  24490721.5224   24490732.0384
     -4682.7344
  -4144294.56345  -3073911.23145  24515943.4444   24515957.2884
      2377.9694
   5864787.44844   7140717.44345  25559286.2494   25559304.1124
     -3066.9694
 -14093204.45247 -10704723.78247  21688987.5544   21688993.0624
      -447.9064
 -14734216.26348 -11351521.80947  21022293.1944   21022299.3124
      -696.0004
  -7257986.88248  -5539706.96347  21787476.0774   21787482.0654
     -1958.6414
   -388707.25345    -67343.58345  25244164.9994   25244177.4724
      2002.0634
  -9574635.04947  -2959242.14446  22625690.2264   22625697.1444
        85.7194
   1103717.62245    990490.68945  24041790.7184   24041800.6474
     -3937.6724
 01 10  2  1  6 15.0030000  0  9G13G 7G10G28G 8G27G26G 2G31
  11499998.76945   9315283.67445  24504093.1634   24504101.9794
     -4685.7664
  -4179942.62345  -3101688.74045  24509157.7654   24509172.6164
      2375.2034
   5910830.66344   7176595.13545  25568047.9524   25568063.5894
     -3072.0164
 -14086442.05547 -10699454.36147  21690274.5934   21690280.0654
      -453.6724
 -14723728.73748 -11343349.69047  21024288.7414   21024294.8584
      -702.2194
  -7228559.19048  -5516776.29347  21793076.0154   21793082.1554
     -1964.9694
   -418699.38945    -90714.12145  25238457.6404   25238471.3434
      1996.9844
  -9575889.22147  -2960219.39346  22625451.5774   22625458.2924
        81.5944
   1162835.33945   1036556.44045  24053039.3904   24053049.0624
     -3944.6094
 01 10  2  1  6 30.0030000  0  9G13G 7G10G28G 8G27G26G 2G31
  11570309.12946   9370070.85745  24517474.6014   24517484.9874
     -4688.5314
  -4215547.96245  -3129432.97845  24502380.6794   24502395.3784
      2372.5784
   5956950.29643   7212532.45445  25576824.9524   25576841.5504
     -3076.8444
 -14079592.26047 -10694116.84247  21691577.7654   21691583.1444
      -459.2194
 -14713147.33048 -11335104.42547  21026302.6164   21026308.6284
      -708.2034
  -7199035.92447  -5493771.15347  21798693.9764   21798700.1404
     -1971.0624
   -448614.88345   -114024.81245  25232765.4054   25232777.5974
      1992.1414
  -9577080.83847  -2961147.89846  22625224.6404   22625231.3194
        77.7034
   1222057.40945   1082703.53745  24064311.6874   24064318.4954
     -3951.2504
 01 10  2  1  6 45.0030000  0  9G13G 7G10G28G 8G27G26G 2G31
  11640667.65045   9424895.58245  24530862.7494   24530872.4684
     -4692.2344
  -4251107.58145  -3157141.54745  24495615.4994   24495630.7264
      2369.0784
   6003148.51543   7248530.96445  25585615.4444   25585632.2534
     -3082.5314
 -14072652.62047 -10688709.30747  21692898.5694   21692903.9724
      -465.6874
 -14702469.33848 -11326783.89047  21028334.4134   21028340.3314
      -715.1564
  -7169414.47748  -5470689.50047  21804330.8124   21804337.0114
     -1978.0944
   -478450.80845   -137273.54245  25227087.4054   25227095.3904
      1986.3594
  -9578207.44747  -2962025.73946  22625010.4054   22625017.0504
        72.8914
   1281385.90545   1128933.52746  24075599.2574   24075609.9254
     -3958.8284
 01 10  2  1  7  0.0030000  0  9G13G 7G10G28G 8G27G26G 2G31
  11711071.43745   9479755.59345  24544258.3904   24544269.2694
     -4695.0784
  -4286623.92245  -3184816.42545  24488857.3354   24488870.6404
      2366.3284
   6049422.39444   7284588.44545  25594421.6714   25594438.2574
     -3087.4064
 -14065625.91847 -10683233.93847  21694235.3744   21694240.9874
      -471.2974
 -14691697.22248 -11318390.01747  21030384.2494   21030390.2144
      -721.2504
  -7139697.35648  -5447533.29847  21809985.8044   21809991.9794
     -1984.2974
   -508209.51845   -160462.09245  25221424.7334   25221433.8784
      1981.3444
  -9579271.72347  -2962855.01346  22624807.7104   22624814.4134
        68.9064
   1340817.99345   1175244.26245  24086909.0304   24086917.4134
     -3965.5474
 01 10  2  1  7 15.0030000  0  9G13G 7G10G28G 8G27G26G 2G31
  11781530.01845   9534658.25645  24557666.7654   24557678.0424
     -4698.7194
  -4322086.68145  -3212449.54545  24482107.7184   24482120.8824
      2362.7504
   6095781.50744   7320712.36145  25603243.9684   25603258.8784
     -3093.1094
 -14058502.34947 -10677683.09547  21695591.0154   21695596.5464
      -477.7974
 -14680820.85748 -11309914.91147  21032453.8664   21032459.8434
      -728.2194
  -7109874.57847  -5424294.77447  21815660.8194   21815666.8664
     -1991.3594
   -537880.75245   -183582.47845  25215777.9684   25215787.9444
      1975.4844
  -9580263.85747  -2963628.07146  22624619.0224   22624625.4794
        64.0784
   1400363.24645   1221643.19345  24098240.9764   24098247.5734
     -3973.1254
 01 10  2  1  7 30.0030000  0  9G13G 7G10G28G 8G27G26G 2G31
  11852031.53145   9589594.40745  24571083.8274   24571097.7064
     -4701.9844
  -4357507.44845  -3240049.94645  24475366.1084   24475379.0384
      2359.5164
   6142213.84643   7356893.30445  25612079.5774   25612093.8904
     -3098.3914
 -14051293.65847 -10672065.91547  21696962.7574   21696968.2654
      -483.8914
 -14669851.96648 -11301367.70747  21034541.3514   21034547.3044
      -734.8444
  -7079957.81147  -5400983.00247  21821353.8434   21821359.8434
     -1998.0624
   -567475.92945   -206643.56945  25210146.1874   25210155.6364
      1969.9694
  -9581195.59547  -2964354.06846  22624441.6714   22624448.3974
        59.6254
   1460009.64145   1268120.86645  24109591.7574   24109601.3824
     -3980.2664
 01 10  2  1  7 45.0030000  0  9G13G 7G10G28G 8G27G26G 2G31
  11922592.34945   9644576.80245  24584511.2884   24584519.6594
     -4705.5624
  -4392869.03345  -3267604.23145  24468639.0154   24468652.2844
      2355.9224
   6188735.71143   7393144.00045  25620930.4054   25620948.6674
     -3103.9694
 -14043983.14147 -10666369.38647  21698353.9374   21698359.4334
      -490.2974
 -14658773.60748 -11292735.19947  21036649.5304   21036655.5304
      -741.7664
  -7049930.22848  -5377584.88647  21827067.8904   21827073.8314
     -2005.0784
   -596977.97245   -229632.16245  25204532.0694   25204543.2184
      1964.1414
  -9582050.24047  -2965019.99446  22624278.9294   22624285.7144
        54.8594
   1519773.33045   1314690.05145  24120963.7414   24120970.1284
     -3987.7034
 01 10  2  1  8  0.0030000  0  9G13G 7G10G28G 8G27G26G 2G31
  11993197.61145   9699593.75845  24597947.5854   24597957.8434
     -4708.3594
  -4428185.74645  -3295123.58245  24461918.8974   24461932.0034
      2353.0634
   6235332.18143   7429452.75945  25629799.5544   25629817.4174
     -3108.7814
 -14036585.56547 -10660605.02247  21699761.5694   21699766.9724
      -495.9534
 -14647600.15548 -11284028.59547  21038775.7334   21038781.7454
      -747.9374
  -7019806.30847  -5354111.69847  21832800.4054   21832806.4874
     -2011.3444
   -626401.14244   -252559.22645  25198933.2024   25198941.2454
      1959.0314
  -9582842.37347  -2965637.21346  22624127.9914   22624134.6944
        50.8594
   1579639.63445   1361339.15445  24132355.8194   24132365.4214
     -3994.3594
 01 10  2  1  8 15.0030000  0  9G13G 7G10G28G 8G27G26G 2G31
  12063842.76345   9754641.83345  24611391.0544   24611401.6874
     -4711.1094
  -4463461.58845  -3322611.02945  24455205.0074   24455216.7764
      2350.2504
   6281998.59443   7465816.15945  25638679.5464   25638696.5894
     -3113.5474
 -14029105.18047 -10654776.13247  21701184.9524   21701190.3434
      -501.5624
 -14636335.70248 -11275251.07747  21040919.1084   21040925.0974
      -754.1094
  -6989590.20547  -5330566.67947  21838550.3124   21838556.2534
     -2017.5944
   -655749.29843   -275427.85345  25193348.4834   25193358.1794
      1953.9064
  -9583576.28347  -2966209.05346  22623988.3044   22623994.8434
        46.8754
   1639603.80845   1408064.45145  24143765.9054   24143776.2224
     -4000.9844
 01 10  2  1  8 30.0030000  0  9G13G 7G10G28G 8G27G26G 2G31
  12134530.39145   9809722.97745  24624840.8044   24624852.1284
     -4713.9534
  -4498693.36945  -3350064.20645  24448499.5464   24448512.3004
      2347.2664
   6328737.50643   7502236.12045  25647573.6324   25647590.6634
     -3118.3754
 -14021539.09047 -10648880.46147  21702624.7804   21702630.1474
      -507.2974
 -14624977.24048 -11266400.31347  21043080.6714   21043086.6594
      -760.4224
  -6959278.94047  -5306947.50847  21844318.3514   21844324.5734
     -2023.9694
   -685019.24244   -298235.54945  25187778.3124   25187788.7104
      1948.6564
  -9584249.16147  -2966733.34346  22623860.3904   22623867.1634
        42.7814
   1699668.51045   1454868.09645  24155196.9524   24155203.3044
     -4007.7194
 01 10  2  1  8 45.0030000  0  9G13G 7G10G28G 8G27G26G 2G31
  12205265.92845   9864841.54545  24638302.0774   24638312.0774
     -4717.4844
  -4533875.07245  -3377478.35545  24441804.4914   24441816.5654
      2343.6094
   6375554.34243   7538716.61845  25656482.8124   25656498.0624
     -3123.8914
 -14013881.77347 -10642913.70847  21704082.1014   21704087.4444
      -513.7194
 -14613518.95548 -11257471.75947  21045261.1324   21045267.2144
      -767.3914
  -6928866.74147  -5283249.68847  21850105.6874   21850111.7574
     -2031.0314
   -714204.88645   -320977.55045  25182224.2724   25182231.9404
      1942.7034
  -9584855.34747  -2967205.66446  22623745.3904   22623752.0814
        38.0164
   1759839.06845   1501754.29445  24166648.6244   24166658.8824
     -4015.0624
 01 10  2  1  9  0.0030000  0  9G13G 7G11G28G 8G27G26G 2G31
  12276046.13445   9919994.80345  24651769.9914   24651780.6714
     -4719.7504
  -4569009.16745  -3404855.38045  24435120.1164   24435133.0584
      2341.1094
                                  25550447.3354
       964.2504
 -14006136.09047 -10636878.09447  21705555.9684   21705561.3474
      -518.8914
 -14601963.45648 -11248467.45947  21047460.0224   21047465.9054
      -773.1874
  -6898356.38647  -5259475.38047  21855911.3354   21855917.3944
     -2036.8594
   -743308.81045   -343655.91545  25176685.5624   25176694.3784
      1937.9534
  -9585397.80747  -2967628.32646  22623641.9604   22623648.4874
        34.4694
   1820112.19644   1548720.41945  24178112.3044   24178118.3974
     -4021.2194
 01 10  2  1  9 15.0030000  0  9G13G 7G11G28G 8G27G26G 2G31
  12346864.70245   9975178.00945  24665246.5074   24665256.3904
     -4722.9224
  -4604101.35345  -3432199.74045  24428442.3514   24428455.8434
      2337.7034
    -13468.45143                  25547702.7884
       960.0004
 -13998308.05547 -10630778.31447  21707045.7264   21707051.1984
      -525.0004
 -14590316.73948 -11239392.07447  21049676.1714   21049682.1834
      -779.8914
  -6867753.75647  -5235629.17847  21861734.8434   21861740.8904
     -2043.6564
   -772336.63844   -366274.93145  25171162.3744   25171172.2454
      1932.2504
  -9585882.49547  -2968005.97146  22623549.6944   22623556.2104
        30.0004
   1880481.79546   1595761.61045  24189607.3904   24189615.1284
     -4028.2194
 01 10  2  1  9 30.0030000  0  9G13G 7G11G28G 8G27G26G 2G31
  12417726.94645  10030395.22945  24678731.5624   24678743.6124
     -4725.3754
  -4639145.81645  -3459506.95445  24421772.7414   24421785.0034
      2334.9384
    -27841.06943                  25544966.7804
       956.3754
 -13990392.14447 -10624610.05547  21708552.0304   21708557.4564
      -530.4374
 -14578572.93348 -11230241.03847  21051910.9444   21051916.9684
      -785.9374
  -6837053.18547  -5211706.64847  21867577.0384   21867583.0154
     -2049.7504
   -801282.47644   -388830.05745  25165654.5854   25165663.1904
      1927.2034
  -9586303.92447  -2968334.31946  22623469.4914   22623476.0424
        26.2034
   1940953.14845   1642882.22045  24201112.4834   24201122.8004
     -4034.5784
 01 10  2  1  9 45.0030000  0  9G13G 7G11G28G 8G27G26G 2G31
  12488629.74845  10085644.05845  24692224.0854   24692235.0464
     -4728.2814
  -4674145.00545  -3486778.86645  24415112.5854   24415124.9294
      2331.6884
    -42155.73444                  25542243.8664
       952.2814
 -13982391.32147 -10618375.62947  21710074.5384   21710080.0464
      -536.2974
 -14566734.79048 -11221016.49047  21054163.5624   21054169.5154
      -792.4374
  -6806257.47147  -5187709.98947  21873437.1714   21873443.3474
     -2056.2974
   -830148.92144   -411323.32345  25160161.0544   25160169.0734
      1921.6724
  -9586665.02047  -2968615.65946  22623400.8354   22623407.2454
        21.9844
   2001522.79945   1690079.27645  24212636.1164   24212646.3514
     -4041.3444
 01 10  2  1 10  0.0030000  0  9G13G 7G11G28G 8G27G26G 2G31
  12559574.85145  10140925.86345  24705724.1014   24705736.8194
     -4731.1564
  -4709096.58145  -3514013.66945  24408460.9214   24408474.4254
      2328.4384
    -56409.74244                  25539530.4134
       948.1564
 -13974303.59347 -10612073.48147  21711613.3194   21711618.9214
      -542.1564
 -14554800.03748 -11211716.66747  21056434.8124   21056440.8354
      -798.9374
  -6775364.43647  -5163637.48747  21879315.8904   21879321.9484
     -2062.8594
   -858933.36843   -433752.74045  25154682.2574   25154693.1944
      1916.1414
  -9586963.66947  -2968848.33446  22623343.5624   22623349.9374
        17.7504
   2062192.63346   1737354.53145  24224184.2334   24224189.4834
     -4048.0624
 01 10  2  1 10 15.0030000  0  9G13G 7G11G28G 8G27G26G 2G31
  12630567.94245  10196245.06245  24719235.1794   24719245.7414
     -4734.2504
  -4743994.27745  -3541206.52645  24401819.1874   24401832.0224
      2324.9224
    -70596.94245                  25536831.8974
       943.7974
 -13966123.08147 -10605699.03447  21713170.2024   21713175.7804
      -548.2504
 -14542762.69648 -11202336.90347  21058725.4444   21058731.5154
      -805.7034
  -6744367.99347  -5139484.41447  21885214.4444   21885220.5624
     -2069.6724
   -887629.52944   -456113.30345  25149222.8044   25149229.4134
      1910.3444
  -9587193.94847  -2969027.73246  22623300.0774   22623306.7804
        13.2814
   2122968.35245   1784712.27145  24235746.4604   24235755.7574
     -4055.0314
 01 10  2  1 10 30.0030000  0  9G13G 7G11G28G 8G27G26G 2G31
  12701602.94745  10251596.87545  24732753.3434   24732763.2144
     -4737.0314
  -4778843.59545  -3568361.66245  24395189.0074   24395201.8544
      2321.6724
    -84722.65843     -8801.54655  25534141.4994   25534149.8944
       939.6884
 -13957855.58547 -10599256.81047  21714743.3044   21714748.7064
      -554.0314
 -14530628.29548 -11192881.51247  21061034.5934   21061040.6404
      -812.1724
  -6713273.90547  -5115255.25247  21891131.4524   21891137.4764
     -2076.1724
   -916243.06445   -478409.51245  25143777.8904   25143786.4834
      1904.8444
  -9587361.76447  -2969158.46146  22623268.1014   22623274.8154
         9.1414
   2183843.55545   1832147.45545  24247333.0384   24247341.4914
     -4061.6254
 01 10  2  1 10 45.0030000  0  9G13G 7G11G28G 8G27G26G 2G31
  12772684.10545  10306984.68645  24746279.5224   24746290.5654
     -4740.2194
  -4813639.63245  -3595475.28245  24388568.1874   24388581.0224
      2318.0004
    -98782.09844    -19756.75545  25531467.9764   25531478.0344
       935.0944
 -13949496.54847 -10592743.25347  21716333.8354   21716339.1674
      -560.2664
 -14518392.17548 -11183346.85747  21063362.9374   21063368.9834
      -819.0784
  -6682077.40447  -5090946.28647  21897068.0544   21897074.0654
     -2083.1254
   -944768.82545   -500637.32945  25138349.4834   25138358.5934
      1898.8284
  -9587462.53647  -2969236.94746  22623248.8274   22623255.3314
         4.5314
   2244822.75445   1879663.80445  24258936.7724   24258945.8584
     -4068.6874
 01 10  2  1 11  0.0030000  0  9G13G 7G11G28G 8G27G26G 2G31
  12843799.63645  10362399.30945  24759812.6794   24759823.4174
     -4742.8124
  -4848393.51645  -3622556.07645  24381953.2184   24381966.7694
      2314.8594
   -112786.28242    -30668.97845  25528800.9684   25528815.6204
       931.1094
 -13941057.62447 -10586167.44547  21717939.9214   21717945.3124
      -565.9224
 -14506065.54248 -11173741.67247  21065708.6714   21065714.7294
      -825.4224
  -6650789.91747  -5066566.42447  21903021.7264   21903027.8544
     -2089.5164
   -973218.12344   -522805.56145  25132935.7414   25132942.6944
      1893.3914
  -9587507.78647  -2969272.16946  22623240.2494   22623246.6364
         0.5164
   2305893.93445   1927251.69945  24270554.8044   24270562.5194
     -4075.1564
 01 10  2  1 11 15.0030000  0  9G13G 7G11G28G 8G27G26G 2G31
  12914962.31145  10417850.60145  24773354.7574   24773364.8044
     -4745.5164
  -4883092.06245  -3649593.73245  24375349.6794   24375362.5264
      2311.6094
   -126721.82543    -41527.79045  25526149.6554   25526157.7104
       926.9534
 -13932525.88747 -10579519.31647  21719563.3354   21719568.5384
      -571.6724
 -14493635.40348 -11164055.83147  21068073.8974   21068079.8274
      -831.9224
  -6619398.33147  -5042105.44846  21908995.4834   21909001.4954
     -2096.0314
  -1001577.60443   -544903.74145  25127538.2414   25127550.0814
      1887.8444
  -9587484.58847  -2969254.05246  22623244.6164   22623251.2144
        -3.6094
   2367070.07546   1974921.35445  24282201.6084   24282209.4874
     -4081.6724
 01 10  2  1 11 30.0030000  0  9G13G 7G11G28G 8G27G26G 2G31
  12986168.89745  10473336.14245  24786904.3434   24786915.1874
     -4748.6414
  -4917737.72945  -3676590.19545  24368758.8664   24368771.7494
      2307.8594
   -140591.42744    -52335.14845  25523510.8434   25523521.4524
       922.3594
 -13923904.27147 -10572801.15147  21721203.9214   21721209.2294
      -577.8284
 -14481104.37948 -11154291.38347  21070458.5624   21070464.5154
      -838.8284
  -6587905.39947  -5017565.49746  21914988.3274   21914994.4444
     -2102.9844
  -1029849.72944   -566933.94045  25122158.2104   25122166.8864
      1881.8134
  -9587395.81047  -2969184.83846  22623261.2574   22623267.6324
        -8.1724
   2428347.91245   2022670.33245  24293860.8044   24293867.1324
     -4088.6094
 01 10  2  1 11 45.0030000  0  9G13G 7G11G28G 8G27G26G 2G31
  13057415.54245  10528852.93545  24800462.5304   24800475.7184
     -4751.1094
  -4952333.83445  -3703548.02045  24362173.7494   24362186.9374
      2304.7814
   -154398.15344    -63093.49945  25520882.9604   25520893.4874
       918.3594
 -13915196.51747 -10566015.86847  21722860.8824   21722866.2494
      -583.3914
 -14468475.96548 -11144451.04747  21072861.7964   21072867.7724
      -845.1414
  -6556314.69447  -4992949.36947  21920999.9684   21921006.0264
     -2109.3124
  -1058037.86445   -588898.66845  25116794.7184   25116803.6634
      1876.3914
  -9587245.14947  -2969067.40546  22623290.2184   22623296.7924
       -12.1094
   2489723.18245   2070495.36245  24305537.4054   24305543.7924
     -4094.9534
 01 10  2  1 12  0.0030000  0  9G13G 7G11G28G 8G27G26G 2G31
  13128701.77045  10584400.51345  24814027.5224   24814038.5194
     -4753.7344
  -4986880.26445  -3730467.16445  24355599.9214   24355614.4794
      2301.4064
   -168141.79543    -73802.76245  25518267.2964   25518277.8584
       914.0944
 -13906402.58247 -10559163.43147  21724534.4834   21724539.8864
      -589.1564
 -14455750.18048 -11134534.84147  21075283.1874   21075289.1874
      -851.6724
  -6524626.27247  -4968257.09247  21927029.9444   21927035.9214
     -2115.8444
  -1086141.74344   -610797.74245  25111447.0774   25111458.2144
      1870.7664
  -9587032.70147  -2968901.82046  22623330.5464   22623336.8514
       -16.2504
   2551195.77146   2118395.95345  24317238.8194   24317243.9174
     -4101.4224
 01 10  2  1 12 15.0030000  0  9G13G 7G11G28G 8G27G26G 2G31
  13200034.74045  10639984.55345  24827600.5304   24827609.1244
     -4756.9534
  -5021369.18145  -3757341.48445  24349037.8824   24349050.0034
      2297.4694
   -181814.43043    -84456.58745  25515664.8194   25515676.6014
       909.2664
 -13897515.10847 -10552238.10147  21726225.8194   21726231.2924
      -595.4844
 -14442919.33748 -11124536.76847  21077724.9134   21077730.7724
      -858.7664
  -6492832.53647  -4943482.75346  21933080.0694   21933086.1164
     -2122.9694
  -1114153.50843   -632624.97945  25106115.6714   25106125.1674
      1864.5164
  -9586751.00047  -2968682.27646  22623383.9764   22623390.3274
       -20.9534
   2612772.57345   2166378.06945  24328954.1404   24328964.3744
     -4108.4694
 01 10  2  1 12 30.0030000  0  9G13G 7G11G28G 8G27G26G 2G31
  13271403.39645  10695596.39945  24841182.8044   24841195.8864
     -4759.3124
  -5055810.96545  -3784179.04345  24342483.2264   24342494.8544
      2294.3284
   -195426.60643    -95063.40645  25513076.0154   25513086.2374
       905.2344
 -13888545.03147 -10545248.40647  21727932.5544   21727937.9564
      -600.9844
 -14429994.08748 -11114465.12747  21080184.3124   21080190.4874
      -865.0624
  -6460944.24647  -4918634.73146  21939148.0464   21939154.0224
     -2129.2664
  -1142083.64244   -654388.65145  25100801.6944   25100809.9724
      1859.0634
  -9586410.92747  -2968417.23846  22623448.7884   22623455.2104
       -24.8444
   2674442.37745   2214432.36845  24340688.8584   24340697.2064
     -4114.6724
 01 10  2  1 12 45.0030000  0  9G13G 7G11G28G 8G27G26G 2G31
  13342814.37345  10751241.18945  24854770.3354   24854783.1594
     -4762.2344
  -5090198.52045  -3810974.42545  24335939.6554   24335952.4214
      2290.5944
   -208970.78444   -105617.12645  25510497.7494   25510507.4444
       900.5944
 -13879485.44747 -10538188.96747  21729656.4444   21729661.9524
      -607.0314
 -14416967.28148 -11104314.35347  21082663.5624   21082669.4794
      -871.9224
  -6428954.29347  -4893707.49546  21945235.6404   21945241.6984
     -2136.1254
  -1169924.83744   -676083.05445  25095502.9444   25095511.1284
      1853.0314
  -9586005.52447  -2968101.30446  22623525.7724   22623532.1834
       -29.2814
   2736212.10346   2262564.68545  24352446.4214   24352454.1244
     -4121.3594
 01 10  2  1 13  0.0030000  0  9G13G 7G11G28G 8G27G26G 2G31
  13414270.82145  10806921.39245  24868369.6474   24868381.7104
     -4765.1094
  -5124528.03445  -3837724.51245  24329407.0464   24329419.9644
      2286.8444
   -222443.37445   -116115.24445  25507934.2104   25507944.4914
       895.9224
 -13870333.03747 -10531057.19547  21731398.1634   21731403.5544
      -613.0944
 -14403835.37748 -11094081.68247  21085162.3824   21085168.4404
      -878.8124
  -6396859.22947  -4868698.34746  21951343.1244   21951349.1364
     -2143.0164
  -1197673.26444   -697705.21345  25090223.2574   25090231.5934
      1846.9224
  -9585531.48447  -2967731.87646  22623616.1794   22623622.5424
       -33.7344
   2798084.66944   2310777.12545  24364217.8124   24364228.1984
     -4128.0944
 01 10  2  1 13 15.0030000  0  9G13G 7G11G28G 8G27G26G 2G31
  13485764.98345  10862631.04545  24881972.4524   24881985.1944
     -4767.6254
  -5158806.64445  -3864434.96345  24322882.4764   24322894.7494
      2283.4534
   -235851.45644   -126562.99745  25505383.2104   25505394.4054
       891.5944
 -13861095.29547 -10523858.93047  21733155.9764   21733161.2844
      -618.7814
 -14390605.71048 -11083772.83547  21087679.8974   21087685.9094
      -885.3444
  -6364666.36447  -4843613.00246  21957469.1084   21957475.1794
     -2149.5474
  -1225336.23343   -719260.68645  25084957.0854   25084967.7414
      1841.2504
  -9584996.28947  -2967314.80046  22623717.5304   22623723.9874
       -37.8124
   2860052.26345   2359063.54545  24376009.6014   24376017.6794
     -4134.4374
 01 10  2  1 13 30.0030000  0  9G13G 7G11G28G 8G27G26G 2G31
  13557300.41045  10918372.84245  24895586.5304   24895597.8544
     -4770.1874
  -5193030.29845  -3891102.60245  24316370.5154   24316383.3154
      2279.9534
   -249190.72843   -136957.05745  25502843.0544   25502851.7764
       887.2034
 -13851768.44247 -10516591.23247  21734930.9684   21734936.4174
      -624.5474
 -14377274.35548 -11073384.75447  21090216.7494   21090222.7374
      -891.9534
  -6332371.86347  -4818448.44646  21963614.5224   21963620.6044
     -2156.1414
  -1252909.58043   -740746.26945  25079711.3274   25079720.2614
      1835.4534
  -9584396.19347  -2966847.15446  22623831.9054   22623838.3154
       -41.9534
   2922118.46845   2407426.79945  24387819.6084   24387825.3044
     -4140.8124
 01 10  2  1 13 45.0030000  0  9G13G 7G11G28G 8G27G26G 2G31
  13628871.00045  10974142.00545  24909205.9834   24909216.3704
     -4773.1254
  -5227204.48045  -3917731.68045  24309866.5464   24309879.0544
      2276.0164
   -262466.71043   -147301.92345  25500317.2024   25500329.1714
       882.3444
 -13842358.40347 -10509258.70847  21736721.7724   21736727.0814
      -630.7034
 -14363846.89948 -11062921.78447  21092771.6944   21092777.6244
      -898.9694
  -6299981.35747  -4793209.08946  21969778.2884   21969784.2884
     -2163.1724
  -1280398.44245   -762166.11845  25074480.7414   25074490.4604
      1829.1884
  -9583736.94447  -2966333.41946  22623957.5694   22623964.0734
       -46.5164
   2984277.17745   2455862.18445  24399650.1084   24399658.7724
     -4147.5784
 01 10  2  1 14  0.0030000  0  9G13G 7G11G28G 8G27G26G 2G31
  13700479.09145  11029940.42345  24922832.4444   24922844.6594
     -4775.0164
  -5261326.14245  -3944319.83345  24303372.6474   24303385.1904
      2273.1414
   -275676.36643   -157594.98245  25497803.5854   25497815.4724
       878.5474
 -13832862.59647 -10501859.35447  21738528.4914   21738533.8474
      -635.8124
 -14350320.61648 -11052381.80247  21095345.9294   21095351.9174
      -904.9534
  -6267492.20647  -4767892.85946  21975960.8434   21975966.9724
     -2169.1254
  -1307800.14244   -783518.07845  25069266.6474   25069274.4564
      1823.9694
  -9583016.07347  -2965771.65746  22624094.6014   22624100.9524
       -50.0004
   3046530.43945   2504371.20845  24411494.8274   24411502.8944
     -4153.2664
 01 10  2  1 14 15.0030000  0  9G13G 7G11G28G 8G27G26G 2G31
  13772121.25345  11085765.34045  24936466.3824   24936479.8974
     -4777.5624
  -5295398.15845  -3970869.30545  24296890.5774   24296901.6794
      2269.5164
   -288822.41843   -167838.52145  25495301.9214   25495306.4684
       874.0164
 -13823284.22347 -10494395.66147  21740351.4134   21740356.8154
      -641.5944
 -14336698.38648 -11041767.06547  21097937.9214   21097943.9094
      -911.6254
  -6234907.40347  -4742502.09846  21982161.6084   21982167.6324
     -2175.7974
  -1335117.43343   -804804.21645  25064066.3664   25064077.4564
      1818.0314
  -9582236.69247  -2965164.30646  22624242.8904   22624249.2764
       -54.1874
   3108875.15045   2552951.46845  24423360.0854   24423368.1044
     -4159.6254
 01 10  2  1 14 30.0030000  0  9G13G 7G11G28G 8G27G26G 2G31
  13843807.70345  11141624.82945  24950106.8194   24950119.0584
     -4780.1724
  -5329409.71445  -3997371.66445  24290417.9834   24290429.7294
      2265.8134
   -301894.10045   -178024.21945  25492815.5694   25492822.6164
       869.3594
 -13813612.78747 -10486859.45447  21742191.5694   21742196.8194
      -647.4694
 -14322969.62048 -11031069.30347  21100550.4054   21100556.3704
      -918.4224
  -6202216.35947  -4717028.55446  21988382.4834   21988388.5424
     -2182.5624
  -1362339.47543   -826016.10145  25058886.9374   25058896.3274
      1812.0164
  -9581388.34047  -2964503.21546  22624404.2574   22624410.5854
       -58.4694
   3171321.24745   2601610.88145  24435242.3124   24435249.4404
     -4166.0624
 01 10  2  1 14 45.0030000  0  9G13G 7G11G28G 8G27G26G 2G31
  13915531.56945  11197513.43445  24963756.8904   24963769.7614
     -4783.1254
  -5363367.04545  -4023831.79245  24283955.7334   24283967.7724
      2261.7034
   -314897.65843   -188156.74445  25490338.2494   25490349.9834
       864.3134
 -13803854.90247 -10479255.88147  21744048.3044   21744053.5654
      -653.7034
 -14309140.69748 -11020293.50647  21103182.1324   21103188.2144
      -925.5624
  -6169425.55947  -4691477.27246  21994622.2964   21994628.4374
     -2189.6874
  -1389472.33844   -847158.48045  25053723.6084   25053733.0694
      1805.5474
  -9580477.60047  -2963793.50446  22624577.4684   22624583.8194
       -63.0944
   3233862.00645   2650343.87045  24447143.0854   24447153.0734
     -4172.8444
 01 10  2  1 15  0.0030000  0  9G13G 7G11G28G 8G27G26G 2G31
  13987296.71945  11253434.21545  24977413.2494   24977426.1204
     -4785.3284
  -5397265.67745  -4050246.14345  24277505.1014   24277516.5894
      2258.3284
   -327828.40643   -198232.51545  25487879.2334   25487886.1634
       859.9844
 -13794006.47647 -10471581.75847  21745922.4604   21745927.7574
      -659.2034
 -14295207.35448 -11009436.33347  21105833.4374   21105839.3664
      -931.9844
  -6136530.75047  -4665844.94346  22000882.0074   22000888.1014
     -2196.0784
  -1416511.64343   -868228.01045  25048578.3904   25048587.7924
      1799.9384
  -9579500.34147  -2963031.96246  22624763.5544   22624770.0584
       -66.9844
   3296501.15945   2699153.59745  24459064.3904   24459069.9564
     -4178.8444
 01 10  2  1 15 15.0030000  0  9G13G 7G11G28G 8G27G26G 2G31
  14059094.47345  11309380.40345  24991076.0544   24991089.4764
     -4787.5314
  -5431113.91145  -4076621.24045  24271063.7884   24271075.6874
      2254.8914
   -340694.42943   -208257.81145  25485430.3904   25485440.7414
       855.6094
 -13784076.02047 -10463843.72047  21747812.0624   21747817.3584
      -664.7034
 -14281177.80448 -10998504.19747  21108503.1014   21108509.1014
      -938.4534
  -6103540.28047  -4640138.07546  22007159.9374   22007165.9724
     -2202.5004
  -1443465.44743   -889230.93145  25043449.6554   25043458.3544
      1794.0944
  -9578465.09947  -2962225.24146  22624960.3824   22624966.7224
       -70.8914
   3359229.98545   2748033.34945  24471000.3044   24471007.3044
     -4184.8444
 01 10  2  1 15 30.0030000  0  9G13G 7G11G28G 8G27G26G 2G31
  14130929.33545  11365355.49245  25004746.3274   25004757.9334
     -4790.0624
  -5464906.36745  -4102952.87445  24264633.9294   24264646.2144
      2251.1094
   -353490.57445   -218228.64745  25482996.3434   25483007.6904
       850.8594
 -13774058.93847 -10456038.17347  21749718.2024   21749723.4764
      -670.5474
 -14267047.11148 -10987493.24147  21111192.1634   21111198.2694
      -945.2664
  -6070449.28847  -4614352.87646  22013456.7414   22013462.8704
     -2209.2814
  -1470328.70144   -910163.26145  25038337.4764   25038345.7654
      1788.0004
  -9577367.04547  -2961369.57446  22625168.9994   22625175.4684
       -75.1564
   3422052.91745   2796986.21745  24482953.9444   24482962.5974
     -4191.2034
 01 10  2  1 15 45.0030000  0  9G13G 7G11G28G 8G27G26G 2G31
  14202798.11245  11421357.05245  25018422.6714   25018435.1204
     -4792.2814
  -5498645.72445  -4129243.16645  24258210.7804   24258222.5264
      2247.5944
   -366219.36544   -228147.15745  25480573.6164   25480586.3354
       846.4064
 -13763957.92147 -10448167.22747  21751640.4134   21751645.6634
      -676.1094
 -14252818.05548 -10976405.64647  21113899.7884   21113905.7654
      -951.8124
  -6037260.51447  -4588491.48146  22019772.3904   22019778.5074
     -2215.7664
  -1497103.78143   -931026.88045  25033242.2804   25033250.3124
      1782.1884
  -9576209.06247  -2960467.21247  22625389.6324   22625396.0544
       -79.1094
   3484966.82445   2846010.03145  24494927.5074   24494933.9874
     -4197.2034
 01 10  2  1 16  0.0030000  0  9G13G 7G11G28G 8G27G26G 2G31
  14274703.57045  11477387.16945  25032105.5774   25032117.5934
     -4794.6414
  -5532328.61945  -4155489.43145  24251803.5854   24251815.4484
      2243.9064
   -378877.37845   -238010.38445  25478165.2024   25478174.8864
       841.7974
 -13753770.07047 -10440228.62147  21753579.1554   21753584.4174
      -681.7974
 -14238487.30248 -10965238.80347  21116626.7574   21116632.8044
      -958.5004
  -6003970.87847  -4562551.49346  22026107.2574   22026113.2334
     -2222.3914
  -1523787.50743   -951819.27845  25028163.6794   25028172.5544
      1776.1254
  -9574988.23447  -2959515.87846  22625621.9994   22625628.3154
       -83.2034
   3547974.47044   2895106.98445  24506916.7964   24506924.4404
     -4203.3124
 01 10  2  1 16 15.0030000  0  9G13G 7G11G28G 8G27G26G 2G31
  14346641.32545  11533442.44945  25045794.1014   25045804.3944
     -4797.0474
  -5565958.78245  -4181694.58145  24245402.8744   24245413.6944
      2240.1094
   -391468.42343   -247821.47645  25475767.8514   25475779.0224
       837.0164
 -13743499.68847 -10432225.69047  21755533.3974   21755538.8124
      -687.5944
 -14224058.83748 -10953995.81647  21119372.4834   21119378.5074
      -965.2814
  -5970584.41747  -4536536.05146  22032460.5224   22032466.4994
     -2229.1414
  -1550383.35344   -972543.22445  25023103.7264   25023112.2844
      1769.9694
  -9573708.62747  -2958518.73646  22625865.3354   22625871.6284
       -87.4064
   3611071.28145   2944273.23845  24518924.9374   24518932.6284
     -4209.5474
 01 10  2  1 16 30.0030000  0  9G13G 7G11G28G 8G27G26G 2G31
  14418613.09245  11589524.24145  25059490.2104   25059502.3664
     -4799.0784
  -5599534.00745  -4207856.96045  24239013.9294   24239025.7574
      2236.6724
   -403990.05743   -257578.48245  25473384.7184   25473394.2024
       832.6254
 -13733144.61347 -10424156.78447  21757503.8274   21757509.0894
      -693.0004
 -14209530.64248 -10942675.12347  21122137.0154   21122143.0384
      -971.7194
  -5937098.94647  -4510443.46846  22038832.4834   22038838.4724
     -2235.5004
  -1576889.11145   -993197.03145  25018060.6084   25018070.0464
      1764.1884
  -9572368.19947  -2957474.21146  22626120.6404   22626126.8744
       -91.2194
   3674258.99544   2993510.44845  24530947.2724   24530954.3434
     -4215.3594
 01 10  2  1 16 45.0030000  0  9G13G 7G11G28G 8G27G26G 2G31
  14490626.81445  11645638.71045  25073192.9054   25073205.0624
     -4802.6254
  -5633045.55645  -4233969.71545  24232636.7654   24232648.5224
      2231.6724
   -416433.48343   -267274.52845  25471017.9604   25471032.2724
       826.6414
 -13722696.70147 -10416015.52947  21759491.8974   21759497.0544
      -699.9374
 -14194894.09548 -10931269.99147  21124922.4214   21124928.4094
      -979.7034
  -5903506.08647  -4484267.20246  22045224.8044   22045230.9444
     -2243.4224
  -1603296.11243  -1013773.86745  25013033.4994   25013040.8514
      1756.8284
  -9570958.75147  -2956375.89747  22626388.5774   22626394.9174
       -96.5784
   3737545.49745   3042824.65245  24542991.6244   24542998.9994
     -4222.7034
 01 10  2  1 17  0.0030000  0  9G13G 7G11G28G 8G27G26G 2G31
  14562682.20745  11701785.64745  25086905.9374   25086917.8584
     -4804.7664
  -5666493.32845  -4260032.76945  24226272.0384   24226284.6754
      2228.0164
   -428798.61743   -276909.52045  25468664.3584   25468674.5694
       822.0164
 -13712156.08447 -10407802.04047  21761497.7574   21761503.1014
      -705.4844
 -14180149.16648 -10919780.41447  21127727.9214   21127734.0624
      -986.2974
  -5869805.85247  -4458007.27046  22051637.9134   22051643.9014
     -2249.9534
  -1629604.17743  -1034273.48545  25008028.9444   25008040.8784
      1750.8444
  -9569480.44647  -2955223.93346  22626669.8274   22626676.1674
      -100.5474
   3800930.35045   3092215.45245  24555053.0224   24555060.9724
     -4228.6094
 01 10  2  1 17 15.0030000  0  9G13G 7G11G28G 8G27G26G 2G31
  14634771.54045  11757958.99345  25100624.3354   25100636.9014
     -4807.0784
  -5699884.32245  -4286051.59545  24219916.4524   24219929.1474
      2224.1884
   -441092.44743   -286488.99945  25466323.3274   25466336.0224
       817.2034
 -13701530.34847 -10399522.22147  21763519.9214   21763525.1124
      -711.2194
 -14165303.17548 -10908212.08047  21130553.0464   21130558.9644
      -993.1094
  -5836005.62747  -4431669.42346  22058069.6794   22058075.7724
     -2256.6874
  -1655820.26145  -1054701.50345  25003040.4914   25003047.5154
      1744.6724
  -9567940.76347  -2954024.14247  22626962.6554   22626968.8084
      -104.6874
   3864405.91745   3141676.84145  24567133.0774   24567141.4724
     -4234.7034
 01 10  2  1 17 30.0030000  0  9G13G 7G11G28G 8G27G26G 2G31
  14706881.70244  11814148.66245  25114345.8664   25114359.0654
     -4808.7344
  -5733231.08745  -4312035.94245  24213572.4134   24213584.6404
      2220.9224
   -453327.32044   -296022.54245  25463996.2184   25464007.5074
       813.0004
 -13690832.23147 -10391186.00247  21765555.7884   21765561.0734
      -716.3124
 -14150368.71148 -10896574.80747  21133395.1554   21133401.1324
      -999.2814
  -5802118.01447  -4405263.47746  22064518.3434   22064524.3434
     -2262.7814
  -1681956.82344  -1075067.68545  24998065.9834   24998075.5264
      1739.0784
  -9566352.45747  -2952786.45647  22627265.0304   22627271.2414
      -108.2194
   3927958.90545   3191198.71345  24579226.2264   24579233.7064
     -4240.1564
 01 10  2  1 17 45.0030000  0  9G13G 7G11G28G 8G27G26G 2G31
  14779026.20945  11870364.96345  25128074.9994   25128088.3744
     -4810.6564
  -5766519.48045  -4337974.79645  24207236.6244   24207247.8314
      2217.4064
   -465489.28443   -305499.29245  25461682.6404   25461690.7764
       808.4534
 -13680048.19747 -10382782.83147  21767607.8904   21767613.1874
      -721.6724
 -14135331.92048 -10884857.80447  21136256.4294   21136262.5224
     -1005.7504
  -5768129.26647  -4378778.72946  22070986.1714   22070992.1834
     -2269.1724
  -1707999.90043  -1095360.87245  24993108.9604   24993119.2654
      1733.2194
  -9564701.89147  -2951500.26647  22627579.0624   22627585.3664
      -111.9844
   3991602.91945   3240791.48745  24591336.5384   24591346.0464
     -4245.8284
 01 10  2  1 18  0.0030000  0  9G13G 7G11G28G 8G27G26G 2G31
  14851209.07744  11926611.29745  25141811.0854   25141825.6794
     -4813.2034
  -5799745.02545  -4363864.70445  24200915.7184   24200926.5624
      2213.2034
   -477573.51645   -314915.45645  25459383.5464   25459393.0424
       803.2664
 -13669173.87247 -10374309.30347  21769676.9764   21769682.1674
      -727.7034
 -14120188.40448 -10873057.63347  21139138.2184   21139144.2184
     -1012.8754
  -5734035.00247  -4352211.76046  22077474.0384   22077480.1444
     -2276.2194
  -1733944.88844  -1115577.62545  24988172.3434   24988183.6324
      1726.6884
  -9562984.80147  -2950162.24347  22627905.6874   22627911.8274
      -116.4374
   4055341.78745   3290458.08145  24603465.8744   24603475.9334
     -4252.1414
 01 10  2  1 18 15.0030000  0  9G13G 7G11G28G 8G27G26G 2G31
  14923418.01445  11982877.82945  25155552.6404   25155567.0464
     -4814.9694
  -5832919.21645  -4389714.56445  24194600.2654   24194611.7294
      2209.7034
   -489591.70743   -324280.17945  25457095.0694   25457104.5544
       798.7814
 -13658221.17547 -10365774.70947  21771761.0774   21771766.4684
      -732.9844
 -14104949.78148 -10861183.35847  21142037.9444   21142043.8864
     -1019.2814
  -5699847.04447  -4325571.78646  22083980.0624   22083986.2374
     -2282.5164
  -1759803.17344  -1135726.80045  24983251.9054   24983260.8394
      1720.7814
  -9561213.10047  -2948781.65647  22628242.9914   22628249.0154
      -120.1254
   4119163.36345   3340189.29745  24615610.8354   24615617.0224
     -4257.7194
 01 10  2  1 18 30.0030000  0  9G13G 7G11G28G 8G27G26G 2G31
  14995655.84944  12039166.96945  25169298.3274   25169311.2694
     -4817.0314
  -5866038.80245  -4415521.89946  24188299.4134   24188311.0194
      2205.9224
   -501540.29844   -333590.56045  25454822.3514   25454831.7884
       794.0164
 -13647187.15947 -10357176.75247  21773860.8194   21773866.1164
      -738.5314
 -14089612.87848 -10849232.50247  21144956.3354   21144962.3704
     -1025.9534
  -5665562.24947  -4298856.35446  22090503.9994   22090510.0224
     -2289.1094
  -1785571.47644  -1155805.95445  24978348.6714   24978355.3974
      1714.6564
  -9559383.74547  -2947356.15047  22628590.7494   22628597.1124
      -124.1094
   4183070.53745   3389987.11245  24627771.6944   24627782.4214
     -4263.5624
 01 10  2  1 18 45.0030000  0  9G13G 7G11G28G 8G27G26G 2G31
  15067927.41144  12095482.34945  25183051.1244   25183068.1794
     -4818.2194
  -5899098.19245  -4441282.30645  24182006.5074   24182018.6404
      2202.9694
   -513413.82745   -342842.53945  25452563.6014   25452573.8354
       790.0474
 -13636066.84647 -10348511.54147  21775977.0304   21775982.4794
      -743.2344
 -14074172.57148 -10837201.07047  21147894.5544   21147900.4834
     -1031.8124
  -5631175.50547  -4272061.47746  22097047.5074   22097053.6364
     -2294.8594
  -1811244.33045  -1175810.73945  24973463.3274   24973471.2414
      1709.3284
  -9557491.63147  -2945881.73847  22628951.1874   22628957.3974
      -127.2344
   4247067.79445   3439855.09545  24639951.0624   24639957.7884
     -4268.5004
 01 10  2  1 19  0.0030000  0  9G13G 7G11G28G 8G27G26G 2G31
  15140230.87945  12151822.54645  25196810.8044   25196826.2184
     -4822.1094
  -5932098.78545  -4466996.90845  24175728.4764   24175740.5154
      2197.2664
   -525213.47444   -352036.93645  25450317.1794   25450328.6324
       783.3444
 -13624861.79547 -10339780.31047  21778109.3124   21778114.5154
      -750.6414
 -14058630.12948 -10825090.05547  21150852.2414   21150858.3124
     -1040.3914
  -5596688.18147  -4245188.23746  22103610.5304   22103616.5654
     -2303.3284
  -1836822.88545  -1195741.99545  24968596.1014   24968605.1164
      1701.2814
  -9555538.32647  -2944359.64647  22629322.7184   22629328.9294
      -133.0624
   4311153.42645   3489791.95145  24652145.7334   24652153.4954
     -4276.1254
 01 10  2  1 19 15.0030000  0  9G13G 7G11G28G 8G27G26G 2G31
  15212573.67445  12208193.49745  25210576.9914   25210587.7414
     -4823.5784
  -5965032.51545  -4492659.40645  24169459.6164   24169470.6014
      2193.9534
   -536931.09643   -361167.46545  25448087.0464   25448100.0224
       779.0164
 -13613564.32947 -10330977.06047  21780259.0854   21780264.3584
      -755.6564
 -14042977.77248 -10812893.39147  21153830.5694   21153836.6044
     -1046.5784
  -5562092.51247  -4218230.57146  22110193.5934   22110199.6634
     -2309.4064
  -1862299.12244  -1215593.48945  24963747.2884   24963756.5154
      1695.5634
  -9553516.19847  -2942783.92547  22629707.5774   22629713.7414
      -136.5164
   4375334.84045   3539803.45245  24664358.6874   24664364.8044
     -4281.3594
 01 10  2  1 19 30.0030000  0  9G13G 7G11G28G 8G27G26G 2G31
  15284940.83845  12264583.34145  25224349.1714   25224363.5194
     -4826.1724
  -5997913.62245  -4518280.90645  24163203.7654   24163214.6554
      2189.4224
   -548581.12542   -370245.34545  25445867.6554   25445877.3864
       773.5314
 -13602189.25547 -10322113.34247  21782423.8744   21782429.0194
      -761.8284
 -14027229.95648 -10800622.34747  21156827.3584   21156833.3944
     -1053.9374
  -5527403.14447  -4191199.89246  22116795.0694   22116801.1634
     -2316.6564
  -1887687.41044  -1235376.48045  24958916.3974   24958925.6364
      1688.7034
  -9551439.96047  -2941166.03847  22630102.7494   22630109.2064
      -141.1254
   4439597.02845   3589877.85345  24676588.0544   24676597.7264
     -4287.7504
 01 10  2  1 19 45.0030000  0  9G13G 7G11G28G 8G27G26G 2G31
  15357342.99344  12321000.45345  25238125.0854   25238133.5034
     -4827.2504
  -6030731.04745  -4543852.77845  24156958.2414   24156969.3544
      2186.4064
   -560152.22043   -379261.63545  25443667.3044   25443677.4794
       769.4844
 -13590725.71447 -10313180.68147  21784605.2024   21784610.3354
      -766.4694
 -14011375.56848 -10788268.25747  21159844.3354   21159850.4524
     -1059.8124
  -5492608.99247  -4164087.56346  22123416.1474   22123422.2064
     -2322.3914
  -1912976.36544  -1255082.11445  24954104.1084   24954112.0224
      1683.3444
  -9549298.63448  -2939497.44247  22630510.2574   22630516.5734
      -144.2034
   4503950.67844   3640023.60745  24688832.4604   24688840.0344
     -4292.5624
 01 10  2  1 20  0.0030000  0  9G13G 7G11G28G 8G27G26G 2G31
  15429779.19545  12377444.17145  25251909.6714   25251920.7494
     -4829.6254
  -6063485.06745  -4569375.23446  24150725.1714   24150736.3664
      2182.0474
   -571644.86244   -388216.82845  25441481.4684   25441491.2694
       764.1254
 -13579174.52247 -10304179.71547  21786803.3824   21786808.4564
      -772.4374
 -13995415.23648 -10775831.61347  21162881.2964   21162887.3314
     -1066.9694
  -5457710.73347  -4136894.10846  22130056.8824   22130062.9994
     -2329.4374
  -1938166.51344  -1274710.67545  24949309.2654   24949319.2654
      1676.5944
  -9547093.05147  -2937778.76847  22630929.7184   22630935.9764
      -148.5944
   4568394.49945   3690239.59845  24701097.5304   24701103.8234
     -4298.6724
 01 10  2  1 20 15.0030000  0  9G13G 7G11G28G 8G27G26G 2G31
  15502245.23745  12433911.05945  25265700.3194   25265713.8704
     -4831.9694
  -6096179.20745  -4594851.06546  24144503.2414   24144514.4724
      2177.6884
   -583062.37745   -397113.47845  25439309.5224   25439317.2494
       758.7344
 -13567539.38347 -10295113.35047  21789017.2724   21789022.4644
      -778.3914
 -13979352.64548 -10763315.28647  21165938.3044   21165944.2104
     -1074.1724
  -5422712.12947  -4109622.46946  22136717.1324   22136723.1324
     -2336.5164
  -1963261.27245  -1294264.95745  24944534.9834   24944544.9604
      1669.8754
  -9544827.08148  -2936013.03947  22631360.8974   22631367.0154
      -153.0004
   4632924.48144   3740522.68345  24713375.5074   24713384.3474
     -4304.7974
 01 10  2  1 20 30.0030000  0  9G13G 7G11G28G 8G27G26G 2G31
  15574746.37445  12490405.31845  25279497.2964   25279507.3544
     -4834.3914
  -6128807.63146  -4620275.63046  24138295.9374   24138307.3784
      2173.2034
   -594398.78645   -405946.95145  25437151.1794   25437159.9604
       753.2194
 -13555814.91347 -10285977.37447  21791248.4684   21791253.5894
      -784.4374
 -13963181.99648 -10750714.76347  21169015.2104   21169021.1044
     -1081.4694
  -5387607.47647  -4082268.19646  22143397.1634   22143403.2334
     -2343.6564
  -1988254.67245  -1313740.27745  24939778.9914   24939786.7184
      1663.0004
  -9542495.18848  -2934195.94247  22631804.6014   22631810.7294
      -157.4844
   4697545.87745   3790876.97045  24725674.1714   24725683.0114
     -4310.9534
 01 10  2  1 20 45.0030000  0  9G13G 7G11G28G 8G27G26G 2G31
  15647273.83545  12546920.11745  25293298.3514   25293307.9644
     -4835.8124
  -6161378.60445  -4645655.47946  24132096.6944   24132108.2534
      2169.6884
   -605662.33443   -414723.61445  25435007.7574   25435018.2964
       748.6884
 -13544009.64747 -10276778.43747  21793494.7964   21793499.9994
      -789.4844
 -13946911.69148 -10738036.58347  21172111.2654   21172117.1594
     -1087.7974
  -5352405.24247  -4054837.87946  22150096.0934   22150102.1044
     -2349.8444
  -2013155.05444  -1333143.06445  24935039.6554   24935048.5654
      1657.1724
  -9540105.91548  -2932334.13947  22632259.3824   22632265.4874
      -160.9844
   4762249.80944   3841295.65745  24737985.5154   24737994.3084
     -4316.0944
 01 10  2  1 21  0.0030000  0  9G13G 7G11G28G 8G27G26G 2G31
  15719825.53445  12603453.76545  25307103.8274   25307115.0464
     -4838.1564
  -6193893.56645  -4670991.67246  24125909.1874   24125920.2654
      2165.2034
   -616854.43243   -423444.63245  25432875.5384   25432885.8664
       743.2034
 -13532125.50347 -10267518.03547  21795756.2264   21795761.2764
      -795.4844
 -13930543.52048 -10725282.14247  21175226.2104   21175232.3514
     -1095.0474
  -5317107.21747  -4027332.91946  22156813.1474   22156819.2884
     -2356.9694
  -2037963.73345  -1352474.40045  24930319.7024   24930328.5544
      1650.2504
  -9537661.17948  -2930429.11447  22632724.3274   22632730.4684
      -165.4064
   4827034.05044   3891776.81745  24750313.5774   24750323.0154
     -4322.2194
 01 10  2  1 21 15.0030000  0  9G13G 7G11G28G 8G27G26G 2G31
  15792400.77345  12660005.79745  25320915.1164   25320928.3394
     -4839.0164
  -6226352.63945  -4696284.29345  24119731.8434   24119743.0384
      2162.1724
   -627975.22643   -432109.96445  25430759.7334   25430769.5464
       739.1094
 -13520162.99947 -10258196.57547  21798032.6084   21798037.5774
      -800.0004
 -13914077.59248 -10712451.52847  21178359.5074   21178365.4254
     -1100.8754
  -5281713.75447  -3999753.59546  22163547.9134   22163554.0304
     -2362.6414
  -2062680.82645  -1371734.45345  24925614.5694   24925621.6874
      1644.8754
  -9535161.47247  -2928481.25747  22633199.9374   22633206.0894
      -168.3914
   4891897.82845   3942320.02845  24762658.5304   24762665.9524
     -4326.7974
 01 10  2  1 21 30.0030000  0  9G13G 7G11G28G 8G27G26G 2G31
  15864995.98645  12716573.35145  25334729.6324   25334742.9724
     -4840.6874
  -6258758.84145  -4721535.72846  24113565.3584   24113576.5304
      2158.2974
   -639027.45844   -440722.02045  25428658.3824   25428667.1634
       734.1724
 -13508125.51647 -10248816.69747  21800323.3124   21800328.3514
      -805.3444
 -13897517.13448 -10699547.25647  21181510.7414   21181516.6834
     -1107.5164
  -5246227.98347  -3972102.34246  22170301.1634   22170307.1404
     -2369.1414
  -2087309.39744  -1390925.41945  24920928.2024   24920938.1084
      1638.5784
  -9532610.00448  -2926493.05947  22633685.6164   22633691.5934
      -172.1724
   4956837.58745   3992922.54345  24775014.1164   24775022.0304
     -4332.2034
 01 10  2  1 21 45.0030000  0  9G13G 7G11G28G 8G27G26G 2G31
  15937598.64844  12773146.72745  25348545.9054   25348558.0854
     -4840.5944
  -6291123.93145  -4746755.13345  24107406.6944   24107418.3474
      2156.1254
   -650023.18543   -449290.02145  25426564.0304   25426570.4874
       730.9844
 -13496025.28347 -10239387.91747  21802625.7264   21802630.7294
      -808.9534
 -13880874.14848 -10686578.67747  21184677.7264   21184683.7264
     -1112.4534
  -5210662.04947  -3944388.62746  22177068.5624   22177074.7024
     -2373.9064
  -2111861.22045  -1410056.61845  24916256.4684   24916264.2764
      1634.0314
  -9530019.04447  -2924474.09147  22634178.4214   22634184.6554
      -174.2194
   5021840.93244   4043574.50345  24787385.4914   24787394.7414
     -4335.8444
 01 10  2  1 22  0.0030000  0  9G13G 7G11G28G 8G27G26G 2G31
  16010221.31444  12829735.69145  25362364.9054   25362377.1084
     -4842.4694
  -6323435.04845  -4771932.48346  24101257.5934   24101268.8584
      2151.9224
   -660949.16043   -457803.64045  25424484.7024   25424491.7144
       725.7504
 -13483849.52847 -10229900.29347  21804942.5694   21804947.7494
      -814.5474
 -13864135.82648 -10673535.80547  21187863.0464   21187869.0694
     -1119.3914
  -5175003.10247  -3916602.42246  22183854.4684   22183860.5504
     -2380.6874
  -2136323.14145  -1429117.77945  24911602.1554   24911611.9564
      1627.4694
  -9527375.82547  -2922414.40547  22634681.7654   22634687.7764
      -178.2814
   5086920.20543   4094285.60945  24799767.9294   24799775.1634
     -4341.4844
 01 10  2  1 22 15.0030000  0  9G13G 7G11G28G 8G27G26G 2G31
  16082876.63945  12886350.14445  25376191.8124   25376202.9954
     -4844.8444
  -6355678.74845  -4797057.30846  24095121.8514   24095132.7064
      2147.2664
   -671791.89643   -466252.43345  25422420.7884   25422429.7334
       720.0004
 -13471585.31547 -10220343.73847  21807276.5154   21807281.6944
      -820.6254
 -13847288.94648 -10660408.34747  21191068.9374   21191074.9484
     -1126.8124
  -5139238.06447  -3888733.55446  22190660.2414   22190666.2414
     -2387.9374
  -2160681.88444  -1448098.56545  24906965.7414   24906974.2294
      1620.4064
  -9524667.37648  -2920303.88947  22635197.0854   22635203.0384
      -182.7974
   5152088.01045   4145065.68145  24812170.1244   24812177.9094
     -4347.5314
 01 10  2  1 22 30.0030000  0  9G13G 7G11G28G 8G27G26G 2G31
  16155561.53044  12942987.50745  25390023.1244   25390034.6594
     -4847.1564
  -6387857.51945  -4822131.53046  24088997.0934   24089007.9374
      2142.5784
   -682554.00344   -474638.31445  25420375.5154   25420384.3084
       714.2504
 -13459235.62547 -10210720.57047  21809626.7104   21809631.6674
      -826.6724
 -13830336.22748 -10647198.41347  21194295.0624   21194300.9794
     -1134.2344
  -5103369.74047  -3860784.21146  22197485.9684   22197491.9094
     -2395.1724
  -2184939.95845  -1467000.85545  24902349.9994   24902358.2294
      1613.3284
  -9521896.60748  -2918144.81547  22635724.3904   22635730.5894
      -187.3124
   5217341.22545   4195912.33645  24824586.9294   24824594.1284
     -4353.5784
 01 10  2  1 22 45.0030000  0  9G13G 7G11G28G 8G27G26G 2G31
  16228293.44143  12999661.66745  25403862.6324   25403874.9524
     -4849.9844
  -6419953.40346  -4847141.15846  24082891.6244   24082902.7844
      2137.3134
   -693217.41943   -482947.39545  25418344.3514   25418350.3624
       707.9844
 -13446782.78647 -10201017.03947  21811996.2884   21812001.4334
      -833.2504
 -13813259.69348 -10633892.00547  21197544.2964   21197550.2144
     -1142.1874
  -5067380.32947  -3832740.50446  22204334.3514   22204340.3864
     -2402.9694
  -2209079.32845  -1485810.66745  24897756.2184   24897766.1364
      1605.7034
  -9519045.76448  -2915923.34347  22636266.6014   22636272.6474
      -192.3444
   5282697.20045   4246839.11345  24837023.6714   24837031.4914
     -4360.1094
 01 10  2  1 23  0.0030000  0  9G13G 7G11G28G 8G27G26G 2G31
  16301052.65444  13056356.93645  25417709.3514   25417721.7764
     -4851.1564
  -6451985.56745  -4872101.12646  24076793.8194   24076804.6284
      2133.7034
   -703801.25445   -491194.38645  25416332.7334   25416341.8084
       703.2814
 -13434246.20247 -10191248.24947  21814381.9134   21814387.0584
      -838.2034
 -13796078.62748 -10620504.13947  21200813.9684   21200819.9794
     -1148.5474
  -5031289.15447  -3804617.49746  22211202.4054   22211208.4294
     -2409.1094
  -2233118.93345  -1504542.75645  24893182.4214   24893190.6634
      1599.6724
  -9516134.38648  -2913654.70047  22636820.6944   22636826.7764
      -195.7504
   5348136.29544   4297830.65645  24849476.0464   24849483.6794
     -4365.0004
 01 10  2  1 23 15.0030000  0  9G13G 7G11G28G 8G27G26G 2G31
  16373843.82144  13113077.25745  25431561.3194   25431573.2414
     -4853.6414
  -6483948.55045  -4897007.22046  24070712.5384   24070723.1124
      2128.7194
   -714300.05443   -499375.11745  25414332.1944   25414340.1084
       697.2194
 -13421620.97547 -10181410.38447  21816784.2884   21816789.3154
      -844.5004
 -13778788.03148 -10607030.92547  21204104.0694   21204110.0344
     -1156.2194
  -4995091.09147  -3776411.20946  22218090.6874   22218096.8514
     -2416.6254
  -2257053.50445  -1523192.99845  24888626.4054   24888634.8824
      1592.2664
  -9513157.42148  -2911334.95347  22637387.1794   22637393.3544
      -200.5004
   5413663.15944   4348890.61445  24861945.9914   24861954.7614
     -4371.2194
 01 10  2  1 23 30.0030000  0  9G13G 7G11G28G 8G27G26G 2G31
  16446662.30343  13169818.81245  25445417.3194   25445432.3824
     -4854.6724
  -6515846.47645  -4921862.60646  24064641.6634   24064652.1554
      2125.1564
   -724717.82643   -507492.80945  25412349.4214   25412357.4054
       692.6094
 -13408911.50647 -10171506.87747  21819202.8514   21819207.8904
      -849.3124
 -13761391.93948 -10593475.50647  21207414.5774   21207420.6364
     -1162.4534
  -4958790.41947  -3748124.95546  22224998.3744   22225004.5264
     -2422.6724
  -2280887.05245  -1541764.51445  24884091.7024   24884101.7144
      1586.3284
  -9510119.21048  -2908967.47947  22637965.1474   22637971.3474
      -203.7814
   5479273.15044   4400015.27145  24874430.7964   24874439.4834
     -4375.9844
 01 10  2  1 23 45.0040000  0  9G13G 7G11G28G 8G27G26G 2G31
  16519505.47244  13226579.58245  25459279.0514   25459292.9064
     -4856.3754
  -6547688.31945  -4946674.28346  24058582.7774   24058593.4224
      2120.8594
   -735062.05943   -515553.09345  25410381.1214   25410391.2854
       687.2504
 -13396124.27047 -10161542.76847  21821636.3554   21821641.4774
      -854.8284
 -13743896.30348 -10579842.52047  21210743.7624   21210749.7034
     -1169.4224
  -4922391.90847  -3719762.46646  22231924.7304   22231930.8364
     -2429.4374
  -2304628.01745  -1560263.88145  24879573.8404   24879583.5594
      1579.6724
  -9507026.84248  -2906557.80247  22638553.6684   22638559.6334
      -207.7814
   5544963.07745   4451202.20245  24886931.2384   24886939.8094
     -4381.3914
 01 10  2  1 24  0.0040000  0  9G13G 7G11G28G 8G27G26G 2G31
  16592356.50244  13283346.46345  25473142.8244   25473156.4344
     -4857.2974
  -6579476.58346  -4971444.22846  24052533.4574   24052543.7504
      2117.3594
   -745337.95045   -523560.14845  25408429.0664   25408434.9964
       682.6564
 -13383267.92147 -10151524.80247  21824082.6604   21824087.7464
      -859.5474
 -13726310.37148 -10566139.17447  21214090.1684   21214096.2274
     -1175.5784
  -4885907.26747  -3691332.86246  22238867.3554   22238873.4264
     -2435.3914
  -2328279.91945  -1578693.87545  24875073.4804   24875082.2034
      1573.7194
  -9503887.73248  -2904111.70647  22639151.0194   22639157.1024
      -210.9694
   5610716.88245   4502438.93945  24899443.6764   24899452.5864
     -4385.9844
 01 10  2  1 24 15.0040000  0  9G13G 7G11G28G 8G27G26G 2G31
  16665214.43044  13340118.76545  25487006.7774   25487018.8754
     -4857.9694
  -6611218.51245  -4996178.04846  24046492.4414   24046503.0044
      2114.0474
   -755551.41544   -531518.63745  25406482.0594   25406490.1954
       678.2664
 -13370347.12847 -10141456.62147  21826541.1844   21826546.4924
      -864.0624
 -13708638.16648 -10552368.60147  21217453.2304   21217459.2894
     -1181.5784
  -4849339.52347  -3662838.50846  22245826.3164   22245832.3524
     -2441.1564
  -2351849.50345  -1597059.71345  24870587.9734   24870597.1294
      1568.0164
  -9500707.20448  -2901633.33647  22639756.1134   22639762.1724
      -213.9534
   5676533.19845   4553724.44045  24911968.9184   24911974.9184
     -4390.3594
 01 10  2  1 24 30.0040000  0  9G13G 7G11G28G 8G27G26G 2G31
  16738098.85345  13396911.69345  25500877.5824   25500889.3284
     -4859.5624
  -6642893.77046  -5020859.93946  24040465.4964   24040476.1414
      2109.7194
   -765682.11344   -539412.52645  25404555.6374   25404565.0394
       672.8754
 -13357341.97847 -10131322.71547  21829016.0354   21829021.2034
      -869.5474
 -13690859.61448 -10538515.16247  21220836.2074   21220842.1844
     -1188.5164
  -4812668.58447  -3634263.73946  22252804.5664   22252810.5434
     -2447.9064
  -2375316.28845  -1615345.40545  24866121.5594   24866129.6604
      1561.2814
  -9497465.26248  -2899107.11547  22640373.0514   22640379.1214
      -217.9064
   5742431.59544   4605073.82945  24924508.0664   24924514.3484
     -4395.6724
 01 10  2  1 24 45.0040000  0  9G13G 7G11G28G 8G27G26G 2G31
  16811004.76544  13453721.30545  25514750.3164   25514765.0864
     -4860.8594
  -6674507.07345  -5045493.54646  24034448.5274   24034459.8164
      2105.7034
   -775734.64143   -547245.51545  25402640.9734   25402651.1724
       667.7664
 -13344257.57847 -10121127.05447  21831505.8944   21831510.9804
      -874.7194
 -13672979.54048 -10524582.62147  21224238.6134   21224244.7544
     -1195.1724
  -4775899.32347  -3605612.35046  22259801.3634   22259807.4104
     -2454.3444
  -2398685.06845  -1633554.75845  24861675.4494   24861684.2424
      1554.8754
  -9494166.94148  -2896536.95747  22641000.5044   22641006.6094
      -221.5474
   5808406.85143   4656483.07745  24937062.8094   24937071.7544
     -4400.6874
 01 10  2  1 25  0.0040000  0  9G13G 7G11G28G 8G27G26G 2G31
  16883938.71344  13510552.88345  25528628.4734   25528643.2894
     -4863.4374
  -6706051.06446  -5070073.13746  24028447.3554   24028458.6684
      2100.3754
   -785701.47843   -555011.81045  25400744.1214   25400752.5164
       661.3284
 -13331086.94247 -10110864.19247  21834012.3554   21834017.4184
      -881.1564
 -13654990.80148 -10510565.39247  21227661.7384   21227667.7974
     -1203.1094
  -4739024.72147  -3576878.88446  22266818.2934   22266824.3754
     -2462.0624
  -2421948.49945  -1651682.07645  24857248.0824   24857255.1054
      1547.1254
  -9490805.26548  -2893917.43647  22641640.4574   22641646.4694
      -226.4694
   5874465.59644   4707957.44345  24949633.8244   24949642.1844
     -4406.9224
 01 10  2  1 25 15.0040000  0  9G13G 7G11G28G 8G27G26G 2G31
  16956924.52745  13567424.79245  25542518.9734   25542534.0944
     -4865.8914
  -6737501.40645  -5094579.76946  24022460.8484   24022471.7384
      2095.0944
   -795558.19845   -562692.25645  25398869.7774   25398875.6954
       654.9844
 -13317806.04247 -10100515.41147  21836539.5664   21836544.6644
      -887.5164
 -13636869.06648 -10496444.53647  21231110.2774   21231116.2424
     -1211.0004
  -4702020.57247  -3548044.47446  22273859.6994   22273865.7234
     -2469.7194
  -2445082.00845  -1669708.12445  24852844.5434   24852853.9924
      1539.4384
  -9487356.08148  -2891229.72247  22642296.8014   22642302.9414
      -231.3124
   5940631.62145   4759515.34345  24962224.5984   24962233.3324
     -4413.0944
 01 10  2  1 25 30.0040000  0  9G13G 7G11G28G 8G27G26G 2G31
  17029929.98744  13624312.05545  25556410.7304   25556423.8944
     -4867.7814
  -6768889.64646  -5119037.98046  24016489.3404   24016500.4414
      2090.3914
   -805336.51444   -570311.66745  25397009.4024   25397019.6024
       649.1724
 -13304446.89647 -10090105.65847  21839081.6914   21839086.6724
      -893.3124
 -13618646.27948 -10482244.94147  21234577.9024   21234583.8914
     -1218.3124
  -4664918.80247  -3519133.98946  22280920.3874   22280926.3524
     -2476.7974
  -2468117.30245  -1687657.59145  24848461.9494   24848470.9884
      1532.3134
  -9483851.46048  -2888498.80747  22642963.4654   22642969.4654
      -235.5784
   6006872.61845   4811131.73845  24974830.0274   24974838.5164
     -4418.6414
 01 10  2  1 25 45.0040000  0  9G13G 7G11G28G 8G27G26G 2G31
  17102950.08643  13681210.67545  25570306.4654   25570322.0434
     -4869.4064
  -6800220.24245  -5143451.31246  24010526.0514   24010536.5314
      2085.8594
   -815040.58743   -577873.16545  25395161.4104   25395169.1604
       643.5474
 -13291014.23447 -10079638.62547  21841637.8324   21841642.6484
      -898.8594
 -13600326.84348 -10467970.03947  21238063.9964   21238069.9144
     -1225.4374
  -4627723.98747  -3490151.00746  22287998.0904   22288003.9614
     -2483.6564
  -2491058.75645  -1705533.97645  24844096.7624   24844105.8244
      1525.3754
  -9480296.03348  -2885728.30947  22643640.1054   22643646.0824
      -239.6254
   6073183.72444   4862802.78945  24987447.3244   24987456.8794
     -4423.9694
 01 10  2  1 26  0.0040000  0  9G13G 7G11G28G 8G27G26G 2G31
  17176002.24344  13738134.28845  25584207.8634   25584221.1684
     -4870.5314
  -6831475.21546  -5167805.69746  24004579.3634   24004590.3124
      2081.8444
   -824652.65943   -585362.97445  25393331.6524   25393341.4304
       638.4064
 -13277490.53647 -10069100.65047  21844211.2774   21844216.3524
      -903.9374
 -13581893.10748 -10453606.07147  21241571.8404   21241577.8284
     -1232.0474
  -4590418.48347  -3461081.77546  22295096.8404   22295103.0394
     -2490.0474
  -2513888.38245  -1723323.23745  24839752.3714   24839760.5194
      1518.9384
  -9476672.29348  -2882904.58347  22644329.7304   22644335.8594
      -243.1724
   6139582.08945   4914541.73145  25000084.4184   25000092.2034
     -4428.7504
 01 10  2  1 26 15.0040000  0  9G13G 7G11G28G 8G27G26G 2G31
  17249078.83243  13795076.96645  25598114.1294   25598127.5514
     -4871.6874
  -6862661.63746  -5192106.66846  23998644.2234   23998654.9734
      2077.6884
   -834179.50144   -592786.31845  25391519.5904   25391528.1254
       633.1564
 -13263883.16947 -10058497.48347  21846800.5274   21846805.6374
      -909.0474
 -13563352.22548 -10439158.61247  21245100.0354   21245105.9064
     -1238.7344
  -4553009.53347  -3431931.93146  22302215.8484   22302222.1874
     -2496.4844
  -2536613.12145  -1741030.74045  24835427.7694   24835436.2344
      1512.3914
  -9472987.59548  -2880033.34647  22645030.7694   22645036.7694
      -246.7814
   6206060.13143   4966342.78745  25012732.1294   25012741.0164
     -4433.6414
 01 10  2  1 26 30.0040000  0  9G13G 7G11G28G 8G27G26G 2G31
  17322161.33344  13852024.22745  25612021.6444   25612032.6174
     -4873.2034
  -6893797.40846  -5216368.15546  23992719.6914   23992730.1024
      2073.1724
   -843639.04444   -600157.31145  25389719.3554   25389727.2694
       627.5474
 -13250210.36847 -10047843.32747  21849402.4574   21849407.5084
      -914.5474
 -13544722.15848 -10424641.65847  21248645.1054   21248651.1054
     -1245.8124
  -4515515.22447  -3402715.57746  22309350.4104   22309356.4574
     -2503.3124
  -2559250.89545  -1758670.46645  24831119.0274   24831128.8754
      1505.4534
  -9469260.10648  -2877128.77247  22645740.0664   22645746.0434
      -250.7664
   6272599.36144   5018191.43245  25025396.4184   25025402.4884
     -4438.8124
 01 10  2  1 26 45.0040000  0  9G13G 7G11G28G 8G27G26G 2G31
  17395271.89044  13908993.37045  25625933.5824   25625945.7274
     -4874.6254
  -6924859.68746  -5240572.39646  23986808.9884   23986819.3164
      2068.6884
   -853008.46544   -607458.08245  25387937.4734   25387945.5394
       621.9384
 -13236449.65947 -10037120.67047  21852020.9654   21852026.0624
      -919.9534
 -13525980.46948 -10410037.72647  21252211.5514   21252217.4924
     -1252.8284
  -4477912.96947  -3373415.10946  22316506.0514   22316512.0744
     -2510.0784
  -2581778.81745  -1776224.59445  24826832.3404   24826840.8284
      1498.5474
  -9465467.37848  -2874173.36447  22646461.7694   22646467.8984
      -254.6874
   6339221.79945   5070105.01445  25038073.9344   25038080.8874
     -4443.9224
 01 10  2  1 27  0.0040000  0  9G13G 7G11G28G 8G27G26G 2G31
  17468400.50043  13965976.52845  25639849.4344   25639864.3794
     -4876.3594
  -6955857.90146  -5264726.71146  23980909.5744   23980920.2664
      2063.8594
   -862297.13643   -614695.92745  25386165.6524   25386172.3094
       616.0474
 -13222610.97347 -10026337.25347  21854654.4414   21854659.2584
      -925.7034
 -13507136.62648 -10395354.19347  21255797.5434   21255803.4964
     -1260.1874
  -4440212.54947  -3344038.15446  22323680.4104   22323686.3524
     -2517.1724
  -2604206.36745  -1793700.55945  24822565.8634   24822572.6024
      1491.2974
  -9461619.30148  -2871174.82747  22647193.7234   22647199.8524
      -258.9064
   6405917.37345   5122075.64245  25050766.0744   25050775.6874
     -4449.3284
 01 10  2  1 27 15.0040000  0  9G13G 7G11G28G 8G27G26G 2G31
  17541556.59744  14022981.19345  25653770.8794   25653788.9184
     -4877.3594
  -6986782.17746  -5288823.41846  23975024.7384   23975035.3484
      2059.7664
   -871495.06043   -621862.98745  25384418.3244   25384426.3674
       610.7664
 -13208684.63447 -10015485.53747  21857304.5044   21857309.4494
      -930.7344
 -13488180.72848 -10380583.34547  21259404.6054   21259410.5824
     -1266.8444
  -4402404.19347  -3314577.09346  22330874.7934   22330880.8284
     -2523.5474
  -2626523.55745  -1811090.52845  24818317.6994   24818326.2344
      1484.7344
  -9457706.21048  -2868125.62447  22647938.6524   22647944.6294
      -262.4224
   6472695.52145   5174110.52845  25063472.8554   25063478.1644
     -4454.0164
 01 10  2  1 27 30.0040000  0  9G13G 7G11G28G 8G27G26G 2G31
  17614729.86943  14079999.18745  25667695.3874   25667710.1094
     -4879.0314
  -7017642.13346  -5312869.99746  23969152.0664   23969161.7854
      2054.9224
   -880611.84644   -628966.85045  25382683.0594   25382693.6444
       604.8134
 -13194680.68447 -10004573.34947  21859969.2384   21859974.3364
      -936.4374
 -13469122.79148 -10365732.98847  21263031.3954   21263037.4534
     -1274.2034
  -4364497.94447  -3285039.75046  22338088.3404   22338094.3754
     -2530.6094
  -2648740.08845  -1828402.00745  24814089.8324   24814098.8834
      1477.4694
  -9453738.12948  -2865033.57647  22648693.7384   22648699.8204
      -266.6414
   6539545.88845   5226201.72345  25076194.1524   25076199.3794
     -4459.3594
 01 10  2  1 27 45.0040000  0  9G13G 7G11G28G 8G27G26G 2G31
  17687930.27543  14137038.28645  25681625.1374   25681639.6134
     -4881.2974
  -7048427.33046  -5336858.32346  23963293.9654   23963304.2114
      2049.4384
   -889636.85345   -635999.20145  25380968.3794   25380975.3914
       598.2504
 -13180589.12647  -9993592.88847  21862650.8164   21862655.7504
      -942.7344
 -13449952.42848 -10350795.02647  21266679.3324   21266685.4144
     -1282.1564
  -4326483.46847  -3255418.07946  22345322.3714   22345328.4654
     -2538.2814
  -2670845.36645  -1845626.86245  24809883.4414   24809891.4024
      1469.6254
  -9449704.86548  -2861890.73947  22649461.2544   22649467.2304
      -271.4224
   6606478.46744   5278357.03445  25088930.6764   25088939.0234
     -4465.2814
 01 10  2  1 28  0.0040000  0  9G13G 7G11G28G 8G27G26G 2G31
  17761154.57943  14194096.05745  25695559.2234   25695570.9694
     -4881.5474
  -7079140.49646  -5360790.52646  23957448.4344   23957458.8914
      2046.0004
   -898572.92845   -642962.25145  25379265.7624   25379271.5164
       593.5944
 -13166413.03447  -9982546.55847  21865348.4574   21865353.3324
      -947.0474
 -13430672.58548 -10335771.75647  21270348.0044   21270353.9104
     -1288.1414
  -4288363.80847  -3225714.43746  22352576.1844   22352582.2194
     -2543.9844
  -2692842.13145  -1862767.10145  24805698.1444   24805707.0194
      1463.6724
  -9445609.57248  -2858699.55847  22650240.3634   22650246.5514
      -274.2504
   6673489.71645   5330573.51245  25101683.2624   25101691.1174
     -4469.1874
 01 10  2  1 28 15.0040000  0  9G13G 7G11G28G 8G27G26G 2G31
  17834390.15143  14251162.67345  25709494.8794   25709505.3014
     -4882.9534
  -7109793.43146  -5384675.78546  23951615.7234   23951625.7464
      2041.2974
   -907431.88345   -649865.20945  25377579.4884   25377587.6374
       587.8134
 -13152164.56947  -9971443.83647  21868059.7854   21868064.9184
      -952.5164
 -13411295.19548 -10320672.48147  21274035.3874   21274041.3164
     -1295.2974
  -4250150.98647  -3195938.20946  22359847.8554   22359853.9494
     -2550.8444
  -2714742.19945  -1879832.02645  24801531.1994   24801539.0084
      1456.5784
  -9441464.36548  -2855469.49547  22651029.2624   22651035.2974
      -278.2194
   6740567.19845   5382841.61045  25114447.7464   25114455.8714
     -4474.2504
 01 10  2  1 28 30.0040000  0  9G13G 7G11G28G 8G27G26G 2G31
  17907652.04043  14308249.65645  25723436.0124   25723450.5704
     -4885.2034
  -7140370.66245  -5408502.07446  23945795.5594   23945805.9104
      2035.7814
   -916198.08844   -656695.93845  25375911.1374   25375919.8714
       581.1094
 -13137828.52747  -9960272.87547  21870787.9574   21870792.9264
      -958.8594
 -13391804.87748 -10305485.20347  21277744.1134   21277750.0084
     -1303.3284
  -4211829.71347  -3166077.47246  22367139.9884   22367146.0124
     -2558.5624
  -2736529.99945  -1896809.50045  24797384.5194   24797394.1214
      1448.5634
  -9437254.07948  -2852188.71247  22651830.5044   22651836.5394
      -283.0474
   6807725.90845   5435173.01345  25127227.8634   25127236.8914
     -4480.1414
 01 10  2  1 28 45.0040000  0  9G13G 7G11G28G 8G27G26G 2G31
  17980935.21343  14365353.29545  25737382.4414   25737395.2304
     -4886.3124
  -7170876.58346  -5432272.79046  23939990.9804   23940001.2504
      2031.2814
   -924875.89944   -663457.77345  25374259.0664   25374268.7854
       575.5004
 -13123409.79547  -9949037.47747  21873531.5514   21873536.6374
      -964.0784
 -13372206.32248 -10290213.58847  21281473.8404   21281479.7584
     -1310.2504
  -4173404.72447  -3136135.91446  22374451.8014   22374457.8944
     -2565.1874
  -2758209.90945  -1913702.84545  24793259.1524   24793267.4064
      1441.6564
  -9432983.50748  -2848860.95347  22652642.8874   22652648.9694
      -286.7814
   6874960.75245   5487563.83945  25140022.0274   25140028.9454
     -4484.9224
 01 10  2  1 29  0.0040000  0  9G13G 7G11G28G 8G27G26G 2G31
  18054241.93343  14422475.35845  25751331.9734   25751342.8984
     -4887.2504
  -7201308.32246  -5455985.68746  23934200.4964   23934210.6024
      2026.9534
   -933462.27244   -670148.29745  25372625.5664   25372634.9924
       570.0004
 -13108905.77147  -9937735.62247  21876291.6374   21876296.7814
      -969.1414
 -13352496.82048 -10274855.51847  21285224.4654   21285230.4304
     -1317.0314
  -4134873.27547  -3106111.40446  22381784.2304   22381790.4064
     -2571.6724
  -2779779.12045  -1930509.97245  24789154.7544   24789163.0664
      1434.9064
  -9428649.99448  -2845484.15647  22653467.8094   22653473.9024
      -290.3594
   6942274.03145   5540015.74845  25152831.7234   25152839.5554
     -4489.5164
 01 10  2  1 29 15.0040000  0  9G13G 7G11G28G 8G27G26G 2G31
  18127556.15043  14479603.04545  25765283.6844   25765295.4184
     -4887.9224
  -7231681.30346  -5479652.80146  23928420.8874   23928429.8794
      2022.8594
   -941972.75443   -676779.77245  25371004.4884   25371016.0704
       564.7974
 -13094332.31647  -9926379.65947  21879064.9344   21879070.0084
      -973.9224
 -13332691.83248 -10259423.04747  21288993.0664   21288999.1254
     -1323.5624
  -4096251.06347  -3076016.16946  22389133.8324   22389139.9024
     -2577.8914
  -2801252.97145  -1947242.76945  24785067.8554   24785075.2544
      1428.3134
  -9424269.33348  -2842070.61247  22654301.2464   22654307.1764
      -293.6564
   7009649.57845   5592516.19745  25165652.1134   25165659.4064
     -4493.8284
 01 10  2  1 29 30.0040000  0  9G13G 7G11G28G 8G27G26G 2G31
  18200893.09143  14536748.65545  25779238.5664   25779252.2344
     -4889.6724
  -7261979.93546  -5503261.99146  23922656.2624   23922666.1334
      2017.6414
   -950391.61144   -683339.76245  25369403.6604   25369414.8444
       558.4064
 -13079674.12847  -9914957.67547  21881854.1374   21881859.0124
      -979.8124
 -13312776.04748 -10243904.24147  21292782.8634   21292788.8754
     -1331.2034
  -4057522.72747  -3045838.23846  22396503.6844   22396509.6954
     -2585.2194
  -2822615.81645  -1963889.07945  24781002.6604   24781009.7194
      1420.6884
  -9419826.27748  -2838608.45847  22655146.7694   22655152.8164
      -298.0624
   7077102.51444   5645076.97045  25178487.8874   25178495.6024
     -4499.2034
 01 10  2  1 29 45.0040000  0  9G13G 7G11G28G 8G27G26G 2G31
  18274246.34743  14593906.85845  25793198.1134   25793213.1174
     -4890.6874
  -7292210.00746  -5526817.76246  23916902.2854   23916911.7464
      2013.0944
   -958724.48045   -689832.80145  25367819.8404   25367827.5664
       552.7034
 -13064937.39547  -9903474.48847  21884658.6134   21884663.6644
      -985.0004
 -13292755.35848 -10228303.68647  21296592.6914   21296598.7034
     -1338.1564
  -4018694.29347  -3015582.30846  22403892.4344   22403898.6804
     -2591.8284
  -2843873.38645  -1980453.37645  24776957.7774   24776966.2894
      1413.7194
  -9415326.88248  -2835102.40047  22656003.0434   22656009.0554
      -301.7814
   7144626.42843   5697692.95945  25191336.5194   25191341.4064
     -4503.8914
 01 10  2  1 30  0.0040000  0  9G13G 7G11G28G 8G27G26G 2G31
  18347618.38543  14651079.80145  25807160.2464   25807178.5784
     -4892.5004
  -7322368.34646  -5550317.62746  23911162.6294   23911172.1724
      2007.7504
   -966968.31845   -696256.53745  25366250.3484   25366258.0164
       546.2034
 -13050119.29447  -9891927.89747  21887478.3244   21887483.3404
      -991.0004
 -13272626.74248 -10212619.03747  21300423.0514   21300429.0394
     -1345.9224
  -3979762.85247  -2985246.11646  22411300.9414   22411307.0124
     -2599.2814
  -2865022.45845  -1996933.11845  24772932.9414   24772940.5864
      1405.9224
  -9410768.38648  -2831550.29047  22656870.2694   22656876.3054
      -306.2814
   7212223.73343   5750366.26545  25204200.9734   25204208.4884
     -4509.3444
 01 10  2  1 30 15.0040000  0  9G13G 7G11G28G 8G27G26G 2G31
  18421007.07343  14708265.68445  25821125.9734   25821145.0314
     -4892.5624
  -7352456.57246  -5573762.88246  23905437.7154   23905447.1644
      2004.1094
   -975124.62045   -702611.96045  25364699.2384   25364705.7424
       541.4224
 -13035221.77547  -9880319.41847  21890313.1294   21890318.0164
      -995.2194
 -13252391.95548 -10196851.65047  21304273.5044   21304279.4344
     -1351.9224
  -3940730.23847  -2954831.09246  22418728.6994   22418734.7464
     -2604.9534
  -2886064.62845  -2013329.54145  24768928.1684   24768936.1294
      1399.8594
  -9406152.66448  -2827953.58747  22657748.7774   22657754.8944
      -309.0314
   7279892.30743   5803094.92445  25217077.6914   25217085.8164
     -4513.0004
 01 10  2  1 30 30.0040000  0  9G13G 7G11G28G 8G27G26G 2G31
  18494406.62643  14765459.88245  25835093.2464   25835109.9734
     -4893.8124
  -7382479.83046  -5597157.48346  23899724.4184   23899734.4064
      1999.2194
   -983198.56044   -708903.28545  25363159.9414   25363167.2464
       535.3914
 -13020250.46447  -9868653.44347  21893162.0594   21893166.9224
     -1000.6874
 -13232056.38748 -10181005.74147  21308143.1914   21308149.1914
     -1359.2034
  -3901601.99347  -2924341.54146  22426174.1994   22426180.3054
     -2611.8914
  -2907005.17945  -2029646.77145  24764943.8404   24764952.3984
      1392.5004
  -9401485.35048  -2824316.69047  22658636.6294   22658642.7814
      -313.0164
   7347626.19644   5855874.57845  25229966.8324   25229974.0434
     -4517.9064
 01 10  2  1 30 45.0040000  0  9G13G 7G11G28G 8G27G26G 2G31
  18567825.41443  14822669.21745  25849065.4574   25849080.8484
     -4895.5784
  -7412429.22246  -5620494.55346  23894024.8014   23894034.6954
      1993.7974
   -991181.19343   -715123.36645  25361639.5984   25361649.3164
       528.7344
 -13005196.78647  -9856923.28447  21896026.7464   21896031.5164
     -1006.7034
 -13211611.27948 -10165074.46747  21312033.9264   21312039.8204
     -1367.0314
  -3862369.32647  -2893770.62546  22433640.0824   22433646.1524
     -2619.3754
  -2927835.10745  -2045877.83245  24760979.1764   24760987.9574
      1384.5784
  -9396757.72548  -2820632.78947  22659536.3404   22659542.3284
      -317.5624
   7415433.91043   5908711.81845  25242869.9734   25242877.8874
     -4523.3444
 01 10  2  1 31  0.0040000  0  9G13G 7G11G28G 8G27G26G 2G31
  18641260.27543  14879891.06845  25863039.1844   25863056.0864
     -4895.9064
  -7442307.24546  -5643775.98946  23888337.8484   23888346.9924
      1989.7814
   -999074.78844   -721274.02045  25360138.4344   25360148.3404
       523.5634
 -12990063.53447  -9845131.12347  21898906.6214   21898911.5664
     -1011.2344
 -13191059.37548 -10149059.98347  21315944.8634   21315950.7934
     -1373.4064
  -3823034.97547  -2863120.47246  22441125.0984   22441131.1214
     -2625.3914
  -2948556.82845  -2062024.57845  24757036.2464   24757045.1444
      1378.1254
  -9391972.59748  -2816904.08647  22660446.9964   22660453.1484
      -320.6254
   7483312.20243   5961603.98445  25255787.3634   25255797.1524
     -4527.2814
 01 10  2  1 31 15.0040000  0  9G13G 7G11G28G 8G27G26G 2G31
  18714710.47043  14937124.85945  25877016.9654   25877027.9374
     -4896.8594
  -7472114.05046  -5667001.92146  23882667.6844   23882678.2934
      1985.0784
  -1006879.60445   -727355.60645  25358654.6054   25358663.3984
       517.6724
 -12974851.27947  -9833277.39147  21901801.2234   21901806.1214
     -1016.4694
 -13170400.81848 -10132962.38647  21319875.8324   21319881.8094
     -1380.4844
  -3783599.34547  -2832391.40246  22448629.3164   22448635.5044
     -2632.0944
  -2969170.45445  -2078087.10645  24753114.1994   24753122.3594
      1370.9694
  -9387130.52148  -2813131.00347  22661368.3164   22661374.3054
      -324.3754
   7551260.41543   6014550.66145  25268718.0434   25268726.1334
     -4531.8754
 01 10  2  1 31 30.0040000  0  9G13G 7G11G28G 8G27G26G 2G31
  18788171.39743  14994366.98745  25890996.4264   25891009.1914
     -4897.4534
  -7501853.73746  -5690175.58546  23877007.9734   23877017.6564
      1980.6724
  -1014599.53545   -733371.06645  25357186.2544   25357191.3984
       512.1094
 -12959564.41847  -9821365.53247  21904710.2074   21904715.1524
     -1021.3124
 -13149639.85548 -10116784.99347  21323826.4574   21323832.3524
     -1387.2034
  -3744066.76647  -2801586.78946  22456152.2624   22456158.2854
     -2638.4534
  -2989680.08245  -2094068.55445  24749211.3714   24749218.6294
      1364.1094
  -9382235.82648  -2809316.92847  22662299.6684   22662305.6804
      -327.7974
   7619273.68843   6067548.06645  25281659.3874   25281669.1994
     -4536.0944
 01 10  2  1 31 45.0040000  0  9G13G 7G11G28G 8G27G26G 2G31
  18861648.98443  15051622.08745  25904977.6054   25904989.4694
     -4898.8284
  -7531519.92546  -5713291.95746  23871362.2304   23871371.4344
      1975.5314
  -1022228.28145   -739315.48845  25355734.1444   25355741.2854
       505.7664
 -12944196.98147  -9809390.88047  21907634.3324   21907639.2194
     -1026.9534
 -13128770.34648 -10100523.02147  21327797.9024   21327803.7384
     -1394.6724
  -3704431.13947  -2770701.88046  22463694.6914   22463700.6564
     -2645.5784
  -3010079.37745  -2109964.06045  24745329.2074   24745336.5354
      1356.5004
  -9377282.50748  -2805457.16247  22663242.2074   22663248.0664
      -331.9374
   7687357.83043   6120600.70945  25294615.0984   25294619.0594
     -4541.0784
 01 10  2  1 32  0.0040000  0  9G13G 7G11G28G 8G27G26G 2G31
  18935134.20143  15108883.05645  25918961.8554   25918978.0784
     -4898.7344
  -7561120.93946  -5736357.55646  23865729.9494   23865739.7854
      1971.7344
  -1029774.12345   -745195.25145  25354298.8244   25354307.6054
       500.8134
 -12928757.62047  -9797360.19247  21910572.4344   21910577.3554
     -1031.1564
 -13107800.76248 -10084183.06647  21331788.4264   21331794.3554
     -1400.7814
  -3664701.03147  -2739743.34346  22471255.2304   22471261.3714
     -2651.2974
  -3030376.58745  -2125780.03745  24741466.1764   24741475.2384
      1350.2664
  -9372279.26048  -2801558.49847  22664194.4024   22664200.4494
      -334.6874
   7755504.00044   6173701.71445  25307583.6684   25307593.8444
     -4544.6094
 01 10  2  1 32 15.0040000  0  9G13G 7G11G28G 8G27G26G 2G31
  19008636.27543  15166157.33545  25932948.5044   25932964.8444
     -4901.1564
  -7590647.04246  -5759364.77746  23860110.8794   23860119.9304
      1965.4224
  -1037227.24445   -751002.81445  25352879.3244   25352884.9734
       493.2814
 -12913236.95547  -9785266.14447  21913525.8634   21913530.9964
     -1037.9064
 -13086721.53148 -10067757.67147  21335799.4104   21335805.4344
     -1409.4374
  -3624866.87947  -2708703.74146  22478835.2694   22478841.4344
     -2659.5624
  -3050561.80145  -2141508.70345  24737625.5514   24737633.8524
      1341.4534
  -9367216.54248  -2797613.49147  22665157.6604   22665163.7074
      -339.9694
   7823721.21745   6226858.06845  25320564.6214   25320571.8554
     -4550.6564
 01 10  2  1 32 30.0040000  0  9G13G 7G11G28G 8G27G26G 2G31
  19082146.63643  15223437.99645  25946937.2384   25946952.1724
     -4901.3914
  -7620106.13146  -5782319.78046  23854504.9884   23854514.8594
      1961.2814
  -1044595.61843   -756744.29845  25351475.6214   25351484.3794
       487.9534
 -12897643.47747  -9773115.35347  21916493.1914   21916498.2894
     -1042.4374
 -13065540.83748 -10051253.21747  21339829.8404   21339835.7584
     -1415.8594
  -3584937.06547  -2677589.58446  22486433.6294   22486439.6764
     -2665.6254
  -3070643.14945  -2157156.43745  24733804.4494   24733812.2234
      1334.8284
  -9362102.79648  -2793628.72447  22666130.6684   22666136.6804
      -343.0474
   7892000.78644   6280063.00045  25333558.0274   25333565.0624
     -4554.4694
 01 10  2  1 32 45.0040000  0  9G13G 7G11G28G 8G27G26G 2G31
  19155676.53643  15280733.83645  25960929.5664   25960940.7384
     -4901.8444
  -7649486.45646  -5805213.41546  23848914.0124   23848923.5664
      1956.8284
  -1051867.28245   -762410.42845  25350093.4104   25350099.9494
       482.3444
 -12881965.54947  -9760898.76447  21919476.6604   21919481.6414
     -1047.2034
 -13044247.06348 -10034660.64547  21343881.9104   21343887.9804
     -1422.5624
  -3544899.86447  -2646391.76646  22494052.5434   22494058.6604
     -2671.9224
  -3090608.61645  -2172713.91245  24730004.1524   24730011.6214
      1327.9844
  -9356926.48248  -2789595.20147  22667115.5514   22667121.5744
      -346.3754
   7960354.17143   6333325.37945  25346564.8014   25346572.7854
     -4558.5624
 01 10  2  1 33  0.0040000  0  9G13G 7G11G28G 8G27G26G 2G31
  19229221.57943  15338041.53545  25974924.6374   25974936.9574
     -4903.3124
  -7678791.80246  -5828048.61546  23843336.3874   23843345.4734
      1951.3594
  -1059046.03945   -768004.15245  25348727.2464   25348734.6444
       475.6564
 -12866207.41847  -9748619.67047  21922475.3554   21922480.3014
     -1053.0314
 -13022844.07948 -10017982.97147  21347954.9574   21347960.8634
     -1430.3284
  -3504759.38947  -2615113.45446  22501691.3714   22501697.4774
     -2679.2974
  -3110462.26545  -2188184.24045  24726226.1374   24726232.7464
      1320.0164
  -9351691.75248  -2785516.15247  22668111.8014   22668117.7894
      -350.7504
   8028776.70743   6386641.69645  25359584.6994   25359594.0434
     -4563.6564
 01 10  2  1 33 15.0040000  0  9G13G 7G11G28G 8G27G26G 2G31
  19302788.04843  15395365.95445  25988923.6684   25988942.3634
     -4905.4694
  -7708015.31146  -5850820.04946  23837776.0434   23837785.2814
      1945.1884
  -1066125.06245   -773520.16545  25347380.3324   25347389.1254
       468.2664
 -12850362.50747  -9736272.96747  21925490.5434   21925495.3944
     -1059.5314
 -13001325.14548 -10001214.95447  21352049.8874   21352055.8874
     -1438.7814
  -3464509.03747  -2583749.53846  22509350.5744   22509356.4924
     -2687.3284
  -3130196.99245  -2203561.88245  24722471.3554   24722480.5354
      1311.3594
  -9346392.03748  -2781386.47547  22669120.2074   22669126.2664
      -355.7974
   8097274.75244   6440016.85045  25372620.3324   25372627.6254
     -4569.3754
 01 10  2  1 33 30.0040000  0  9G13G 7G11G28G 8G27G26G 2G31
  19376357.74543  15452692.80545  26002924.0984   26002944.8244
     -4904.6874
  -7737174.72246  -5873541.54946  23832227.1844   23832236.2464
      1941.8914
  -1073121.85045   -778972.10045  25346049.0594   25346054.9884
       463.7814
 -12834448.86147  -9723872.69847  21928518.8404   21928523.6684
     -1063.1094
 -12979708.18048  -9984370.54747  21356163.4344   21356169.5164
     -1444.3284
  -3424166.72747  -2552313.96046  22517027.3324   22517033.5784
     -2692.4844
  -3149830.53645  -2218860.71945  24718734.1054   24718742.2424
      1305.6094
  -9341045.36747  -2777220.20847  22670137.8014   22670143.8014
      -357.9374
   8165830.04244   6493436.73345  25385665.7774   25385675.7664
     -4572.1724
 01 10  2  1 33 45.0040000  0  9G13G 7G11G28G 8G27G26G 2G31
  19449935.01743  15510025.60945  26016926.6214   26016939.9844
     -4905.4064
  -7766264.93646  -5896209.11046  23826690.6294   23826699.0124
      1937.0164
  -1080031.26445   -784355.99945  25344735.0274   25344741.7544
       457.7194
 -12818461.85347  -9711415.26247  21931561.1294   21931565.8984
     -1068.2504
 -12957988.22348  -9967445.88847  21360296.4574   21360302.5044
     -1451.4374
  -3383727.58047  -2520802.91946  22524722.3714   22524728.3714
     -2699.1874
  -3169357.63645  -2234076.58045  24715019.2774   24715026.0864
      1298.2814
  -9335647.02948  -2773013.67847  22671164.8484   22671170.9184
      -361.6094
   8234446.93245   6546904.64945  25398723.0664   25398732.1054
     -4576.5314
 01 10  2  1 34  0.0040000  0  9G13G 7G11G28G 8G27G26G 2G31
  19523524.91743  15567368.23945  26030929.3164   26030950.4774
     -4906.6094
  -7795280.39346  -5918818.43246  23821169.1684   23821178.7234
      1931.6884
  -1086847.80945   -789667.55545  25343437.4184   25343443.5004
       451.1564
 -12802396.22147  -9698896.56847  21934618.2074   21934623.1874
     -1073.8444
 -12936160.02648  -9950436.87947  21364450.2074   21364456.0904
     -1459.0164
  -3343186.43347  -2489212.40446  22532436.9884   22532443.0354
     -2706.3284
  -3188772.94145  -2249205.36845  24711324.0824   24711332.4534
      1290.4224
  -9330191.86548  -2768762.86747  22672202.9344   22672208.9224
      -365.7664
   8303130.26345   6600424.26145  25411792.9184   25411799.6914
     -4581.2814
 01 10  2  1 34 15.0040000  0  9G13G 7G11G28G 8G27G26G 2G31
  19597132.82943  15624724.90445  26044937.2624   26044952.5004
     -4908.4534
  -7824215.15846  -5941364.87746  23815663.1764   23815672.3444
      1925.6564
  -1093565.49544   -794901.99245  25342157.2384   25342163.5664
       443.8914
 -12786246.33447  -9686312.22147  21937691.3874   21937696.3094
     -1080.1094
 -12914217.69348  -9933338.94447  21368625.6844   21368631.6484
     -1467.2814
  -3302537.48147  -2457537.89246  22540172.6604   22540178.6954
     -2714.1724
  -3208070.36645  -2264242.24745  24707652.3944   24707658.3484
      1281.9064
  -9324674.09848  -2764463.28047  22673252.9734   22673258.8914
      -370.5784
   8371885.54344   6653999.83745  25424875.7774   25424882.4924
     -4586.7034
 01 10  2  1 34 30.0040000  0  9G13G 7G11G28G 8G27G26G 2G31
  19670750.73343  15682089.31745  26058946.4184   26058961.5744
     -4908.6874
  -7853076.73746  -5963854.29646  23810170.9574   23810179.7034
      1921.1724
  -1100191.76143   -800065.23745  25340895.7854   25340906.6294
       438.2034
 -12770020.16147  -9673668.42247  21940779.0824   21940783.8404
     -1084.7814
 -12892168.73348  -9916157.91947  21372821.4964   21372827.4374
     -1473.9844
  -3261788.54047  -2425785.45346  22547926.7544   22547932.7304
     -2720.4224
  -3227257.36345  -2279193.14345  24704001.1914   24704008.7074
      1274.9384
  -9319101.62248  -2760121.05947  22674313.4964   22674319.4844
      -373.8124
   8440704.67443   6707625.22445  25437971.2544   25437979.3914
     -4590.5474
 01 10  2  1 34 45.0040000  0  9G13G 7G11G28G 8G27G26G 2G31
  19744379.80043  15739462.44844  26072958.3094   26072974.4844
     -4908.1414
  -7881863.23746  -5986285.20146  23804693.6604   23804703.2384
      1917.4064
  -1106724.77643   -805155.79545  25339651.0984   25339658.1684
       433.2344
 -12753716.22947  -9660964.04147  21943881.7234   21943886.5394
     -1088.7034
 -12870011.93548  -9898892.85847  21377037.7304   21377043.6254
     -1479.9224
  -3220938.00847  -2393953.85546  22555700.1764   22555706.2234
     -2725.9374
  -3246332.14845  -2294056.54945  24700372.3404   24700380.1724
      1268.7194
  -9313472.90948  -2755735.02347  22675384.5824   22675390.7694
      -376.2974
   8509588.75743   6761301.20245  25451079.1914   25451088.2894
     -4593.6254
 01 10  2  1 35  0.0040000  0  9G13G 7G11G28G 8G27G26G 2G31
  19818009.08142  15796835.82544  26086968.8634   26086986.2934
     -4908.7034
  -7910585.35046  -6008665.94246  23799228.2774   23799237.7624
      1912.5634
  -1113174.90145   -810181.80745  25338426.5044   25338433.4454
       427.1564
 -12737345.31247  -9648207.46147  21946996.8794   21947001.7304
     -1093.7034
 -12847757.65148  -9881551.84347  21381272.6214   21381278.6214
     -1486.9534
  -3179996.59947  -2362051.45746  22563490.9804   22563497.0984
     -2732.5314
  -3265305.25845  -2308840.76745  24696760.8874   24696767.9344
      1261.3754
  -9307798.80748  -2751313.61447  22676464.2694   22676470.1764
      -379.8754
   8578526.78343   6815019.20845  25464198.7234   25464205.8164
     -4597.7504
 01 10  2  1 35 15.0040000  0  9G13G 7G11G28G 8G27G26G 2G31
  19891643.97643  15854213.46245  26100981.1604   26100990.8324
     -4908.7664
  -7939236.86046  -6030991.67146  23793775.5514   23793784.0164
      1908.1254
  -1119536.10245   -815138.54345  25337215.2934   25337222.4104
       421.4844
 -12720901.80847  -9635394.31447  21950126.0594   21950130.8984
     -1098.2974
 -12825400.03848  -9864130.30647  21385526.8874   21385532.8524
     -1493.5944
  -3138958.54547  -2330073.74046  22571300.0824   22571306.0474
     -2738.7194
  -3284170.51245  -2323540.89945  24693169.9734   24693177.4064
      1254.4694
  -9302073.53348  -2746852.33147  22677553.7384   22677559.8094
      -383.0004
   8647524.08743   6868783.36445  25477328.3794   25477336.1294
     -4601.3914
 01 10  2  1 35 30.0040000  0  9G13G 7G11G28G 8G27G26G 2G31
  19965291.68243  15911601.16445  26114996.1524   26115006.1874
     -4910.0624
  -7967810.02746  -6053256.35346  23788338.0984   23788347.0784
      1902.4694
  -1125800.45745   -820019.73945  25336025.2384   25336030.8874
       414.6094
 -12704378.15747  -9622518.72347  21953270.2074   21953275.0004
     -1104.0314
 -12802931.41848  -9846622.27647  21389802.9734   21389808.8914
     -1501.3914
  -3097816.24047  -2298014.79346  22579129.2624   22579135.3554
     -2746.0784
  -3302920.06845  -2338150.92445  24689602.2934   24689609.7504
      1246.3284
  -9296289.64148  -2742345.37247  22678654.2694   22678660.1874
      -387.3284
   8716587.93144   6922599.40345  25490471.0984   25490477.9414
     -4606.2504
 01 10  2  1 35 45.0040000  0  9G13G 7G11G28G 8G27G26G 2G31
  20038947.84142  15968995.38845  26129010.4574   26129019.0744
     -4911.2814
  -7996308.71646  -6075463.01546  23782915.7624   23782924.6484
      1896.7814
  -1131971.88045   -824828.59745  25334849.0594   25334856.6804
       407.7034
 -12687778.80247  -9609584.14347  21956428.8484   21956433.8524
     -1109.7664
 -12780355.86048  -9829030.91047  21394098.8484   21394104.8244
     -1509.2194
  -3056573.90147  -2265877.89546  22586977.6914   22586983.7154
     -2753.4534
  -3321557.87145  -2352673.83845  24686055.5274   24686064.2384
      1238.1724
  -9290451.38648  -2737796.05247  22679765.4024   22679771.4614
      -391.6564
   8785713.73144   6976463.72945  25503624.8014   25503631.3524
     -4611.0624
 01 10  2  1 36  0.0040000  0  9G13G 7G11G28G 8G27G26G 2G31
  20112617.22943  16026399.99644  26143031.2544   26143049.6684
     -4911.1254
  -8024727.50546  -6097607.39946  23777506.5124   23777515.4924
      1892.5314
  -1138044.88043   -829560.73445  25333690.7774   25333698.6094
       402.1884
 -12671098.53947  -9596586.52047  21959602.9804   21959607.8794
     -1114.1254
 -12757668.18748  -9811352.18547  21398416.0354   21398421.8364
     -1515.6564
  -3015226.27247  -2233658.95846  22594845.6914   22594851.6804
     -2759.4374
  -3340078.39445  -2367105.36545  24682531.2074   24682539.2734
      1231.3914
  -9284553.58648  -2733200.32947  22680887.4104   22680893.4574
      -394.5784
   8854906.35143   7030380.06245  25516790.9414   25516799.6644
     -4614.4694
 01 10  2  1 36 15.0040000  0  9G13G 7G11G28G 8G27G26G 2G31
  20186289.56843  16083806.80145  26157051.3244   26157062.5784
     -4911.0784
  -8053075.98246  -6119697.00346  23772111.4734   23772120.8634
      1888.0314
  -1144029.08944   -834223.67745  25332553.6294   25332559.9924
       396.4534
 -12654347.27747  -9583533.56447  21962790.7624   21962795.5784
     -1118.6254
 -12734878.15348  -9793593.70047  21402752.8874   21402758.8284
     -1522.2814
  -2973783.28747  -2201365.71846  22602732.2544   22602738.3244
     -2765.5624
  -3358491.36645  -2381453.09045  24679028.0744   24679035.2154
      1224.4064
  -9278606.23848  -2728566.00447  22682019.2774   22682025.1724
      -397.6564
   8924155.67643   7084340.71845  25529969.2384   25529979.4734
     -4618.0164
 01 10  2  1 36 30.0040000  0  9G13G 7G11G28G 8G27G26G 2G31
  20259963.59643  16141215.05845  26171070.1294   26171081.6294
     -4912.2504
  -8081355.06846  -6141732.53346  23766730.1764   23766739.2504
      1882.3754
  -1149925.26145   -838817.95745  25331433.1134   25331437.9884
       389.5314
 -12637526.31547  -9570426.30447  21965991.6214   21965996.4144
     -1124.3124
 -12711986.62248  -9775756.12447  21407108.8484   21407114.7304
     -1530.0784
  -2932245.98847  -2168998.99046  22610636.6524   22610642.8054
     -2772.8914
  -3376797.54445  -2395717.59445  24675545.0354   24675553.3364
      1216.2344
  -9272610.52948  -2723893.99647  22683160.2304   22683166.1954
      -401.9224
   8993460.18943   7138344.32645  25543158.5044   25543167.3094
     -4622.7344
 01 10  2  1 36 45.0040000  0  9G13G 7G11G28G 8G27G26G 2G31
  20333651.79342  16198634.19745  26185092.9264   26185101.1564
     -4912.7194
  -8109551.77546  -6163703.89146  23761364.3014   23761373.0474
      1877.2974
  -1155720.34745   -843333.64245  25330330.6294   25330337.5354
       383.2344
 -12620623.04247  -9557254.91047  21969208.2464   21969212.9924
     -1129.3284
 -12688980.93648  -9757829.60147  21411486.7074   21411492.6604
     -1537.2344
  -2890601.59547  -2136548.80146  22618560.9184   22618566.9304
     -2779.5784
  -3394983.77745  -2409888.65145  24672082.3014   24672089.9694
      1208.7194
  -9266553.75548  -2719174.40447  22684312.7854   22684318.7384
      -405.5314
   9062832.38443   7192400.64545  25556358.6054   25556365.3094
     -4626.7504
 01 10  2  1 37  0.0040000  0  9G13G 7G11G28G 8G27G26G 2G31
  20407353.06943  16256063.65043  26199117.8324   26199140.3404
     -4913.5784
  -8137666.47446  -6185611.32946  23756014.4574   23756023.5554
      1871.8444
  -1161414.77243   -847770.78245  25329243.9804   25329252.5164
       376.5314
 -12603638.20747  -9544019.95747  21972440.3404   21972444.9694
     -1134.7814
 -12665861.61248  -9739814.52847  21415886.1684   21415892.1804
     -1544.8284
  -2848850.94047  -2104015.81546  22626505.5664   22626511.5554
     -2786.6564
  -3413050.67345  -2423966.70245  24668645.7774   24668654.0084
      1200.7194
  -9260436.70148  -2714407.83947  22685476.8094   22685482.8674
      -409.5474
   9132271.07443   7246508.80045  25569571.9414   25569579.7154
     -4631.2034
 01 10  2  1 37 15.0040000  0  9G13G 7G11G28G 8G27G26G 2G31
  20481067.33843  16313503.13745  26213146.0194   26213154.6844
     -4915.0944
  -8165698.61746  -6207454.43746  23750679.9884   23750688.9924
      1865.6724
  -1167008.00044   -852129.08545  25328180.4884   25328185.8444
       369.1254
 -12586571.55647  -9530721.25447  21975688.0744   21975692.8914
     -1140.8754
 -12642628.20448  -9721710.55747  21420307.3404   21420313.3054
     -1553.0624
  -2806993.67547  -2071399.75946  22634471.3244   22634477.2304
     -2794.4064
  -3430997.55045  -2437951.24345  24665230.3404   24665237.1484
      1192.0634
  -9254259.09248  -2709594.08847  22686652.1844   22686658.2664
      -414.2344
   9201776.22844   7300668.69245  25582798.4884   25582806.9654
     -4636.2664
 01 10  2  1 37 30.0040000  0  9G13G 7G11G28G 8G27G26G 2G31
  20554792.93943  16370951.51445  26227174.9184   26227193.9884
     -4915.0474
  -8193649.38346  -6229234.14246  23745361.2234   23745369.3834
      1861.0314
  -1172501.02845   -856409.29945  25327135.9884   25327141.3674
       363.2194
 -12569424.69747  -9517360.04447  21978950.9884   21978955.8164
     -1145.4374
 -12619282.27548  -9703518.90847  21424749.8404   21424755.8404
     -1559.7974
  -2765031.23947  -2038701.75646  22642456.5514   22642462.6094
     -2800.6414
  -3448825.68745  -2451843.28445  24661837.6294   24661845.1334
      1184.9224
  -9248022.49248  -2704734.37447  22687839.0354   22687844.9884
      -417.3914
   9271345.99644   7354879.01445  25596036.6294   25596045.0004
     -4639.7814
 01 10  2  1 37 45.0040000  0  9G13G 7G11G28G 8G27G26G 2G31
  20628519.67543  16428400.62244  26241205.1374   26241221.8754
     -4915.1564
  -8221528.56246  -6250958.06146  23740056.4574   23740065.1094
      1856.2194
  -1177903.44144   -860618.94145  25326107.3634   25326116.3794
       357.1414
 -12552207.62947  -9503944.13447  21982227.2624   21982231.9024
     -1150.1254
 -12595833.52748  -9685247.13547  21429212.2074   21429218.2074
     -1566.6724
  -2722973.55347  -2005929.52846  22650459.6764   22650465.6414
     -2807.0004
  -3466544.48645  -2465650.04145  24658465.7384   24658473.1724
      1177.6254
  -9241736.77848  -2699836.38547  22689035.0594   22689041.1054
      -420.6724
   9340970.12644   7409131.63345  25609285.9414   25609293.6564
     -4643.4064
 01 10  2  1 38  0.0040000  0  9G13G 7G11G28G 8G27G26G 2G31
  20702246.68843  16485850.27344  26255234.3874   26255247.0944
     -4915.8754
  -8249336.26346  -6272626.29046  23734764.1994   23734773.0514
      1850.7194
  -1183215.50545   -864758.07745  25325097.4884   25325106.5394
       350.3754
 -12534920.89447  -9490473.93847  21985516.6294   21985521.3524
     -1155.5164
 -12572282.24548  -9666895.47247  21433693.5514   21433699.4694
     -1574.2504
  -2680821.02947  -1973083.39446  22658480.7074   22658486.8014
     -2814.0784
  -3484154.30245  -2479371.96145  24655114.5044   24655120.7734
      1169.5944
  -9235402.52248  -2694900.57347  22690240.2694   22690246.4224
      -424.6414
   9410647.83845   7463426.02345  25622545.9024   25622552.8554
     -4647.7194
 01 10  2  1 38 15.0040000  0  9G13G 7G11G28G 8G27G26G 2G31
  20775982.86843  16543306.90645  26269267.0044   26269283.5434
     -4915.8914
  -8277062.95846  -6294231.38346  23729488.0744   23729496.5164
      1845.9064
  -1188427.65744   -868819.38345  25324104.0514   25324111.8714
       344.3134
 -12517555.28147  -9476942.27947  21988821.3794   21988826.1254
     -1160.1724
 -12548619.26848  -9648456.76947  21438196.5354   21438202.5004
     -1581.1094
  -2638564.42247  -1940156.16646  22666521.9654   22666528.1524
     -2820.4224
  -3501645.62745  -2493001.54645  24651786.9264   24651794.5944
      1162.2974
  -9229010.48648  -2689919.74247  22691456.8714   22691462.9064
      -427.9064
   9480388.05544   7517769.18145  25635815.9574   25635823.1214
     -4651.2664
 01 10  2  1 38 30.0040000  0  9G13G 7G11G28G 8G27G26G 2G31
  20849721.44043  16600765.27745  26283298.6374   26283311.8834
     -4916.4534
  -8304715.15946  -6315778.45146  23724225.8634   23724234.1764
      1840.5314
  -1193546.41545   -872807.96545  25323131.9734   25323139.7464
       337.6414
 -12500117.73047  -9463354.56647  21992139.6054   21992144.4344
     -1165.3754
 -12524851.04148  -9629936.05447  21442719.3404   21442725.2814
     -1588.5314
  -2596210.49047  -1907153.10546  22674581.6684   22674587.7274
     -2827.3124
  -3519024.86445  -2506543.72245  24648478.0354   24648486.0554
      1154.4064
  -9222567.44148  -2684899.16647  22692682.8484   22692688.9534
      -431.7034
   9550183.67343   7572155.51145  25649097.4964   25649103.9774
     -4655.3284
 01 10  2  1 38 45.0040000  0  9G13G 7G11G28G 8G27G26G 2G31
  20923472.07443  16658233.15145  26297333.3874   26297353.6414
     -4917.4224
  -8332282.49946  -6337259.37446  23718980.5434   23718988.9024
      1834.6724
  -1198561.23345   -876715.59945  25322176.9414   25322182.8944
       330.5314
 -12482598.20547  -9449702.97347  21995473.3014   21995478.0354
     -1171.0164
 -12500967.44148  -9611325.44347  21447264.1684   21447270.1804
     -1596.4064
  -2553749.13447  -1874066.34046  22682661.6294   22682667.8524
     -2834.6564
  -3536281.60245  -2519990.50445  24645195.3404   24645201.7034
      1146.0314
  -9216063.45748  -2679831.09247  22693920.4104   22693926.3984
      -435.9534
   9620044.49243   7626592.56145  25662391.2304   25662400.1294
     -4659.8754
